[[{"header":{"parameterUnit":"m.s-1","parameterCategory":1,"la1":30.6,"la2":28.766,"lo1":-90.7593,"lo2":-88.6598,"dy":0.0162,"dx":0.0183,"nx":116,"ny":114,"refTime":"2024-04-07T18:00:00:Z","depth":0,"parameterNumber":2,"parameterNumberName":"U-component_of_WINDS"},"data":[0.0,0.0,0.0,0.0,0.0,0.0,0.0,0.0,0.0,0.0,0.0,0.0,0.0,0.0,0.0,0.0,0.0,0.0,0.0,0.0,0.0,0.0,0.0,0.0,0.0,0.0,0.0,0.0,0.0,0.0,0.0,0.0,0.0,0.0,0.0,0.0,0.0,0.0,0.0,0.0,0.0,0.0,0.0,0.0,0.0,0.0,0.0,0.0,0.0,0.0,0.0,0.0,0.0,0.0,0.0,0.0,0.0,0.0,0.0,0.0,0.0,0.0,0.0,0.0,0.0,0.0,0.0,0.0,0.0,0.0,0.0,0.0,0.0,0.0,0.0,0.0,0.0,0.0,0.0,0.0,0.0,0.0,0.0,0.0,0.0,0.0,0.0,0.0,0.0,0.0,0.0,0.0,0.0,0.0,0.0,0.0,0.0,0.0,0.0,0.0,0.0,0.0,0.0,0.0,0.0,0.0,0.0,0.0,0.0,0.0,0.0,0.0,0.0,0.0,0.0,0.0,0.0,0.0,0.0,0.0,0.0,0.0,0.0,0.0,0.0,0.0,0.0,0.0,0.0,0.0,0.0,0.0,0.0,0.0,0.0,0.0,0.0,0.0,0.0,0.0,0.0,0.0,0.0,0.0,0.0,0.0,0.0,0.0,0.0,0.0,0.0,0.0,0.0,0.0,0.0,0.0,0.0,0.0,0.0,0.0,0.0,0.0,0.0,0.0,0.0,0.0,0.0,0.0,0.0,0.0,0.0,0.0,0.0,0.0,0.0,0.0,0.0,0.0,0.0,0.0,0.0,0.0,0.0,0.0,0.0,0.0,0.0,0.0,0.0,0.0,0.0,0.0,0.0,0.0,0.0,0.0,0.0,0.0,0.0,0.0,0.0,0.0,0.0,0.0,0.0,0.0,0.0,0.0,0.0,0.0,0.0,0.0,0.0,0.0,0.0,0.0,0.0,0.0,0.0,0.0,0.0,0.0,0.0,0.0,0.0,0.0,0.0,0.0,0.0,0.0,0.0,0.0,0.0,0.0,0.0,0.0,0.0,0.0,0.0,0.0,0.0,0.0,0.0,0.0,0.0,0.0,0.0,0.0,0.0,0.0,0.0,0.0,0.0,0.0,0.0,0.0,0.0,0.0,0.0,0.0,0.0,0.0,0.0,0.0,0.0,0.0,0.0,0.0,0.0,0.0,0.0,0.0,0.0,0.0,0.0,0.0,0.0,0.0,0.0,0.0,0.0,0.0,0.0,0.0,0.0,0.0,0.0,0.0,0.0,0.0,0.0,0.0,0.0,0.0,0.0,0.0,0.0,0.0,0.0,0.0,0.0,0.0,0.0,0.0,0.0,0.0,0.0,0.0,0.0,0.0,0.0,0.0,0.0,0.0,0.0,0.0,0.0,0.0,0.0,0.0,0.0,0.0,0.0,0.0,0.0,0.0,0.0,0.0,0.0,0.0,0.0,0.0,0.0,0.0,0.0,0.0,0.0,0.0,0.0,0.0,0.0,0.0,0.0,0.0,0.0,0.0,0.0,0.0,0.0,0.0,0.0,0.0,0.0,0.0,0.0,0.0,0.0,0.0,0.0,0.0,0.0,0.0,0.0,0.0,0.0,0.0,0.0,0.0,0.0,0.0,0.0,0.0,0.0,0.0,0.0,0.0,0.0,0.0,0.0,0.0,0.0,0.0,0.0,0.0,0.0,0.0,0.0,0.0,0.0,0.0,0.0,0.0,0.0,0.0,0.0,0.0,0.0,0.0,0.0,0.0,0.0,0.0,0.0,0.0,0.0,0.0,0.0,0.0,0.0,0.0,0.0,0.0,0.0,0.0,0.0,0.0,0.0,0.0,0.0,0.0,0.0,0.0,0.0,0.0,0.0,0.0,0.0,0.0,0.0,0.0,0.0,0.0,0.0,0.0,0.0,0.0,0.0,0.0,0.0,0.0,0.0,0.0,0.0,0.0,0.0,0.0,0.0,0.0,0.0,0.0,0.0,0.0,0.0,0.0,0.0,0.0,0.0,0.0,0.0,0.0,0.0,0.0,0.0,0.0,0.0,0.0,0.0,0.0,0.0,0.0,0.0,0.0,0.0,0.0,0.0,0.0,0.0,0.0,0.0,0.0,0.0,0.0,0.0,0.0,0.0,0.0,0.0,0.0,0.0,0.0,0.0,0.0,0.0,0.0,0.0,0.0,0.0,0.0,0.0,0.0,0.0,0.0,0.0,0.0,0.0,0.0,0.0,0.0,0.0,0.0,0.0,0.0,0.0,0.0,0.0,0.0,0.0,0.0,0.0,0.0,0.0,0.0,0.0,0.0,0.0,0.0,0.0,0.0,0.0,0.0,0.0,0.0,0.0,0.0,0.0,0.0,0.0,0.0,0.0,0.0,0.0,0.0,0.0,0.0,0.0,0.0,0.0,0.0,0.0,0.0,0.0,0.0,0.0,0.0,0.0,0.0,0.0,0.0,0.0,0.0,0.0,0.0,0.0,0.0,0.0,0.0,0.0,0.0,0.0,0.0,0.0,0.0,0.0,0.0,0.0,0.0,0.0,0.0,0.0,0.0,0.0,0.0,0.0,0.0,0.0,0.0,0.0,0.0,0.0,0.0,0.0,0.0,0.0,0.0,0.0,0.0,0.0,0.0,0.0,0.0,0.0,0.0,0.0,0.0,0.0,0.0,0.0,0.0,0.0,0.0,0.0,0.0,0.0,0.0,0.0,0.0,0.0,0.0,0.0,0.0,0.0,0.0,0.0,0.0,0.0,0.0,0.0,0.0,0.0,0.0,0.0,0.0,0.0,0.0,0.0,0.0,0.0,0.0,0.0,0.0,0.0,0.0,0.0,0.0,0.0,0.0,0.0,0.0,0.0,0.0,0.0,0.0,0.0,0.0,0.0,0.0,0.0,0.0,0.0,0.0,0.0,0.0,0.0,0.0,0.0,0.0,0.0,0.0,0.0,0.0,0.0,0.0,0.0,0.0,0.0,0.0,0.0,0.0,0.0,0.0,0.0,0.0,0.0,0.0,0.0,0.0,0.0,0.0,0.0,0.0,0.0,0.0,0.0,0.0,0.0,0.0,0.0,0.0,0.0,0.0,0.0,0.0,0.0,0.0,0.0,0.0,0.0,0.0,0.0,0.0,0.0,0.0,0.0,0.0,0.0,0.0,0.0,0.0,0.0,0.0,0.0,0.0,0.0,0.0,0.0,0.0,0.0,0.0,0.0,0.0,0.0,0.0,0.0,0.0,0.0,0.0,0.0,0.0,0.0,0.0,0.0,0.0,0.0,0.0,0.0,0.0,0.0,0.0,0.0,0.0,0.0,0.0,0.0,0.0,0.0,0.0,0.0,0.0,0.0,0.0,0.0,0.0,0.0,0.0,0.0,0.0,0.0,0.0,0.0,0.0,0.0,0.0,0.0,0.0,0.0,0.0,0.0,0.0,0.0,0.0,0.0,0.0,0.0,0.0,0.0,0.0,0.0,0.0,0.0,0.0,0.0,0.0,0.0,0.0,0.0,0.0,0.0,0.0,0.0,0.0,0.0,0.0,0.0,0.0,0.0,0.0,0.0,0.0,0.0,0.0,0.0,0.0,0.0,0.0,0.0,0.0,0.0,0.0,0.0,0.0,0.0,0.0,0.0,0.0,0.0,0.0,0.0,0.0,0.0,0.0,0.0,0.0,0.0,0.0,0.0,0.0,0.0,0.0,0.0,0.0,0.0,0.0,0.0,0.0,0.0,0.0,0.0,0.0,0.0,0.0,0.0,0.0,0.0,0.0,0.0,0.0,0.0,0.0,0.0,0.0,0.0,0.0,0.0,0.0,0.0,0.0,0.0,0.0,0.0,0.0,0.0,0.0,0.0,0.0,0.0,0.0,0.0,0.0,0.0,0.0,0.0,0.0,0.0,0.0,0.0,0.0,0.0,0.0,0.0,0.0,0.0,0.0,0.0,0.0,0.0,0.0,0.0,0.0,0.0,0.0,0.0,0.0,0.0,0.0,0.0,0.0,0.0,0.0,0.0,0.0,0.0,0.0,0.0,0.0,0.0,0.0,0.0,0.0,0.0,0.0,0.0,0.0,0.0,0.0,0.0,0.0,0.0,0.0,0.0,0.0,0.0,0.0,0.0,0.0,0.0,0.0,0.0,0.0,0.0,0.0,0.0,0.0,0.0,0.0,0.0,0.0,0.0,0.0,0.0,0.0,0.0,0.0,0.0,0.0,0.0,0.0,0.0,0.0,0.0,0.0,0.0,0.0,0.0,0.0,0.0,0.0,0.0,0.0,0.0,0.0,0.0,0.0,0.0,0.0,0.0,0.0,0.0,0.0,0.0,0.0,0.0,0.0,0.0,0.0,0.0,0.0,0.0,0.0,0.0,0.0,0.0,0.0,0.0,0.0,0.0,0.0,0.0,0.0,0.0,0.0,0.0,0.0,0.0,0.0,0.0,0.0,0.0,0.0,0.0,0.0,0.0,0.0,0.0,0.0,0.0,0.0,0.0,0.0,0.0,0.0,0.0,0.0,0.0,0.0,0.0,0.0,0.0,0.0,0.0,0.0,0.0,0.0,0.0,0.0,0.0,0.0,0.0,0.0,0.0,0.0,0.0,0.0,0.0,0.0,0.0,0.0,0.0,0.0,0.0,0.0,0.0,0.0,0.0,0.0,0.0,0.0,0.0,0.0,0.0,0.0,0.0,0.0,0.0,0.0,0.0,0.0,0.0,0.0,0.0,0.0,0.0,0.0,0.0,0.0,0.0,0.0,0.0,0.0,0.0,0.0,0.0,0.0,0.0,0.0,0.0,0.0,0.0,0.0,0.0,0.0,0.0,0.0,0.0,0.0,0.0,0.0,0.0,0.0,0.0,0.0,0.0,0.0,0.0,0.0,0.0,0.0,0.0,0.0,0.0,0.0,0.0,0.0,0.0,0.0,0.0,0.0,0.0,0.0,0.0,0.0,0.0,0.0,0.0,0.0,0.0,0.0,0.0,0.0,0.0,0.0,0.0,0.0,0.0,0.0,0.0,0.0,0.0,0.0,0.0,0.0,0.0,0.0,0.0,0.0,0.0,0.0,0.0,0.0,0.0,0.0,0.0,0.0,0.0,0.0,0.0,0.0,0.0,0.0,0.0,0.0,0.0,0.0,0.0,0.0,0.0,0.0,0.0,0.0,0.0,0.0,0.0,0.0,0.0,0.0,0.0,0.0,0.0,0.0,0.0,0.0,0.0,0.0,0.0,0.0,0.0,0.0,0.0,0.0,0.0,0.0,0.0,0.0,0.0,0.0,0.0,0.0,0.0,0.0,0.0,0.0,0.0,0.0,0.0,0.0,0.0,0.0,0.0,0.0,0.0,0.0,0.0,0.0,0.0,0.0,0.0,0.0,0.0,0.0,0.0,0.0,0.0,0.0,0.0,0.0,0.0,0.0,0.0,0.0,0.0,0.0,0.0,0.0,0.0,0.0,0.0,0.0,0.0,0.0,0.0,0.0,0.0,0.0,0.0,0.0,0.0,0.0,0.0,0.0,0.0,0.0,0.0,0.0,0.0,0.0,0.0,0.0,0.0,0.0,0.0,0.0,0.0,0.0,0.0,0.0,0.0,0.0,0.0,0.0,0.0,0.0,0.0,0.0,0.0,0.0,0.0,0.0,0.0,0.0,0.0,0.0,0.0,0.0,0.0,0.0,0.0,0.0,0.0,0.0,0.0,0.0,0.0,0.0,0.0,0.0,0.0,0.0,0.0,0.0,0.0,0.0,0.0,0.0,0.0,0.0,0.0,0.0,0.0,0.0,0.0,0.0,0.0,0.0,0.0,0.0,0.0,0.0,0.0,0.0,0.0,0.0,0.0,0.0,0.0,0.0,0.0,0.0,0.0,0.0,0.0,0.0,0.0,0.0,0.0,0.0,0.0,0.0,0.0,0.0,0.0,0.0,0.0,0.0,0.0,0.0,0.0,0.0,0.0,0.0,0.0,0.0,0.0,0.0,0.0,0.0,0.0,0.0,0.0,0.0,0.0,0.0,0.0,0.0,0.0,0.0,0.0,0.0,0.0,0.0,0.0,0.0,0.0,0.0,0.0,0.0,0.0,0.0,0.0,0.0,0.0,0.0,-4.5361,-4.3115,0.0,0.0,0.0,0.0,0.0,0.0,0.0,0.0,0.0,0.0,0.0,0.0,0.0,0.0,0.0,0.0,0.0,0.0,0.0,0.0,0.0,0.0,0.0,-4.3292,-4.3175,-4.1537,-4.1486,-4.0761,-3.8821,-3.878,0.0,0.0,0.0,0.0,-3.8361,-3.9996,-4.0752,-4.0525,-4.3445,-4.6606,-4.99,-4.9455,-4.7965,-4.5596,0.0,0.0,0.0,0.0,0.0,0.0,0.0,0.0,0.0,0.0,0.0,0.0,0.0,0.0,0.0,0.0,0.0,0.0,0.0,0.0,0.0,0.0,0.0,0.0,0.0,0.0,0.0,0.0,0.0,0.0,0.0,0.0,0.0,0.0,0.0,0.0,0.0,0.0,0.0,0.0,0.0,0.0,0.0,0.0,0.0,0.0,0.0,0.0,0.0,0.0,0.0,0.0,0.0,0.0,0.0,0.0,0.0,0.0,0.0,0.0,0.0,0.0,0.0,0.0,0.0,0.0,0.0,0.0,0.0,0.0,-4.9475,-4.6363,0.0,0.0,0.0,0.0,0.0,0.0,0.0,0.0,0.0,0.0,0.0,0.0,0.0,0.0,0.0,0.0,0.0,0.0,0.0,0.0,0.0,-4.173,-4.205,-4.3129,-4.323,-4.1778,-4.1951,-4.1312,-3.9244,-3.9237,-3.8871,-3.7813,-3.8346,-3.8642,-3.8513,-4.0247,-4.1383,-4.1867,-4.692,-5.1383,-5.5218,-5.6563,-5.4909,-5.0645,-4.6569,0.0,0.0,0.0,0.0,0.0,0.0,0.0,0.0,0.0,0.0,0.0,0.0,0.0,0.0,0.0,0.0,0.0,0.0,0.0,0.0,0.0,0.0,0.0,0.0,0.0,0.0,0.0,0.0,0.0,0.0,0.0,0.0,0.0,0.0,0.0,0.0,0.0,0.0,0.0,0.0,0.0,0.0,0.0,0.0,0.0,0.0,0.0,0.0,0.0,0.0,0.0,0.0,0.0,0.0,0.0,0.0,0.0,0.0,0.0,0.0,0.0,0.0,0.0,-5.8752,-5.9626,-6.0293,-6.0293,-6.0613,-6.0874,-5.4699,-5.1149,-4.9543,-4.7386,0.0,0.0,0.0,0.0,0.0,0.0,0.0,0.0,0.0,0.0,0.0,0.0,0.0,0.0,0.0,0.0,0.0,0.0,0.0,-4.1516,-4.2423,-4.2884,-4.2973,-4.2549,-4.1707,-4.0827,-3.9991,-3.9153,-3.857,-3.8363,-3.8324,-3.8352,-3.8503,-3.9759,-4.1692,-4.4238,-5.3567,-5.9848,-6.3206,-6.4517,-6.4875,-6.4032,-5.521,-5.0351,-4.8614,0.0,0.0,0.0,0.0,0.0,0.0,0.0,0.0,0.0,0.0,0.0,0.0,0.0,0.0,0.0,0.0,0.0,0.0,0.0,0.0,0.0,0.0,0.0,0.0,0.0,0.0,0.0,0.0,0.0,0.0,0.0,0.0,0.0,0.0,0.0,0.0,0.0,0.0,0.0,0.0,0.0,-4.8326,-4.9479,0.0,0.0,0.0,0.0,0.0,0.0,0.0,0.0,0.0,0.0,0.0,0.0,0.0,-5.7631,-5.9623,-6.229,-6.3414,-6.3057,-6.5411,-6.5714,-6.4241,-6.4241,-6.459,-6.499,-6.2774,0.0,-5.5881,-5.3237,0.0,0.0,0.0,0.0,0.0,0.0,0.0,0.0,0.0,0.0,0.0,0.0,0.0,0.0,0.0,0.0,0.0,0.0,0.0,0.0,0.0,-4.5683,-4.742,-4.661,-5.0251,-5.0299,-4.4772,-4.5321,-4.3675,-3.8821,-3.8782,-3.9032,-3.9323,-4.2413,-4.7291,-5.4075,-6.0753,-6.5647,-6.8817,-7.0878,-7.1721,-7.1188,-6.6192,-6.0486,-5.4484,-5.1711,0.0,0.0,0.0,0.0,0.0,0.0,0.0,0.0,0.0,0.0,0.0,0.0,0.0,0.0,0.0,0.0,0.0,0.0,0.0,0.0,0.0,0.0,0.0,0.0,0.0,0.0,0.0,0.0,0.0,0.0,0.0,0.0,0.0,0.0,0.0,0.0,0.0,0.0,0.0,-4.9309,-5.264,-5.1314,-5.1647,-5.0736,0.0,0.0,0.0,0.0,0.0,0.0,0.0,0.0,0.0,-5.8667,-6.1405,-6.3535,-6.4964,-6.6902,-6.8076,-6.836,-6.9509,-6.9793,-6.9263,-6.9263,-6.9641,-7.0192,-6.9127,-6.7186,-6.4352,-5.8696,-5.455,-5.1569,0.0,0.0,0.0,0.0,-4.6393,-4.663,0.0,0.0,0.0,0.0,0.0,0.0,0.0,0.0,0.0,0.0,0.0,0.0,-4.5049,-4.9988,-5.3208,-5.3221,-5.8085,-5.7886,-5.0226,-5.0234,-4.7307,-4.0052,-3.9798,-3.998,-4.0288,-4.5986,-5.354,-6.2825,-6.7334,-7.101,-7.3971,-7.6485,-7.7293,-7.6574,-7.5437,-6.9756,-6.0937,-5.8083,-5.3646,-4.8222,0.0,0.0,0.0,0.0,0.0,0.0,0.0,0.0,0.0,0.0,0.0,0.0,0.0,0.0,0.0,0.0,0.0,0.0,0.0,0.0,0.0,0.0,0.0,0.0,0.0,0.0,0.0,0.0,0.0,0.0,0.0,0.0,0.0,0.0,0.0,0.0,0.0,-5.3772,-5.6689,-5.3427,-5.5731,-5.565,0.0,0.0,0.0,0.0,0.0,0.0,-5.8112,-6.0588,-6.2795,-6.4717,-6.7308,-6.9291,-7.047,-7.1487,-7.2403,-7.3249,-7.3171,-7.3252,-7.3589,-7.3443,-7.3618,-7.4053,-7.3211,-7.2224,-7.0616,-6.3555,-5.8868,-5.5846,-5.3525,-5.188,-5.0796,-5.0401,-5.0161,-5.0041,0.0,0.0,0.0,0.0,0.0,0.0,0.0,0.0,0.0,0.0,0.0,-4.7241,-5.1728,-5.5494,-5.9262,-6.294,-6.1146,-5.8428,-5.5134,-5.0417,-4.6159,-4.2721,-4.1551,-4.1047,-4.1028,-4.9926,-5.8579,-6.6627,-7.2589,-7.6844,-7.9477,-8.1482,-8.208,-8.1392,-8.0704,-7.5946,-6.8106,-6.2989,-5.8907,-5.522,-4.8055,0.0,0.0,0.0,0.0,0.0,0.0,0.0,0.0,0.0,0.0,0.0,0.0,0.0,0.0,0.0,0.0,0.0,0.0,0.0,0.0,0.0,0.0,0.0,0.0,0.0,0.0,0.0,0.0,0.0,0.0,0.0,0.0,0.0,0.0,0.0,0.0,0.0,0.0,-5.6875,-6.1468,0.0,0.0,0.0,0.0,-5.5213,-5.7971,-6.0791,-6.3195,-6.5441,-6.8264,-7.186,-7.3626,-7.5377,-7.7293,-7.7382,-7.7343,-7.7328,-7.6738,-7.6359,-7.623,-7.565,-7.5388,-7.5359,-7.4111,-7.3153,-7.2166,-6.7455,-6.4381,-6.2293,-5.8577,-5.7139,-5.6881,-5.5708,-5.4435,-5.3209,0.0,0.0,0.0,0.0,0.0,-3.8158,-3.8592,-3.9286,-4.0076,-4.0907,-4.5692,-5.0193,-5.3321,-6.1379,-6.7521,-7.0113,-7.2904,-7.2036,-6.6031,-6.0264,-5.4476,-4.8718,-4.4242,-4.4823,-5.1144,-5.7915,-6.5297,-7.3236,-7.7569,-8.0584,-8.238,-8.3936,-8.4085,-8.3038,-8.2798,-8.0644,-7.6904,-7.2026,-6.6635,-6.1008,-5.5968,-5.0389,0.0,0.0,0.0,0.0,0.0,0.0,0.0,0.0,0.0,0.0,0.0,0.0,0.0,0.0,0.0,0.0,0.0,0.0,0.0,0.0,0.0,0.0,0.0,0.0,0.0,0.0,0.0,0.0,0.0,0.0,0.0,0.0,0.0,0.0,0.0,0.0,0.0,-6.2175,-6.6733,0.0,-6.1483,-6.099,-6.1513,-6.2703,-6.4241,-6.673,-7.0311,-7.2238,-7.4325,-7.6765,-7.8077,-7.9028,-7.9716,-7.9327,-7.8917,-7.8612,-7.7667,-7.7122,-7.6837,-7.638,-7.6114,-7.6056,-7.475,-7.4053,-7.3618,-7.0802,-6.8015,-6.5286,-6.272,-6.1152,-6.0312,-5.8981,-5.8149,-5.7638,0.0,0.0,0.0,0.0,-3.712,-3.7767,-3.8284,-3.9204,-4.0457,-4.2295,-4.846,-5.4399,-5.8784,-6.836,-7.5368,-7.7631,-8.0691,-7.8933,-7.0632,-6.4497,-5.783,-5.02,-4.6948,-4.9844,-5.9364,-6.4279,-7.0518,-7.816,-8.1272,-8.3217,-8.4085,-8.5192,-8.5103,-8.4055,-8.4055,-8.3457,-8.223,-7.8938,-7.3767,-6.7397,-6.2347,-5.5913,-4.9004,0.0,0.0,0.0,0.0,0.0,0.0,0.0,0.0,0.0,0.0,0.0,0.0,0.0,0.0,0.0,0.0,0.0,0.0,0.0,0.0,0.0,0.0,0.0,0.0,0.0,0.0,0.0,0.0,0.0,0.0,0.0,0.0,0.0,0.0,-6.3773,-6.8141,-6.6353,-7.1119,-7.2544,-6.7405,-6.7144,-6.7986,-6.967,-7.0941,-7.3028,-7.6197,-7.7741,-7.913,-8.0393,-8.1064,-8.1452,-8.1452,-8.0436,-7.9767,-7.9338,-7.8036,-7.7209,-7.6866,-7.6612,-7.6538,-7.6479,-7.5069,-7.4518,-7.4372,-7.2689,-7.0744,-6.8596,-6.6476,-6.4851,-6.3564,-6.2485,-6.1593,-6.0847,0.0,0.0,0.0,-3.6344,-3.693,-3.751,-3.7289,-3.8721,-4.1184,-4.5178,-5.2109,-5.9865,-6.8393,-7.6263,-8.226,-8.5521,-8.3367,-7.7789,-6.8327,-6.2363,-5.5476,-4.6948,-4.99,-5.5966,-6.4911,-6.8788,-7.4059,-8.0913,-8.3487,-8.4743,-8.4803,-8.5432,-8.5372,-8.4743,-8.4743,-8.4384,-8.3726,-8.3098,-7.9836,-7.448,-6.6711,-6.0988,-5.6301,0.0,0.0,0.0,0.0,0.0,0.0,0.0,0.0,0.0,0.0,0.0,0.0,0.0,0.0,0.0,0.0,0.0,0.0,0.0,0.0,0.0,0.0,0.0,0.0,0.0,0.0,0.0,0.0,0.0,0.0,0.0,0.0,0.0,-6.0291,-6.6875,-7.1013,-6.9259,-7.4678,-7.655,-7.1528,-7.385,-7.5679,-7.5679,-7.777,-7.9572,-8.06,-8.168,-8.2388,-8.2769,-8.2814,-8.2739,-8.2739,-8.1048,-8.002,-7.9585,-7.7899,-7.6941,-7.6538,-7.6538,-7.6538,-7.6479,-7.5069,-7.4518,-7.4401,-7.3153,-7.2602,-7.2311,-6.9844,-6.8102,-6.6912,-6.6215,-6.4647,-6.2557,0.0,0.0,-3.7032,-3.6448,-3.6892,-3.7289,-3.7095,-3.8365,-4.0857,-4.5114,-5.3891,-6.2853,-7.0678,-7.8757,-8.4983,-8.8274,-8.4863,-8.0243,-7.4798,-6.5577,-5.754,-5.1231,-5.6594,-6.2925,-6.9715,-7.4219,-7.8798,-8.3636,-8.4833,-8.5671,-8.615,-8.6329,-8.606,-8.5432,-8.5432,-8.5043,-8.4444,-8.4265,-8.2798,-8.0075,-7.4104,-6.8062,-6.2224,0.0,0.0,0.0,0.0,0.0,0.0,0.0,0.0,0.0,0.0,0.0,0.0,0.0,0.0,0.0,0.0,0.0,0.0,0.0,0.0,0.0,0.0,0.0,0.0,0.0,0.0,0.0,0.0,0.0,0.0,0.0,-6.127,-6.5407,-6.6162,-7.1326,-7.5319,-7.6296,-7.9182,-8.041,-7.8494,-7.8727,-7.9317,-8.0094,-8.0776,-8.1469,-8.2344,-8.2676,-8.2865,-8.2769,-8.229,-8.205,-8.205,-8.066,-7.9708,-7.9278,-7.8036,-7.7283,-7.6941,-7.6612,-7.6538,-7.6479,-7.5098,-7.4518,-7.4401,-7.3153,-7.222,-7.1557,-7.0552,-6.9989,-6.9408,-6.7376,-6.5636,-6.4138,0.0,-3.7053,-3.6897,-3.657,-3.7006,-3.7394,-3.725,-3.8484,-4.1495,-4.7242,-5.6172,-6.5158,-7.3359,-8.1227,-8.6419,-8.7496,-8.3214,-7.7882,-7.1973,-6.3043,-5.7943,-5.7916,-6.322,-6.8814,-7.4535,-7.8751,-8.226,-8.5132,-8.5791,-8.6299,-8.6689,-8.6689,-8.6479,-8.612,-8.612,-8.5731,-8.5132,-8.5132,-8.4534,-8.3277,-7.9926,-7.4526,-6.8129,-6.5015,-6.1377,-5.7621,-5.5357,-5.5566,-5.6214,-5.1512,0.0,0.0,0.0,0.0,0.0,0.0,0.0,0.0,0.0,0.0,0.0,0.0,0.0,0.0,0.0,0.0,0.0,0.0,0.0,0.0,0.0,0.0,0.0,0.0,-6.6576,-7.1674,-7.372,-7.6095,-7.8488,-8.093,-8.2284,-8.2982,-8.2927,-8.2496,-8.2518,-8.3298,-8.3566,-8.3766,-8.3971,-8.4098,-8.3884,-8.3187,-8.2798,-8.232,-8.1781,-8.0586,-7.9708,-7.9159,-7.7947,-7.7283,-7.709,-7.6687,-7.6538,-7.6479,-7.5172,-7.4547,-7.4401,-7.2863,-7.2,-7.1579,0.0,0.0,0.0,0.0,-6.5635,-6.4839,0.0,-3.7105,-3.6884,-3.6842,-3.7291,-3.7625,-3.7625,-3.8839,-4.2589,-5.0367,-5.8394,-6.6743,-7.5518,-8.2798,-8.6389,-8.4743,-7.9545,-7.2798,-6.4401,-5.8518,-5.8551,-6.566,-6.9765,-7.4238,-7.9357,-8.2559,-8.4743,-8.591,-8.6569,-8.6868,-8.6778,-8.6868,-8.6898,-8.6898,-8.6898,-8.6539,-8.591,-8.591,-8.5551,-8.4893,-8.4295,-8.0168,-7.406,-7.1278,-6.8467,-6.5639,-6.3053,-6.1586,-6.0468,-5.7327,0.0,0.0,0.0,0.0,0.0,0.0,0.0,0.0,0.0,0.0,0.0,0.0,0.0,0.0,0.0,0.0,0.0,0.0,0.0,0.0,0.0,0.0,0.0,0.0,-7.2199,-7.7856,-8.1492,-8.0893,-8.1075,-8.3694,-8.4159,-8.4562,-8.5295,-8.5081,-8.5,-8.5457,-8.5809,-8.5753,-8.512,-8.5376,0.0,0.0,0.0,-8.2948,-8.1781,-8.0691,-7.9857,-7.9159,-7.7903,-7.7164,-7.709,-7.6687,-7.6508,-7.6288,-7.5069,-7.4562,-7.4358,-7.2515,-7.1913,-7.1959,-7.0912,-6.9272,-6.726,-6.5647,-6.5118,-6.506,0.0,-3.6831,-3.6693,-3.7546,-3.7767,-3.7777,-3.7625,-3.8839,-4.2763,-5.1033,-5.8715,-6.6209,-7.3634,-7.9537,-8.3187,-8.3876,-7.6502,-6.9276,-6.3188,-6.343,-6.5819,-7.0215,-7.5803,-8.0347,-8.3487,-8.5791,-8.7048,-8.7317,-8.7975,-8.8035,-8.7526,-8.8035,-8.8304,-8.8304,-8.8304,-8.7915,-8.7317,-8.7317,-8.6928,-8.627,-8.615,-8.3573,-7.953,-7.7958,-7.5958,-7.3764,-7.1689,-7.2335,-7.32,-6.6818,-6.5473,-6.5323,-5.8887,-5.3396,0.0,0.0,0.0,0.0,0.0,0.0,0.0,0.0,0.0,0.0,0.0,0.0,0.0,0.0,0.0,0.0,0.0,0.0,0.0,-7.2176,-7.6979,-8.1268,-8.4218,-8.4883,-8.5038,-8.5119,-8.5126,-8.5214,-8.5376,-8.5295,-8.5487,-8.592,-8.608,-8.5705,-8.4827,-8.4815,-8.4295,-8.2978,-8.2439,-8.205,-8.1781,-8.054,-7.9632,-7.9159,-7.8389,0.0,-7.709,-7.7015,-7.65,-7.565,-7.4866,-7.4446,-7.4137,-7.2948,-7.2058,-7.1355,-7.005,-6.8847,-6.7642,-6.6235,-6.5624,-6.5348,0.0,-3.7186,-3.7063,-3.7907,-3.8081,-3.8043,-3.7901,-3.9151,-4.2415,-4.8685,-5.4856,-6.0797,-6.64,-7.0734,-7.3119,-7.2723,-6.7745,-6.3881,-6.2138,-6.5731,-7.057,-7.6516,-8.0601,-8.3846,-8.615,-8.7496,-8.8185,-8.8185,-8.8514,-8.8514,-8.8215,-8.8514,-8.8693,-8.8693,-8.8693,-8.8514,-8.8185,-8.8185,-8.8185,-8.8155,-8.7826,-8.6609,-8.4701,-8.2907,-8.1403,-7.9961,-7.8328,-7.8116,-7.7814,-7.3395,-7.1697,-7.0709,-6.6249,-6.1273,-5.6285,0.0,0.0,0.0,0.0,0.0,0.0,0.0,0.0,0.0,0.0,0.0,0.0,0.0,0.0,-6.0343,-6.3278,0.0,-7.3316,-7.6554,-8.0704,-8.4027,-8.5833,-8.6615,-8.6831,-8.6313,-8.604,-8.5922,-8.605,-8.589,-8.589,-8.637,-8.637,-8.5883,-8.4773,-8.5013,-8.4444,-8.2874,-8.2769,-8.2439,-8.1781,-8.0794,-8.0062,-7.9483,-7.8609,-7.799,-7.7652,-7.7108,-7.6564,-7.6066,-7.5071,-7.4528,-7.4361,-7.3011,-7.1993,-7.1196,-6.9545,-6.8513,-6.7677,-6.6067,-6.5577,-6.5664,0.0,-3.7842,-3.7732,-3.8227,-3.8315,-3.8315,-3.8315,-3.9574,-4.2067,-4.6209,-5.0822,-5.5155,-5.8949,-6.1861,-6.2493,-5.9856,-6.0084,-6.0911,-6.223,-6.8154,-7.499,-8.2439,-8.4624,-8.6479,-8.8245,-8.8783,-8.8993,-8.8873,-8.8993,-8.9052,-8.9052,-8.9202,-8.9262,-8.9262,-8.9382,-8.9232,-8.8903,-8.9142,-8.9501,-8.9801,-8.9292,-8.9052,-8.8873,-8.6668,-8.5229,-8.4276,-8.3009,-8.0763,-7.8328,-7.7778,-7.5428,-7.27,-7.2319,-6.884,-6.3862,-5.9062,-5.6592,0.0,0.0,0.0,0.0,0.0,0.0,0.0,0.0,-5.5245,-5.7258,-6.0842,-6.3367,-6.6041,-6.9395,-7.4004,-7.8036,-8.0429,-8.3792,-8.6299,-8.6958,-8.7646,-8.7874,-8.7371,-8.6957,-8.6712,-8.6669,-8.637,-8.637,-8.6689,-8.6689,-8.615,-8.4983,-8.5282,-8.4714,-8.3008,-8.3337,-8.3038,-8.1991,-8.1183,-8.0524,-7.9986,-7.8887,-7.8282,-7.8179,-7.7193,-7.6693,-7.6444,-7.5188,-7.4539,-7.4233,-7.2972,-7.2038,-7.1228,-6.9273,-6.8309,-6.7841,-6.5762,-6.545,-6.604,0.0,-3.8818,-3.8635,-3.873,-3.8723,-3.8723,-3.8723,-3.9879,-4.2237,-4.6426,-5.0483,-5.3963,-5.6376,-5.831,-5.7511,-5.2788,-6.1136,-6.6147,-6.4953,-7.3504,-8.0929,-8.591,-8.8035,-8.9501,-9.0279,-9.0369,-9.013,-8.9561,-9.013,-9.0429,-9.0429,-9.1027,-9.1297,-9.1327,-9.1895,-9.1177,-8.9621,-9.0788,-9.0997,-9.0519,-9.0459,-9.0429,-9.0249,-8.8792,-8.7117,-8.5413,-8.4666,-8.0572,-7.6059,-7.9301,-7.674,-7.2735,-7.6016,-7.3678,-6.9189,-6.6272,-6.0931,-5.5207,-5.1542,-4.9586,-4.9228,-5.2025,-5.3574,-5.5829,0.0,-6.3607,-6.5682,-6.832,-7.1792,-7.4877,-7.6475,-7.916,-8.2036,-8.4581,-8.6359,-8.7706,-8.8364,-8.9023,-8.9232,-8.8552,-8.7984,-8.7357,-8.6748,-8.6689,-8.6689,-8.6689,-8.6689,-8.6359,-8.5611,-8.5103,-8.4444,-8.3636,-8.3128,-8.2798,-8.2649,-8.1422,-8.0764,-8.0674,-7.9314,-7.8572,-7.8179,-7.7453,-7.6644,-7.5736,-7.4791,-7.3833,-7.3034,-7.2917,-7.2268,-7.1228,-6.9273,-6.8657,-6.8575,-6.5955,-6.5601,-6.6204,0.0,0.0,-3.9156,-3.9156,-3.8943,-3.8797,-3.8797,-4.003,-4.1596,-4.3307,-4.5752,-4.7551,-4.8131,-4.8239,-4.7627,-4.6018,-5.4886,-6.1905,-6.4951,-7.4704,-8.2948,-8.8723,-9.016,-9.1297,-9.2314,-9.1985,-9.1656,-9.1386,-9.1656,-9.1776,-9.1776,-9.2075,-9.2194,-9.2194,-9.2075,-9.1776,-9.1386,-9.1536,-9.1895,-9.2314,-9.1925,-9.1327,-9.0459,-8.8753,-8.615,-8.3128,-8.0616,-7.7466,0.0,-7.4595,-7.3011,-7.1696,-7.5508,-7.3186,-6.8788,-6.7108,-6.2761,-5.7951,-5.5812,-5.4624,-5.4586,-5.7191,-5.88,-6.11,-6.6072,-6.8473,-7.0419,-7.3343,-7.6514,-7.9267,-8.0943,-8.3427,-8.5701,-8.7197,-8.8215,-8.8813,-8.8693,-8.8933,-8.8125,-8.5551,-8.6,-8.6569,-8.6659,-8.6689,-8.6689,-8.6689,-8.6689,-8.621,-8.5162,-8.5222,-8.4624,-8.3217,-8.3277,-8.2978,-8.22,-8.1272,-8.0614,-8.0225,-7.9238,-7.8507,-7.7903,-7.7247,-7.6312,-7.523,-7.4832,-7.4445,-7.398,-7.3208,-7.2611,-7.2,-6.9709,-6.8877,-6.8701,-6.5991,-6.549,-6.6037,0.0,0.0,0.0,-3.9373,-3.9156,-3.898,-3.898,-4.007,-4.0888,-4.0888,-4.2136,-4.2781,-4.2124,-4.1525,-4.1312,-4.1849,-4.9321,-5.7019,-6.4154,-7.3572,-8.226,-8.9771,-9.1087,-9.2224,-9.3541,-9.3122,-9.2883,-9.2883,-9.2883,-9.2972,-9.3152,-9.3152,-9.3062,-9.2853,-9.2583,-9.2494,-9.2583,-9.2494,-9.2883,-9.3511,-9.2853,-9.1805,-9.0309,-8.7437,-8.3666,-7.9391,-7.6367,-7.3339,-7.0518,-6.8595,-6.7171,-6.6967,-7.0986,-6.9842,-6.682,-6.5889,-6.2692,-5.9297,-5.877,-5.8704,-5.9477,-6.2271,-6.4126,-6.634,-7.0649,-7.2894,-7.4869,-7.7622,-8.0315,-8.2649,-8.4235,-8.627,-8.7915,-8.8574,-8.9232,-8.9441,-8.8783,-8.8215,-8.6599,-8.3158,-8.3367,-8.4055,-8.4714,-8.5432,-8.603,-8.6389,-8.624,-8.5791,-8.5013,-8.5103,-8.4504,-8.3068,-8.3307,-8.2918,-8.1781,-8.1123,-8.0464,-7.9806,-7.9118,-7.846,-7.7771,-7.6963,-7.5946,-7.4869,-7.4689,-7.451,-7.424,-7.3103,-7.2535,-7.2146,-6.9871,-6.9004,-6.8671,-6.5969,-6.5408,-6.5831,0.0,0.0,0.0,0.0,-3.9373,-3.9373,-3.9373,-3.9941,-4.0427,-4.0427,-4.1564,-4.2094,-4.1237,-4.1644,-4.1883,-4.1705,-4.68,-5.3932,-6.3118,-7.0251,-7.8489,-8.8304,-9.0579,-9.2224,-9.3541,-9.3571,-9.3541,-9.3541,-9.3541,-9.39,-9.4558,-9.4558,-9.4199,-9.3571,-9.4229,-9.381,-9.2673,-9.396,-9.4169,-9.3511,-9.2853,-9.1805,-9.007,-8.4893,-7.9584,-7.4674,-7.3625,-6.8525,-6.2262,-6.2233,-5.9646,-5.7177,-6.1666,-6.3767,-6.4328,-6.3436,-6.0521,-5.7948,-5.9572,-6.0246,-6.1589,-6.6582,-6.9213,-7.1547,-7.4958,-7.7711,-7.9986,-8.1332,-8.3726,-8.5761,-8.6449,-8.7197,-8.7915,-8.8574,-8.9232,-8.9441,-8.8783,-8.7018,-8.5043,-8.3008,-8.0524,-7.9267,-7.9956,-8.232,-8.4354,-8.5641,-8.5132,-8.5043,-8.5641,-8.4474,-8.3756,-8.3696,-8.3098,-8.2469,-8.1781,-8.1123,-8.0464,-7.9806,-7.9118,-7.846,-7.7771,-7.6514,-7.5557,-7.4839,-7.421,-7.3552,-7.2924,-7.2206,-7.1547,-7.0829,-6.9512,-6.9004,-6.8675,-6.5981,-6.5383,-6.5832,0.0,0.0,0.0,0.0,0.0,-3.9739,-4.0197,-4.0321,-4.0838,-4.1972,-4.2523,0.0,0.0,0.0,0.0,0.0,-4.6758,-5.1733,-5.7049,-6.7745,-7.6155,-8.1242,-8.8005,-9.2224,-9.3541,-9.3571,-9.4229,-9.5576,-9.5127,-9.5247,-9.5905,-9.5905,-9.5785,-9.5546,-9.5366,-9.5247,-9.5247,-9.5247,-9.4349,-9.2823,-9.1746,-8.7536,-8.1526,-7.8005,-7.1874,-6.4662,0.0,-5.7786,-5.5459,-5.4282,-5.3237,-5.3179,-5.81,-5.871,-5.7341,-5.5912,-5.7978,-6.0686,-6.0201,-6.3346,-6.7601,-7.1074,-7.3702,-7.6245,-7.9148,-8.1153,-8.2409,-8.2439,-8.1721,-8.1137,-8.1149,-7.9857,-8.0158,-8.4362,-8.5624,-8.6806,-8.9074,-8.8753,-8.6299,-8.0794,-8.0883,-8.0135,-7.6874,-7.9327,-8.205,-8.4235,-8.4594,-8.4624,-8.4414,-8.4384,-8.3995,-8.3128,-8.2888,-8.223,-8.1153,-8.0913,-8.0255,-7.9118,-7.8011,-7.7173,-7.6514,-7.5617,-7.5078,-7.4839,-7.418,-7.3762,-7.3492,-7.2355,-7.1757,-7.1427,-7.0111,-6.9363,-6.8794,-6.6999,-6.5922,-6.5173,0.0,0.0,0.0,0.0,0.0,0.0,0.0,0.0,0.0,0.0,0.0,0.0,0.0,0.0,0.0,0.0,0.0,-4.8219,-5.3038,-6.1579,-6.8588,-7.311,-7.9699,-8.3786,-8.5132,-8.5132,-8.6,-8.7736,-8.8993,-9.004,-9.0968,-9.3122,-9.399,-9.375,-9.3571,-9.3721,-9.405,-9.3152,-9.0974,-8.8053,-8.6261,-8.0706,-7.3108,-6.9684,-6.3831,0.0,-5.2136,-4.9852,-4.8856,-4.7843,-4.8072,-4.9347,-5.2892,-5.3664,-5.3338,-5.3634,-5.7773,-6.2483,-6.3644,-6.7989,-7.2937,-7.5946,-7.816,-8.0075,-8.202,-8.2948,-8.2858,-8.0884,-7.8943,-7.7192,-7.5746,-7.4354,-7.521,-8.0428,-8.2094,-8.4168,-8.8086,-8.7377,-8.4773,-8.0075,-7.9986,-7.8968,-7.5587,-7.7173,-7.9716,-8.2798,-8.3217,-8.3427,-8.3726,-8.3906,-8.3636,-8.2874,-8.2844,-8.214,-8.0823,-8.0794,-8.0016,-7.843,-7.7113,-7.6305,-7.5886,-7.5198,-7.4749,-7.448,-7.3821,-7.3402,-7.3103,-7.1996,-7.1517,-7.1427,-7.035,-6.9542,-6.8824,-6.7238,-6.5951,-6.4874,0.0,0.0,0.0,0.0,0.0,0.0,0.0,0.0,0.0,0.0,0.0,0.0,0.0,0.0,0.0,0.0,0.0,0.0,-5.0865,-5.2515,-5.6629,-6.4328,-6.6702,-6.8498,-6.9812,-6.9812,-7.047,-7.1816,-7.6255,-7.907,-8.0405,-8.6139,-8.8445,-8.7796,-8.8424,-8.8723,-8.8634,-8.7377,-8.405,-7.9469,-7.6908,-7.18,-6.5103,-6.0406,-5.5736,-5.1209,-4.7882,-4.4964,-4.2797,-4.3212,-4.4531,-4.6034,-4.6771,-4.9252,-5.2687,-5.6675,-5.9969,-6.3645,-6.952,-7.3844,-7.7495,-8.1017,-8.235,-8.2948,-8.3517,-8.3038,-8.1258,-7.7057,-7.5408,-7.384,-7.0617,-7.0789,-7.2781,-7.6933,-7.9076,-8.1733,-8.6229,-8.3606,-8.1183,-8.0973,-7.825,-7.6335,-7.6125,-7.6125,-7.7711,-8.1512,-8.1183,-8.1661,-8.3576,-8.3128,-8.2798,-8.2844,-8.2814,-8.211,-8.0823,-8.0704,-7.9686,-7.7741,-7.6485,-7.5886,-7.5826,-7.5168,-7.454,-7.3911,-7.3223,-7.2535,-7.1876,-7.1188,-7.0889,-7.0829,-7.0231,-6.9572,-6.8764,-6.6759,-6.5592,-6.4934,0.0,0.0,0.0,0.0,0.0,0.0,0.0,0.0,0.0,0.0,0.0,0.0,0.0,0.0,0.0,0.0,0.0,0.0,-4.4669,-5.032,-5.4352,-5.5922,-6.2513,-6.6794,-6.7964,-6.8599,-6.9742,-7.1388,-7.2239,-7.3088,-7.3991,-7.533,-7.5863,-7.5644,-7.5686,-7.5677,-7.5677,-7.5318,-7.3305,-7.0286,-6.8452,-6.3239,-5.6255,-5.3378,-4.8894,-4.3991,-4.275,-4.2582,-4.3124,-4.4139,-4.706,-5.0449,-5.1846,-5.4089,-5.706,-6.1343,-6.5258,-6.9113,-7.344,-7.7842,-8.1437,-8.2858,-8.3367,-8.3277,-8.2469,-8.0225,-7.7282,-7.3542,-6.8742,-6.4874,-6.371,-6.3318,-6.5832,-7.3881,-7.7585,-8.1733,-8.8056,-8.8035,-8.6299,-8.3337,-8.3098,-8.205,-7.9118,-7.9267,-8.0165,-8.1661,-8.1183,-8.1452,-8.2918,-8.3307,-8.3247,-8.2769,-8.229,-8.1631,-8.0823,-7.9327,-7.8071,-7.7083,-7.6275,-7.5647,-7.5138,-7.4958,-7.4779,-7.4569,-7.3402,-7.2804,-7.2565,-7.1398,-7.0889,-7.0829,-7.0231,-6.9572,-6.8764,-6.6759,-6.5592,-6.4874,0.0,0.0,0.0,0.0,0.0,0.0,0.0,0.0,0.0,0.0,0.0,0.0,0.0,0.0,0.0,0.0,0.0,0.0,0.0,-4.6326,-4.862,-4.8614,-5.3455,-5.6547,-5.7471,-5.7695,-5.8519,-5.9964,-6.1489,-6.2664,-6.3544,-6.5772,-6.6792,-6.6792,-6.697,-6.6967,-6.6876,-6.6279,-6.3921,0.0,0.0,-5.3861,-4.7607,-4.6011,-4.3373,-4.0497,-4.0249,-4.241,-4.5829,-4.8612,-5.1552,-5.4547,-5.755,-6.012,-6.2932,-6.7665,-7.1302,-7.4639,-7.8681,-8.208,-8.4624,-8.5312,-8.4594,-8.3008,-8.0372,-7.7263,-7.32,-6.7106,-6.2586,-5.9003,-5.6816,-5.819,-6.2121,-6.9823,-7.494,-8.0441,-8.7427,-8.7856,-8.6988,-8.5641,-8.5611,-8.4594,-8.1811,-8.1871,-8.211,-8.22,-8.1332,-8.1392,-8.2754,-8.3098,-8.3128,-8.2769,-8.2409,-8.1751,-8.0823,-7.8519,-7.7203,-7.6814,-7.5886,-7.5258,-7.4869,-7.4869,-7.4719,-7.439,-7.3343,-7.2744,-7.2385,-7.1338,-7.0889,-7.0829,-7.0231,-6.9572,-6.8764,-6.6759,-6.5592,-6.4844,0.0,0.0,0.0,0.0,0.0,0.0,0.0,0.0,0.0,0.0,-4.3772,0.0,0.0,0.0,0.0,0.0,0.0,0.0,0.0,0.0,-4.2328,-4.3094,-4.3518,-4.4035,-4.4765,-4.4217,-4.4443,-4.5414,-4.8917,-5.1014,-5.2,-5.6569,-5.8644,-5.8584,-5.9099,-5.9284,-5.9031,-5.7845,-5.4789,-5.0688,-4.8887,-4.5128,-4.0591,0.0,-3.9367,-3.9396,-3.9693,-4.327,-4.8688,-5.4406,-5.7043,-5.8803,-6.3559,-6.6702,-6.9619,-7.4578,-7.7464,-7.9977,-8.4252,-8.621,-8.7137,-8.7496,-8.5581,-8.232,-7.7624,-7.3911,-6.8832,-5.9912,-5.6981,-5.4861,-5.116,-5.4797,-6.0347,-6.6369,-7.2193,-7.8536,-8.5959,-8.5791,-8.5701,-8.7736,-8.6928,-8.5731,-8.4504,-8.4325,-8.3995,-8.3337,-8.1991,-8.1661,-8.2784,-8.2844,-8.2709,-8.2649,-8.2529,-8.1901,-8.0674,-7.813,-7.6814,-7.6814,-7.5497,-7.4869,-7.4869,-7.4869,-7.4569,-7.3971,-7.3223,-7.2565,-7.1966,-7.1218,-7.0889,-7.0829,-7.0141,-6.9512,-6.8764,-6.664,-6.5533,-6.4844,0.0,0.0,0.0,0.0,0.0,0.0,0.0,0.0,0.0,0.0,-4.4096,-4.3499,0.0,0.0,0.0,0.0,0.0,0.0,0.0,0.0,0.0,-4.2288,-4.2119,-4.2512,-4.3556,-4.3652,-4.3952,-4.4517,-4.5375,-4.5528,-4.5017,-4.5799,-4.5787,-4.5081,-4.4997,-4.4975,-4.4904,-4.4489,-4.3872,-4.2979,-4.2302,-4.1306,-4.0126,-3.9136,0.0,0.0,-4.0687,-4.3069,-4.6887,-5.7172,-6.2167,-6.4844,-6.915,-7.2624,-7.6135,-8.0794,-8.2828,-8.4372,-8.7826,-8.8963,-8.8783,-8.7227,-8.4863,-8.1302,-7.4842,-6.9295,-6.3444,-5.6391,-5.2721,-5.0766,-5.0548,-5.3491,-5.891,-6.7954,-7.2182,-7.7603,-8.7018,-8.7167,-8.7077,-8.9082,-8.9112,-8.8663,-8.7915,-8.7347,-8.6718,-8.603,-8.4265,-8.3098,-8.2769,-8.2844,-8.2529,-8.1961,-8.1422,-8.0764,-7.9986,-7.7891,-7.6814,-7.6814,-7.5497,-7.4869,-7.4869,-7.4869,-7.4809,-7.4629,-7.3432,-7.2834,-7.2624,-7.1398,-7.0889,-7.0769,-6.9632,-6.9093,-6.8704,-6.6131,-6.5114,-6.4844,0.0,0.0,0.0,0.0,0.0,0.0,0.0,-4.3172,-4.3787,-4.3787,-4.4028,-4.3853,-4.2922,-4.2062,-4.1678,0.0,0.0,0.0,0.0,0.0,0.0,0.0,-4.2067,-4.2381,-4.2916,-4.3179,-4.3333,-4.3376,0.0,-4.2926,-4.2187,-4.1742,-4.1261,-4.0807,-4.0624,-4.0477,-4.0367,-4.0144,-3.9958,-3.9732,-3.9627,-3.9361,-3.8909,0.0,0.0,0.0,-3.9881,-4.2495,-4.6431,-5.4404,-5.9951,-6.4904,-7.3343,-7.7801,-8.0075,-8.1061,-8.3893,-8.6748,-8.6866,-8.8736,-9.019,-8.8215,-8.4444,-7.9238,-7.1446,-6.4994,-5.8723,-5.2093,-4.9321,-4.8143,-4.8391,-5.226,-5.7345,-6.3292,-6.7687,-7.3522,-8.2769,-8.3816,-8.4983,-8.8723,-8.9471,-8.9262,-8.8274,-8.7556,-8.6748,-8.5731,-8.4444,-8.3606,-8.3277,-8.2948,-8.2469,-8.1811,-8.1153,-8.0494,-7.9836,-7.7831,-7.6814,-7.6814,-7.5497,-7.4869,-7.4869,-7.4869,-7.4869,-7.4809,-7.3492,-7.2924,-7.2804,-7.1457,-7.0889,-7.0799,-6.9871,-6.9303,-6.8764,-6.6789,-6.5832,-6.5353,0.0,0.0,0.0,0.0,0.0,0.0,-4.1648,-4.2656,-4.3372,-4.3706,-4.4199,-4.4293,-4.3682,-4.1917,-4.1221,0.0,0.0,0.0,0.0,0.0,0.0,0.0,0.0,0.0,0.0,0.0,0.0,-4.2685,-4.2443,0.0,0.0,0.0,0.0,0.0,-3.9839,-3.9661,-3.9445,-3.9265,-3.8973,0.0,0.0,-3.8464,0.0,0.0,0.0,0.0,0.0,-4.1591,-4.5518,-5.0864,-5.5825,-6.1808,-7.2781,-7.8052,-8.0115,-7.9719,-8.3325,-8.7327,-8.6434,-8.8945,-9.1297,-8.9023,-8.3906,-7.7072,-6.8399,-6.1454,-5.502,-4.8643,-4.6913,-4.6602,-4.6845,-5.0892,-5.5293,-5.865,-6.2924,-6.8947,-7.7992,-7.9939,-8.2395,-8.7616,-8.8963,-8.9052,-8.8005,-8.7287,-8.6419,-8.5222,-8.4265,-8.3666,-8.3517,-8.3038,-8.2469,-8.1811,-8.1153,-8.0494,-7.9836,-7.7831,-7.6814,-7.6814,-7.5497,-7.4869,-7.4869,-7.4869,-7.4869,-7.4809,-7.3492,-7.2924,-7.2804,-7.1457,-7.0889,-7.0829,-7.0231,-6.9572,-6.8824,-6.7478,-6.658,-6.5832,0.0,0.0,0.0,0.0,0.0,0.0,-4.2207,-4.3012,-4.4015,-4.5709,-4.5107,-4.4862,-4.5797,-4.3402,-4.174,0.0,0.0,0.0,0.0,0.0,0.0,0.0,0.0,0.0,0.0,0.0,0.0,-4.3322,-4.3087,0.0,0.0,0.0,0.0,0.0,0.0,-3.9839,-3.9661,-3.9445,0.0,0.0,0.0,0.0,0.0,0.0,0.0,0.0,0.0,-4.0255,-4.266,-4.9427,-5.302,-5.5752,-6.2483,-6.7936,-7.3043,-7.916,-8.217,-8.4963,-9.1051,-9.2583,-9.1746,-8.8574,-8.2858,-7.5598,-6.6592,-5.9648,-5.3396,-4.7532,-4.5991,-4.6152,-4.7496,-4.9202,-5.2364,-5.8467,-6.0891,-6.5649,-7.5962,-7.8517,-8.1239,-8.6319,-8.8005,-8.8723,-8.8604,-8.8005,-8.7287,-8.6539,-8.4773,-8.3487,-8.2888,-8.2798,-8.2469,-8.1811,-8.1153,-8.0494,-7.9836,-7.7831,-7.6814,-7.6814,-7.5497,-7.4869,-7.4869,-7.4869,-7.4869,-7.4809,-7.3492,-7.2924,-7.2804,-7.1457,-7.0889,-7.0829,-7.0231,-6.9572,-6.8824,-6.7478,-6.658,-6.5922,0.0,0.0,0.0,0.0,0.0,0.0,-4.1709,-4.2209,-4.2976,-4.4551,-4.4518,-4.4466,-4.4812,-4.3428,-4.2457,-4.2457,0.0,0.0,0.0,0.0,0.0,0.0,0.0,0.0,0.0,0.0,-4.192,-4.2031,-4.2239,0.0,0.0,0.0,0.0,0.0,0.0,-3.9975,-3.9839,-3.9517,0.0,0.0,0.0,0.0,0.0,0.0,0.0,0.0,0.0,0.0,-4.0822,-4.3708,-4.5977,-4.8043,-5.0589,-5.4002,-5.8607,-6.6611,-7.5482,-8.2859,-8.3296,-8.8186,-9.2404,-8.9112,-8.2439,-7.4561,-6.6389,-5.8194,-5.1165,-4.7256,-4.558,-4.5344,-4.6992,-4.806,-5.0027,-5.4067,-5.5521,-5.9017,-6.7215,-7.0133,-7.3978,-8.0598,-8.3217,-8.5312,-8.7287,-8.6868,-8.606,-8.4983,-8.3816,-8.2858,-8.22,-8.217,-8.1871,-8.1212,-8.0554,-7.9896,-7.9208,-7.7622,-7.6814,-7.6814,-7.5497,-7.4869,-7.4869,-7.4869,-7.4869,-7.4839,-7.3911,-7.3283,-7.2834,-7.1876,-7.1248,-7.0889,-7.062,-7.0141,-6.9482,-6.8555,-6.7777,-6.7029,0.0,0.0,0.0,0.0,0.0,-3.9711,-4.1127,-4.1595,-4.2328,-4.3834,-4.3967,-4.4039,-4.4446,-4.3433,-4.2781,-4.2895,-4.169,0.0,0.0,0.0,0.0,0.0,0.0,0.0,0.0,0.0,-4.1554,-4.1254,-4.1775,-4.1677,0.0,0.0,-4.0931,-4.0505,0.0,0.0,0.0,0.0,0.0,0.0,0.0,0.0,0.0,0.0,0.0,0.0,0.0,0.0,0.0,0.0,0.0,-4.2491,-4.2896,-4.4951,-4.887,-5.7649,-6.8031,-7.6886,-7.7932,-8.4079,-8.9853,-8.8424,-8.1362,-7.2947,-6.6215,-5.7298,-4.9685,-4.7214,-4.5695,-4.5282,-4.6723,-4.7791,-4.9134,-5.1393,-5.291,-5.6039,-6.2274,-6.5158,-6.9269,-7.6348,-7.8889,-8.1449,-8.5173,-8.5648,-8.5222,-8.4115,-8.3427,-8.2769,-8.211,-8.1691,-8.1183,-8.0524,-8.0075,-7.9387,-7.8519,-7.7382,-7.6724,-7.6544,-7.5407,-7.4869,-7.4869,-7.4869,-7.4869,-7.4839,-7.418,-7.3522,-7.2864,-7.2176,-7.1487,-7.0889,-7.0889,-7.053,-6.9901,-6.9243,-6.8555,-6.7807,0.0,0.0,0.0,0.0,0.0,0.0,-4.08,-4.1484,-4.2478,-4.4332,-4.38,-4.3884,-4.5687,-4.3805,-4.2532,-4.2864,-4.1445,0.0,0.0,0.0,0.0,0.0,0.0,0.0,0.0,0.0,-4.139,-4.1588,-4.2113,-4.2147,-4.1588,-4.1531,-4.112,-4.0505,0.0,0.0,0.0,0.0,0.0,0.0,0.0,0.0,-3.8202,0.0,0.0,0.0,0.0,0.0,0.0,0.0,0.0,0.0,0.0,-4.3111,-4.6884,-5.5906,-6.0646,-6.5759,-7.8343,-8.2011,-8.3056,-8.5959,-7.9238,-7.0645,-6.5798,-5.7047,-4.9324,-4.7317,-4.6397,-4.6245,-4.7146,-4.8533,-5.0125,-5.1729,-5.4663,-5.8639,-6.3947,-6.6181,-6.9365,-7.5031,-7.5825,-7.7668,-8.2292,-8.4529,-8.5432,-8.4743,-8.4085,-8.3427,-8.2769,-8.1512,-8.0494,-7.9866,-7.9806,-7.9178,-7.7831,-7.7173,-7.6514,-7.5916,-7.5198,-7.4869,-7.4869,-7.4869,-7.4869,-7.4839,-7.418,-7.3522,-7.2864,-7.2176,-7.1487,-7.0889,-7.0889,-7.053,-6.9901,-6.9243,-6.8555,-6.7867,0.0,0.0,0.0,0.0,0.0,0.0,-4.048,-4.0812,-4.1282,-4.2355,-4.2248,-4.2248,-4.2652,-4.2186,-4.1674,-4.1287,-4.1028,0.0,0.0,0.0,0.0,0.0,0.0,0.0,0.0,-4.1794,-4.2181,-4.2145,-4.2802,-4.2883,-4.2455,-4.1789,-4.1361,-4.1005,-4.0193,-3.9768,0.0,0.0,0.0,0.0,0.0,-3.824,-3.8202,0.0,0.0,0.0,0.0,0.0,0.0,0.0,0.0,0.0,0.0,0.0,0.0,-4.8593,-5.5312,-6.234,-6.726,-7.1828,-7.5268,-7.5254,-7.0446,-6.4654,-6.0916,-5.455,-4.9044,-4.7477,-4.6556,-4.6288,-4.7146,-4.8173,-4.9656,-5.1941,-5.4436,-5.7122,-5.9846,-6.393,-6.8391,-7.3172,-7.9384,-8.3792,-8.5263,-8.5618,-8.5432,-8.4773,-8.4115,-8.3068,-8.1512,-8.1033,-8.0704,-8.0494,-7.9597,-7.8908,-7.8489,-7.7382,-7.6724,-7.6514,-7.5407,-7.4869,-7.4869,-7.4869,-7.4869,-7.4869,-7.4659,-7.418,-7.3522,-7.2864,-7.2176,-7.1517,-7.1068,-7.0769,-7.047,-6.9393,-6.8854,-6.8525,0.0,0.0,0.0,0.0,0.0,0.0,0.0,-4.0436,-4.0681,-4.1427,-4.134,-4.13,-4.1684,-4.1494,-4.1194,-4.094,-4.0969,0.0,0.0,0.0,0.0,0.0,0.0,0.0,-4.0984,-4.198,-4.2585,-4.2629,-4.3604,-4.3769,-4.3226,-4.2786,-4.2236,-4.1637,-4.054,-4.0094,0.0,0.0,0.0,0.0,-3.8389,-3.824,-3.8277,0.0,0.0,0.0,0.0,0.0,0.0,0.0,0.0,0.0,0.0,0.0,0.0,0.0,-4.9951,-5.5818,-6.0045,-6.4401,-6.7934,-6.8577,-6.4971,-6.0614,-5.7958,-5.2954,-4.8596,-4.7519,-4.6907,-4.6817,-4.7635,-4.8602,-4.9907,-5.2031,-5.4792,-5.7306,-5.9398,-6.3034,-6.7266,-7.2202,-8.0151,-8.528,-8.5551,-8.5888,-8.5701,-8.4773,-8.4325,-8.3247,-8.1272,-8.0943,-8.0674,-8.0434,-7.9357,-7.8669,-7.843,-7.7352,-7.6724,-7.6485,-7.5377,-7.4869,-7.4869,-7.4869,-7.4869,-7.4869,-7.4599,-7.427,0.0,-7.2894,-7.2265,-7.1816,-7.1158,-7.0889,-7.0739,-6.9482,-6.9004,-6.8824,0.0,0.0,0.0,0.0,0.0,0.0,0.0,-4.0296,-4.0611,-4.1397,-4.094,-4.0997,-4.2325,-4.1449,-4.0959,-4.1463,-4.1082,0.0,0.0,0.0,0.0,0.0,0.0,0.0,-4.0845,-4.1903,-4.2726,-4.327,-4.4611,-4.4843,-4.3969,-4.4181,-4.3563,-4.2249,-4.1182,-4.0697,-4.057,-3.9357,-3.8943,-3.9053,-3.8464,-3.8352,0.0,0.0,0.0,0.0,0.0,0.0,0.0,0.0,0.0,0.0,0.0,0.0,0.0,0.0,0.0,0.0,0.0,-5.9104,-6.0874,-6.4657,-6.1819,-5.7819,-5.6375,-5.2004,0.0,-4.7472,-4.7452,-4.7792,-4.8558,-4.9617,-5.0883,-5.2366,-5.5704,-5.905,-6.1757,-6.3775,-6.7018,-7.2521,-7.9016,-8.3156,-8.364,-8.5491,-8.609,-8.4803,-8.4624,-8.3726,-8.1811,-8.1093,-8.0434,-7.9776,-7.9118,-7.8489,-7.7891,-7.7173,-7.6544,-7.5976,-7.5228,-7.4869,-7.4869,-7.4869,-7.4869,-7.4839,-7.424,-7.3941,-7.3791,-7.2505,-7.1936,-7.1816,-7.1158,-7.0889,-7.0739,-6.9482,-6.9004,-6.8824,0.0,0.0,0.0,0.0,0.0,0.0,0.0,0.0,0.0,0.0,-4.0597,-4.0628,-4.0935,-4.0759,-4.0636,0.0,0.0,0.0,0.0,0.0,0.0,0.0,0.0,0.0,-4.1558,-4.2517,-4.3555,-4.4736,-4.5547,-4.5777,-4.5401,-4.4642,-4.3563,-4.2249,-4.1322,-4.0565,-3.9907,-3.9258,-3.9053,-3.9053,-3.8797,-3.8612,0.0,0.0,0.0,0.0,-3.9017,-3.9689,0.0,0.0,0.0,0.0,0.0,0.0,0.0,0.0,-4.5064,-4.622,-4.9181,0.0,-5.2393,-5.4058,-5.3276,-5.1959,0.0,-4.9713,-4.7963,-4.7568,-4.7581,-4.7985,-4.9205,-5.0493,-5.2021,-5.4158,-5.6995,-5.987,-6.2294,-6.9245,-7.4742,-7.6702,-8.2206,-8.5216,-8.3836,-8.5061,-8.5581,-8.4773,-8.3786,-8.2589,-8.1093,-8.0405,-7.9746,-7.9058,-7.8878,-7.8699,-7.8549,-7.7412,-7.6754,-7.6604,-7.5437,-7.4869,-7.4869,-7.4869,-7.4869,-7.4869,-7.4719,-7.436,-7.3821,-7.3013,-7.2355,-7.1816,-7.1158,-7.0889,-7.0739,-6.9482,-6.9004,-6.8824,0.0,0.0,0.0,0.0,0.0,0.0,0.0,0.0,0.0,0.0,-4.0505,-4.0505,-4.0505,-4.0505,0.0,0.0,0.0,0.0,0.0,0.0,0.0,0.0,0.0,-4.1291,-4.1911,-4.3078,-4.433,-4.5665,-4.6358,-4.6672,-4.6638,-4.5795,-4.4788,-4.3745,-4.2273,-4.0891,-3.9696,-3.9373,-3.9228,-3.9228,-3.8907,0.0,0.0,0.0,0.0,0.0,-3.9702,-4.0534,0.0,-4.1986,-4.2467,-4.2963,0.0,0.0,0.0,0.0,-4.5064,-4.5819,-4.6811,-4.7933,-4.9072,-5.0143,-4.9854,-4.9418,-4.9643,-4.8833,-4.7964,-4.7794,-4.8024,-4.8715,-5.0313,-5.1751,-5.3386,-5.5578,-5.8107,-6.1155,-6.4779,-7.1651,-7.7013,-7.9129,-8.283,-8.5402,-8.5551,-8.5641,-8.5432,-8.4773,-8.3786,-8.2499,-8.0883,-8.0464,-7.9806,-7.8819,-7.8789,-7.8639,-7.834,-7.7322,-7.6694,-7.6395,-7.5377,-7.4869,-7.4869,-7.4869,-7.4869,-7.4839,-7.424,-7.3941,-7.3791,-7.2505,-7.1936,-7.1816,-7.1158,-7.0889,-7.0739,-6.9482,-6.9004,-6.8824,0.0,0.0,0.0,0.0,0.0,0.0,0.0,0.0,0.0,0.0,0.0,0.0,0.0,0.0,0.0,0.0,0.0,0.0,0.0,0.0,0.0,0.0,-4.137,-4.1913,-4.2326,-4.3546,-4.4849,-4.6198,-4.6835,-4.73,-4.7548,-4.7004,-4.6296,-4.5341,-4.3125,-4.1304,-3.9883,-3.9547,-3.9409,-3.9373,-3.9017,0.0,0.0,0.0,0.0,0.0,0.0,0.0,0.0,-4.3211,-4.3963,-4.461,-4.461,0.0,0.0,0.0,0.0,0.0,-4.6663,-4.7588,-4.86,-4.9792,-4.9563,-4.9066,-4.9566,-4.9005,-4.8396,-4.8396,-4.8809,-4.9718,-5.1427,-5.2991,-5.47,-5.6809,-5.9648,-6.3369,-6.8307,-7.304,-7.7098,-8.0133,-8.2635,-8.4923,-8.6778,-8.609,-8.5282,-8.4624,-8.3786,-8.2559,-8.0883,-8.0614,-7.9926,-7.8669,-7.8639,-7.828,-7.7532,-7.7053,-7.6514,-7.5886,-7.5198,-7.4869,-7.4869,-7.4869,-7.4809,-7.4659,-7.3552,-7.3253,-7.3462,-7.1757,-7.1338,-7.1667,-7.1128,-7.0829,-7.062,-6.9453,-6.8944,-6.8675,0.0,0.0,0.0,0.0,0.0,0.0,0.0,0.0,0.0,0.0,0.0,0.0,0.0,0.0,0.0,0.0,0.0,0.0,0.0,0.0,0.0,-4.1463,-4.2078,-4.273,-4.3358,-4.3753,-4.4692,-4.6291,-4.6739,-4.7102,-4.7375,-4.7415,-4.648,-4.4633,-4.242,-4.1224,-4.0728,-3.9973,-3.9553,-3.9373,-3.9337,0.0,0.0,0.0,0.0,0.0,0.0,0.0,0.0,-4.2725,-4.3556,-4.461,-4.461,0.0,0.0,0.0,0.0,0.0,-4.6539,-4.7536,-4.8624,-5.0174,-5.0611,-5.0731,-5.1246,-5.0805,-5.0285,-5.0285,-5.0205,-5.0476,-5.1728,-5.365,-5.5717,-5.7745,-6.3086,-6.8307,-7.2113,-7.6507,-7.942,-7.9411,-8.3492,-8.5521,-8.3696,-8.4325,-8.4594,-8.3936,-8.226,-8.1123,-8.0823,-7.9716,-7.8759,-7.7981,-7.7951,-7.7382,-7.6215,-7.6604,-7.6514,-7.5886,-7.5198,-7.4869,-7.4869,-7.4869,-7.4569,-7.4031,-7.3821,-7.3163,-7.2176,-7.1846,-7.1457,-7.1038,-7.0949,-7.059,-7.0021,-6.9273,-6.8645,-6.8016,0.0,0.0,0.0,0.0,0.0,0.0,0.0,0.0,0.0,0.0,0.0,0.0,0.0,0.0,0.0,0.0,0.0,0.0,0.0,0.0,-4.1899,-4.1851,-4.3015,-4.3877,-4.4297,-4.4743,-4.5912,-4.7681,-4.7883,-4.8399,-4.9124,-4.8346,-4.6609,-4.4167,-4.3318,-4.2413,-4.1529,-4.1231,-4.0716,-4.0094,0.0,0.0,0.0,0.0,0.0,0.0,0.0,0.0,0.0,0.0,-4.3771,-4.461,-4.461,0.0,0.0,0.0,0.0,0.0,-4.6445,-4.7743,-4.9365,-5.1667,-5.1982,-5.1867,-5.2635,-5.2242,-5.1819,-5.1994,-5.1963,-5.2382,-5.3945,-5.6592,-6.0067,-6.4836,-6.9152,-7.2852,-7.5455,-7.7902,-7.9947,-8.1455,-8.3401,-8.4504,-8.4354,-8.4235,-8.3906,-8.3247,-8.205,-8.1003,-8.0315,-7.9327,-7.8489,-7.7831,-7.7472,-7.6844,-7.5916,-7.6185,-7.6006,-7.5347,-7.5018,-7.4869,-7.4869,-7.451,-7.418,-7.3851,-7.3133,-7.2445,-7.1846,-7.1517,-7.1188,-7.0889,-7.0889,-7.0739,-7.035,-6.9363,-6.8555,-6.7867,0.0,0.0,0.0,0.0,0.0,0.0,0.0,0.0,0.0,0.0,0.0,0.0,0.0,0.0,0.0,0.0,0.0,0.0,0.0,-4.0939,-4.154,-4.2028,-4.3639,-4.4764,-4.5225,-4.5943,-4.7172,-4.8934,-4.9016,-4.9572,-5.042,-4.8741,-4.6742,-4.4461,-4.4189,-4.3426,-4.2339,-4.234,-4.1772,-4.077,0.0,0.0,0.0,0.0,0.0,0.0,0.0,0.0,0.0,0.0,0.0,0.0,0.0,0.0,0.0,-4.4742,-4.511,-4.5655,-4.6564,-4.8029,-4.9878,-5.2547,-5.2749,-5.278,-5.4835,-5.4513,-5.396,-5.4823,-5.4911,-5.5193,-5.6419,-5.9683,-6.4266,-7.0663,-7.3966,-7.6494,-7.8651,-7.9656,-8.1123,-8.3666,-8.3666,-8.3906,-8.5132,-8.4175,-8.3247,-8.2589,-8.1781,-8.0823,-7.9627,-7.8938,-7.819,-7.7382,-7.6874,-7.6305,-7.5677,-7.5677,-7.5407,-7.4869,-7.4869,-7.4869,-7.4869,-7.418,-7.3821,-7.3612,-7.2415,-7.1787,-7.1607,-7.1098,-7.0889,-7.0889,-7.0889,-7.0709,-7.032,-6.9183,-6.8315,-6.7657,0.0,0.0,0.0,0.0,0.0,0.0,0.0,0.0,0.0,0.0,0.0,0.0,0.0,0.0,0.0,0.0,0.0,0.0,0.0,-4.101,-4.1576,-4.2249,-4.3601,-4.4916,-4.614,-4.7046,-4.7967,-4.8979,-4.945,-4.9693,-4.9743,-4.7901,-4.6752,-4.607,-4.4205,-4.3288,-4.3166,-4.2744,-4.199,-4.0988,-4.0988,0.0,0.0,0.0,0.0,0.0,0.0,0.0,0.0,0.0,0.0,0.0,0.0,0.0,-4.5017,-4.5175,-4.5126,-4.5422,-4.7067,-4.8271,-4.9504,-5.1611,-5.2088,-5.3448,-5.8797,-5.8379,-5.7556,-6.0119,-5.994,-5.913,-5.8459,-6.1864,-6.6222,-7.0709,-7.4932,-7.8741,-8.2006,-8.3487,-8.4384,-8.4624,-8.5132,-8.5073,-8.3965,-8.3247,-8.2559,-8.1901,-8.0674,-7.9627,-7.8908,-7.825,-7.7322,-7.6096,-7.6006,-7.5647,-7.4958,-7.4958,-7.4929,-7.4869,-7.4869,-7.4869,-7.4869,-7.418,-7.3552,-7.2954,-7.2206,-7.1547,-7.0979,-7.0919,-7.0889,-7.0889,-7.0889,-7.0171,-6.9064,-6.8315,-6.7627,-6.7059,0.0,0.0,0.0,0.0,0.0,0.0,0.0,0.0,0.0,0.0,0.0,0.0,0.0,0.0,0.0,0.0,0.0,0.0,0.0,-4.0296,-4.0929,-4.1492,-4.3026,-4.4557,-4.6092,-4.7518,-4.8828,-5.0069,-5.091,-5.0747,-4.9617,-4.8957,-4.7558,-4.5645,-4.4981,-4.4352,-4.3708,-4.3548,-4.2741,-4.165,-4.1933,-4.0875,0.0,0.0,0.0,0.0,0.0,0.0,0.0,0.0,-4.324,-4.4297,-4.4143,-4.4521,-4.5029,-4.5108,-4.5069,-4.5342,-4.6967,-4.87,-5.0532,-5.2673,-5.3689,-5.5425,-6.0145,-6.0608,-6.0943,-6.3731,-6.4262,-6.4129,-6.4051,-6.6252,-6.9512,-7.4046,-7.8202,-8.1751,-8.4235,-8.5013,-8.5312,-8.5312,-8.4833,-8.4295,-8.3786,-8.2769,-8.1871,-8.1212,-7.9926,-7.8878,-7.822,-7.7203,-7.6395,-7.5916,-7.5497,-7.5138,-7.4869,-7.4869,-7.4869,-7.4869,-7.4869,-7.4659,-7.424,-7.3582,-7.2924,-7.2235,-7.1577,-7.1128,-7.0889,-7.0889,-7.0889,-7.0889,-7.0889,-7.062,-7.0051,-6.9004,-6.8465,-6.8106,0.0,0.0,0.0,0.0,0.0,0.0,0.0,0.0,0.0,0.0,0.0,0.0,0.0,0.0,0.0,0.0,0.0,0.0,-3.9627,-4.0021,-4.0567,-4.1132,-4.2665,-4.4136,-4.5523,-4.7548,-4.9155,-5.0319,-5.1439,-5.1274,-5.0004,-4.9659,-4.844,-4.6455,-4.6075,-4.5465,-4.4713,-4.45,-4.3609,-4.2348,-4.2728,-4.1633,0.0,0.0,0.0,0.0,0.0,0.0,0.0,0.0,-4.3274,-4.4104,-4.3949,-4.4476,-4.5132,-4.5213,-4.5394,-4.5928,-4.7338,-4.8762,-5.0472,-5.2954,-5.4582,-5.6909,-6.2049,-6.2214,-6.245,-6.6695,-6.7487,-6.7638,-6.7938,-6.9223,-7.1547,-7.5626,-7.9789,-8.3128,-8.5103,-8.5372,-8.5312,-8.5103,-8.4085,-8.3337,-8.3128,-8.1931,-8.0883,-8.0225,-7.9118,-7.81,-7.7263,-7.6365,-7.5796,-7.5587,-7.5138,-7.4869,-7.4869,-7.4869,-7.4779,-7.4569,-7.4569,-7.433,-7.3881,-7.3223,-7.2535,-7.1846,-7.1188,-7.0889,-7.0889,-7.0889,-7.0799,-7.062,-7.062,-7.05,-7.0201,-6.9333,-6.8854,-6.8525,0.0,0.0,0.0,0.0,0.0,0.0,0.0,0.0,0.0,0.0,0.0,0.0,0.0,0.0,0.0,0.0,0.0,0.0,-4.0474,-4.0366,-4.0673,-4.1458,-4.2665,-4.3707,-4.4564,-4.7209,-4.8943,-4.9613,-5.0663,-5.1102,-5.097,-4.9855,-4.9163,-4.8949,-4.7317,-4.6475,-4.6253,-4.5581,-4.4395,-4.3024,-4.3213,-4.244,-4.1058,0.0,0.0,0.0,0.0,0.0,0.0,0.0,-4.3479,-4.3675,-4.3675,-4.4419,-4.5316,-4.5623,-4.6232,-4.7138,-4.8306,-4.8473,-4.9059,-5.2167,-5.425,-5.751,-6.4979,-6.3157,-6.1916,-6.8964,-6.9673,-6.9097,-6.9351,-7.0213,-7.1852,-7.4857,-7.8975,-8.2469,-8.4444,-8.4714,-8.4444,-8.3816,-8.3158,-8.2499,-8.1841,-8.0584,-7.9537,-7.8849,-7.816,-7.7263,-7.5976,-7.5886,-7.5587,-7.4899,-7.4869,-7.4869,-7.4869,-7.4869,-7.454,-7.3881,-7.3881,-7.3881,-7.3851,-7.3193,-7.2535,-7.1846,-7.1188,-7.0889,-7.0889,-7.0889,-7.053,-6.9991,-6.9991,-6.9572,-6.9004,-6.9004,-6.8555,-6.7897,0.0,0.0,0.0,0.0,0.0,0.0,0.0,0.0,0.0,0.0,0.0,0.0,0.0,0.0,0.0,0.0,0.0,0.0,-3.9657,-4.0125,-4.0562,-4.0782,-4.2099,-4.3107,-4.3676,-4.5981,-4.8061,-4.9866,-5.0668,-5.0714,-5.0004,-4.9659,-4.934,-4.8905,-4.7671,-4.6888,-4.6433,-4.5481,-4.4378,-4.3286,-4.3935,-4.2947,-4.1177,0.0,0.0,0.0,0.0,0.0,0.0,0.0,0.0,0.0,-4.3675,-4.4088,-4.4706,-4.5237,-4.5574,-4.61,-4.7538,-4.9104,-5.0917,-5.3393,-5.7239,-6.1398,-6.4955,-6.4742,-6.4951,-6.9089,-7.1272,-7.1942,-7.0344,-7.1683,-7.3732,-7.5956,-7.904,-8.1781,-8.3756,-8.4025,-8.3786,-8.3128,-8.2469,-8.1811,-8.1153,-8.0315,-7.9537,-7.8849,-7.7741,-7.6754,-7.5946,-7.5437,-7.5078,-7.4899,-7.4869,-7.4659,-7.418,-7.418,-7.3851,-7.3223,-7.3223,-7.2954,-7.2475,-7.2295,-7.1816,-7.1188,-7.0979,-7.0889,-7.0859,-7.044,-7.0141,-6.9991,-6.9991,-6.9871,-6.9632,-6.9183,-6.8884,-6.8525,0.0,0.0,0.0,0.0,0.0,0.0,0.0,0.0,0.0,0.0,-4.0593,-4.1275,0.0,0.0,0.0,0.0,0.0,0.0,-3.9814,-4.0155,-4.0593,-4.0978,-4.195,-4.3008,-4.4205,-4.5951,-4.7528,-4.8814,-4.9821,-5.0155,-4.9824,-4.996,-5.0004,-4.9987,-4.9056,-4.8113,-4.7224,-4.6296,-4.5359,-4.4526,-4.489,-4.4298,-4.3299,0.0,0.0,0.0,0.0,0.0,0.0,0.0,0.0,0.0,-4.3187,-4.3599,-4.4214,-4.4959,-4.5484,-4.6169,-4.7785,-4.9793,-5.2192,-5.5388,-5.9681,-6.3938,-6.7095,-6.8781,-7.026,-7.2017,-7.4038,-7.5117,-7.3971,-7.4256,-7.5347,-7.7293,-7.9417,-8.1392,-8.3098,-8.3128,-8.2798,-8.2409,-8.1572,-8.0853,-8.0434,-7.9567,-7.8729,-7.8071,-7.7053,-7.6185,-7.5527,-7.5108,-7.4869,-7.4869,-7.4869,-7.4569,-7.3911,-7.3881,-7.3432,-7.2505,-7.2505,-7.2026,-7.1158,-7.1667,-7.1398,-7.053,-7.026,-7.029,-7.047,-6.9572,-6.9183,-6.9183,-6.9183,-6.9183,-6.9153,-6.8734,-6.8585,-6.8435,0.0,0.0,-4.1243,-4.0597,0.0,0.0,0.0,0.0,0.0,0.0,-4.0296,-4.0786,0.0,0.0,0.0,0.0,0.0,0.0,0.0,-4.0519,-4.0865,-4.1705,-4.2155,-4.34,-4.5557,-4.6609,-4.7139,-4.7023,-4.8561,-4.9599,-5.0198,-5.0486,-5.0985,-5.1635,-5.0879,-4.9779,-4.8505,-4.7758,-4.71,-4.6496,-4.6015,-4.6188,-4.649,-4.4619,0.0,0.0,0.0,0.0,0.0,0.0,0.0,0.0,-4.2533,-4.2991,-4.3779,-4.464,-4.5693,-4.6993,-4.8775,-5.0683,-5.3278,-5.8029,-6.2159,-6.6311,-7.0972,-7.4436,-7.6452,-7.5918,-7.6934,-7.8071,-7.8441,-7.7203,-7.6754,-7.8579,-7.9896,-8.1153,-8.2409,-8.205,-8.1661,-8.1601,-8.0554,-7.9806,-7.9716,-7.8549,-7.7532,-7.6874,-7.6245,-7.5617,-7.4929,-7.4869,-7.4839,-7.4779,-7.4779,-7.445,-7.3702,-7.3702,-7.3043,-7.1697,-7.1697,-7.1068,-6.9931,-7.1218,-7.1128,-6.9931,-6.9273,-6.9333,-6.9782,-6.8495,-6.7956,-6.7956,-6.7956,-6.7956,-6.7956,-6.7956,-6.7956,-6.7867,0.0,0.0,-4.055,-4.0536,0.0,0.0,0.0,0.0,0.0,0.0,0.0,0.0,0.0,0.0,0.0,0.0,0.0,0.0,0.0,-4.1648,-4.1848,-4.1347,-4.2475,-4.386,-4.5557,-4.599,-4.6447,-4.7023,-4.8692,-4.9718,-5.0047,-5.0637,-5.147,-5.2397,-5.097,-5.0336,-5.035,-4.9105,-4.8402,-4.8179,-4.7824,-4.7297,-4.6622,-4.5778,-4.4921,0.0,0.0,0.0,0.0,0.0,0.0,0.0,-4.314,-4.3101,-4.3267,-4.3842,-4.5084,-4.6881,-4.9147,-5.2139,-5.602,-6.1466,-6.8133,-7.4001,-7.6614,-7.8142,-7.7684,-7.2988,-7.5902,-7.8711,-7.6434,-7.7194,-7.8489,-7.9447,-7.9836,-8.0315,-8.1123,-8.1093,-8.0823,-8.0285,-7.9986,-7.9597,-7.9058,-7.828,-7.7532,-7.6874,-7.6245,-7.5617,-7.4929,-7.4869,-7.4629,-7.4121,-7.4121,-7.3522,-7.2325,-7.2325,-7.1667,-7.038,-7.038,-6.9961,-6.9243,-7.053,-7.0709,-6.9931,-6.9273,-6.9093,-6.9153,-6.8315,-6.7956,-6.7956,-6.7956,-6.7956,-6.7956,-6.7956,-6.7956,-6.7867,0.0,0.0,0.0,0.0,0.0,0.0,0.0,0.0,0.0,0.0,0.0,0.0,0.0,0.0,0.0,0.0,0.0,0.0,0.0,0.0,-4.2095,-4.1923,-4.3008,-4.4006,-4.4825,-4.5354,-4.5804,-4.6207,-4.8799,-5.0093,-5.0012,-5.1015,-5.2048,-5.2933,-5.2078,-5.1515,-5.1258,-5.0321,-4.9884,-4.9758,-4.9309,-4.8852,-4.8341,-4.7338,-4.6384,-4.5544,-4.5242,0.0,0.0,0.0,0.0,0.0,0.0,0.0,-4.2828,-4.3345,-4.4466,-4.6156,-4.8865,-5.2893,-5.8121,-6.5862,-7.2325,-7.6993,-7.7682,-7.837,-7.7842,-7.4406,-7.7204,-7.9729,-7.7834,-7.8441,-7.9387,-7.9746,-7.9806,-8.0045,-8.0704,-8.0524,-8.0195,-7.9866,-7.9238,-7.8729,-7.837,-7.7442,-7.6604,-7.5946,-7.5318,-7.4659,-7.3971,-7.3941,-7.3791,-7.3432,-7.3432,-7.2774,-7.1427,-7.1427,-7.0769,-6.9512,-6.9512,-6.9333,-6.9004,-6.9363,-6.9512,-6.9453,-6.8465,-6.8226,-6.8465,-6.7777,-6.7508,-6.7508,-6.7508,-6.7508,-6.7508,-6.7508,-6.7508,-6.7448,0.0,0.0,0.0,0.0,0.0,0.0,0.0,0.0,0.0,0.0,0.0,0.0,0.0,0.0,0.0,0.0,0.0,0.0,0.0,0.0,0.0,-4.287,-4.3529,-4.397,-4.4131,-4.4738,-4.5251,-4.5609,-4.8848,-5.0487,-5.0618,-5.1911,-5.2856,-5.3607,-5.3421,-5.2777,-5.1816,-5.1318,-5.1152,-5.1106,-5.0437,-5.0296,-5.0319,-4.8804,-4.7806,-4.7054,-4.6221,-4.5374,-4.4589,-4.4184,0.0,0.0,0.0,0.0,-4.2566,-4.305,-4.402,-4.5628,-4.8521,-5.3871,-6.0736,-6.9632,-7.4719,-7.7352,-7.6933,-7.7263,-7.7502,-7.6933,-7.8579,-7.9956,-7.9387,-7.9297,-7.9297,-7.9297,-7.9387,-7.9627,-8.0045,-7.9746,-7.9417,-7.9327,-7.831,-7.7652,-7.7652,-7.6485,-7.5497,-7.4929,-7.4151,-7.3492,-7.2954,-7.2924,-7.2804,-7.2565,-7.2565,-7.1936,-7.059,-7.056,-6.9991,-6.8824,-6.8704,-6.8645,-6.8645,-6.8076,-6.8166,-6.8764,-6.7537,-6.7298,-6.7747,-6.7208,-6.6999,-6.6999,-6.6999,-6.6999,-6.6999,-6.6999,-6.6999,-6.6999,0.0,0.0,0.0,0.0,0.0,0.0,0.0,0.0,0.0,0.0,-4.2199,-4.2102,0.0,0.0,0.0,0.0,0.0,0.0,0.0,0.0,0.0,-4.3797,-4.3536,-4.3758,-4.4599,-4.4336,-4.5013,-4.6707,-4.8596,-5.0683,-5.2964,-5.3914,-5.453,-5.4838,-5.3966,-5.327,-5.2758,-5.1995,-5.173,-5.1789,-5.1091,-5.0952,-5.1022,-4.9634,-4.8633,-4.7794,-4.7084,-4.5736,-4.4357,-4.4347,-4.3737,0.0,0.0,0.0,-4.29,-4.2809,-4.4347,-4.6591,-4.8908,-5.6898,-6.5709,-7.0654,-7.4061,-7.6275,-7.6724,-7.6904,-7.6933,-7.6844,-7.7113,-7.7322,-7.7233,-7.7233,-7.7233,-7.7233,-7.7711,-7.7921,-7.7412,-7.7771,-7.7861,-7.7293,-7.7053,-7.6963,-7.6963,-7.5766,-7.4988,-7.4899,-7.3732,-7.3013,-7.2924,-7.2924,-7.2385,-7.1218,-7.1188,-7.056,-6.9273,-6.9243,-6.8884,-6.8106,-6.7537,-6.7268,-6.7238,-6.7148,-6.7478,-6.8076,-6.7328,-6.7029,-6.7119,-6.7029,-6.6999,-6.6999,-6.6999,-6.6999,-6.6999,-6.6999,-6.6999,-6.6999,0.0,0.0,0.0,0.0,0.0,0.0,0.0,0.0,0.0,0.0,0.0,-4.2505,0.0,0.0,0.0,-4.2803,0.0,0.0,0.0,0.0,0.0,-4.3418,-4.325,-4.3329,-4.3748,-4.3649,-4.428,-4.5588,-4.8251,-5.0804,-5.3299,-5.5388,-5.6303,-5.6169,-5.5455,-5.4491,-5.33,-5.2748,-5.2299,-5.1972,-5.1774,-5.1788,-5.1787,-5.094,-5.0302,-4.9687,-4.8663,-4.7532,-4.6414,-4.5443,-4.4548,-4.3677,-4.2928,0.0,0.0,0.0,-4.3655,-4.59,-5.0561,-5.7346,-6.4208,-6.8743,-7.2331,-7.4958,-7.5587,-7.6036,-7.6215,-7.5826,-7.5736,-7.5946,-7.6694,-7.6814,-7.6814,-7.6814,-7.7083,-7.7173,-7.6874,-7.7083,-7.7143,-7.6874,-7.6514,-7.6305,-7.6305,-7.5108,-7.418,-7.3821,-7.2894,-7.2176,-7.1816,-7.1787,-7.1368,-7.041,-7.038,-6.9752,-6.8435,-6.8435,-6.7897,-6.6879,-6.658,-6.6251,-6.5892,-6.5892,-6.646,-6.7388,-6.6729,-6.664,-6.6969,-6.658,-6.667,-6.6999,-6.6999,-6.6999,-6.6999,-6.6999,-6.6999,-6.6999,0.0,0.0,0.0,0.0,0.0,0.0,0.0,0.0,0.0,0.0,0.0,0.0,0.0,0.0,0.0,0.0,-4.3178,0.0,0.0,0.0,0.0,-4.2941,-4.289,-4.289,-4.29,-4.2996,-4.3604,-4.4742,-4.7905,-5.0744,-5.331,-5.6255,-5.7512,-5.7448,-5.6995,-5.5789,-5.3916,-5.3513,-5.2959,-5.245,-5.2684,-5.287,-5.2902,-5.2458,-5.2092,-5.1773,-5.0337,-4.9151,-4.8067,-4.6664,-4.535,-4.4054,-4.3264,-4.2795,0.0,0.0,0.0,-4.5347,-5.1285,-5.5973,-6.0385,-6.5589,-6.9379,-7.2188,-7.3799,-7.4659,-7.5078,-7.4899,-7.4749,-7.4929,-7.5916,-7.6215,-7.6335,-7.6335,-7.6485,-7.6544,-7.6365,-7.6485,-7.6544,-7.6365,-7.5766,-7.5407,-7.5407,-7.418,-7.3163,-7.2684,-7.2026,-7.1427,-7.0919,-7.0739,-7.038,-6.9752,-6.9572,-6.8914,-6.7747,-6.7717,-6.7238,-6.6251,-6.6251,-6.6011,-6.5533,-6.5533,-6.6071,-6.6939,-6.6281,-6.6281,-6.6729,-6.64,-6.646,-6.6759,-6.6939,-6.6999,-6.6999,-6.6999,-6.6999,-6.6999,0.0,0.0,0.0,0.0,0.0,0.0,0.0,0.0,0.0,0.0,0.0,0.0,-4.3966,-4.3927,-4.3771,-4.3309,-4.3527,-4.3518,-4.3021,-4.2991,0.0,-4.2729,-4.2555,0.0,-4.2729,-4.2544,-4.3357,-4.5157,-4.7565,-5.0442,-5.3693,-5.6176,-5.7687,-5.8349,-5.8113,-5.6885,-5.4979,-5.4463,-5.3976,-5.3614,-5.3992,-5.4387,-5.4686,-5.4018,-5.3776,-5.355,-5.1804,-4.994,-4.8205,-4.7774,-4.5861,-4.3785,-4.3879,-4.3353,-4.2769,0.0,0.0,0.0,-4.9954,-5.2444,-5.5333,-6.1455,-6.4556,-6.7155,-7.1168,-7.2565,-7.3402,-7.4629,-7.439,-7.3971,-7.4031,-7.4569,-7.4988,-7.4988,-7.5527,-7.5707,-7.5078,-7.5557,-7.5707,-7.5048,-7.439,-7.4001,-7.4001,-7.2774,-7.1966,-7.1936,-7.1338,-7.0949,-7.0889,-7.035,-6.9722,-6.9064,-6.8435,-6.7747,-6.7059,-6.7029,-6.6999,-6.6939,-6.6939,-6.6909,-6.6879,-6.6879,-6.6939,-6.6939,-6.6281,-6.6041,-6.6101,-6.67,-6.658,-6.6131,-6.6759,-6.6999,-6.6999,-6.6999,-6.6999,-6.6999,0.0,0.0,0.0,0.0,0.0,0.0,0.0,0.0,0.0,0.0,0.0,0.0,0.0,-4.482,-4.4548,-4.3815,-4.2931,-4.2525,-4.278,-4.2395,0.0,-4.2485,-4.2433,-4.2433,-4.2514,-4.231,-4.2986,-4.4602,-4.6089,-4.87,-5.2436,-5.4413,-5.6252,-5.7917,-5.7652,-5.6646,-5.5182,-5.4768,-5.4522,-5.4416,-5.5319,-5.5651,-5.5671,-5.5551,-5.551,-5.5379,-5.3857,-5.3105,-5.2532,-5.0789,-4.8939,-4.7078,-4.603,-4.4516,-4.3125,-4.2968,-4.3905,-4.5398,-4.7231,-4.9835,-5.295,-5.6738,-5.9915,-6.2829,-6.5622,-6.8046,-6.9871,-7.035,-7.1248,-7.1966,-7.1966,-7.2864,-7.3612,-7.3612,-7.3821,-7.3911,-7.3642,-7.3821,-7.3911,-7.3642,-7.3402,-7.3283,-7.3283,-7.2415,-7.1697,-7.1278,-7.0679,-7.0141,-6.9692,-6.9482,-6.9034,-6.8375,-6.8106,-6.7448,-6.637,-6.637,-6.5922,-6.5084,-6.5084,-6.5084,-6.5054,-6.4665,-6.4934,-6.5682,-6.5024,-6.5203,-6.6011,-6.5802,-6.5832,-6.6041,-6.6251,-6.661,-6.6999,-6.6999,-6.6999,-6.7059,0.0,0.0,0.0,-4.3531,0.0,-4.4594,-4.4361,-4.4385,-4.4489,-4.4627,0.0,0.0,0.0,0.0,-4.5144,-4.4252,-4.3189,-4.2772,-4.3184,-4.2831,-4.2602,-4.2602,-4.259,-4.2514,-4.2392,-4.2269,-4.2869,-4.4294,-4.5312,-4.757,-5.1039,-5.2665,-5.4608,-5.6716,-5.6338,-5.6146,-5.606,-5.6064,-5.608,-5.611,-5.7266,-5.7543,-5.7378,-5.8511,-5.8564,-5.7933,-5.7376,-5.6919,-5.6243,-5.4002,-5.188,-4.9895,-4.8282,-4.6061,-4.398,-4.366,-4.4288,-4.5323,-4.6193,-4.7915,-5.0186,-5.3438,-5.5782,-5.8174,-6.1481,-6.4335,-6.6641,-6.7601,-6.9097,-7.032,-7.056,-7.1128,-7.1727,-7.2176,-7.2235,-7.2235,-7.2235,-7.2235,-7.2235,-7.2235,-7.2056,-7.1906,-7.1936,-7.1308,-7.0739,-7.029,-6.9871,-6.9453,-6.9034,-6.8794,-6.8345,-6.7657,-6.7418,-6.6999,-6.634,-6.6131,-6.5682,-6.4994,-6.4784,-6.4665,-6.4665,-6.4006,-6.4216,-6.4994,-6.4545,-6.4725,-6.5323,-6.5114,-6.5293,-6.5712,-6.5922,-6.64,-6.6999,-6.6999,-6.7119,-6.7388,-4.1648,-4.2694,-4.3624,-4.3655,-4.4573,-4.5227,-4.5029,-4.5161,-4.5293,-4.5323,0.0,0.0,0.0,0.0,0.0,-4.4722,-4.4451,-4.4323,-4.4294,-4.4294,-4.3903,-4.305,0.0,0.0,-4.248,-4.245,-4.3065,-4.4323,-4.5441,-4.7199,-4.9592,-5.1024,-5.2783,-5.4735,-5.4259,-5.5319,-5.763,-5.8337,-5.8664,-5.8838,-5.9767,-6.0006,-6.0072,-6.2924,-6.2899,-6.1373,-6.2224,-6.1147,-5.9093,-5.7325,-5.466,-5.1869,-5.0598,-4.7953,-4.5364,-4.5334,-4.5364,-4.568,0.0,0.0,0.0,-5.1622,-5.229,-5.3334,-5.8897,-6.1597,-6.3704,-6.6523,-6.8023,-6.9004,-6.9692,-6.9303,-6.9303,-7.056,-7.0799,-7.0829,-7.0829,-7.0829,-7.0829,-7.0829,-7.029,-6.9901,-6.9961,-6.9363,-6.9004,-6.8974,-6.8974,-6.8974,-6.8944,-6.8315,-6.7657,-6.6999,-6.637,-6.6311,-6.6939,-6.6311,-6.6281,-6.6879,-6.6221,-6.5951,-6.5951,-6.5293,-6.4934,-6.4994,-6.4934,-6.4575,-6.4036,-6.4725,-6.4994,-6.5054,-6.5712,-6.637,-6.6969,-6.6999,-6.7418,-6.7956,-4.294,-4.3199,-4.3714,-4.4849,-4.4913,-4.4951,-4.5354,-4.535,-4.5538,0.0,0.0,0.0,-4.7465,-4.7109,-4.6563,-4.5815,-4.5128,-4.4531,-4.4094,-4.4065,-4.3978,-4.3718,-4.3718,-4.3673,-4.3542,-4.3542,-4.392,-4.4705,-4.5055,-4.6446,-4.8807,-4.9569,-5.1157,-5.3377,-5.4001,-5.5083,-5.6412,-5.6804,-5.8283,-6.0484,-6.1253,-6.2328,-6.3614,-6.4218,-6.4815,-6.5323,-6.4845,-6.4874,-6.4779,-6.2682,-5.9757,-5.6213,-5.1169,-4.8343,-4.6858,-4.6449,-4.6851,0.0,-4.6732,0.0,0.0,0.0,0.0,0.0,-5.2124,-5.526,-5.8437,-6.0311,-6.2562,-6.4691,-6.6101,-6.6251,-6.64,-6.7238,-6.8585,-6.9542,-6.9542,-6.9542,-6.9542,-6.9542,-6.9363,-6.9273,-6.9273,-6.9123,-6.8794,-6.8286,-6.8256,-6.8046,-6.7567,-6.7358,-6.7178,-6.6999,-6.6819,-6.634,-6.5592,-6.5383,-6.5144,-6.4814,-6.4186,-6.4366,-6.5263,-6.4126,-6.3857,-6.4246,-6.3827,-6.3498,-6.3378,-6.4006,-6.4276,-6.4366,-6.5024,-6.5712,-6.64,-6.7358,-6.7508,-6.7478,-4.3383,-4.3754,-4.4281,-4.5192,-4.5657,-4.5955,-4.6388,-4.6634,-4.7003,0.0,0.0,0.0,-4.928,-4.8436,-4.7561,-4.6936,-4.6159,-4.5547,-4.5198,-4.4937,-4.4632,-4.4254,-4.4313,-4.4197,-4.3849,-4.3936,-4.4298,-4.4879,-4.5169,-4.6337,-4.8219,-4.8752,-5.0076,-5.1964,-5.2842,-5.4059,-5.5523,-5.6054,-5.8258,-6.144,-6.2739,-6.3935,-6.5082,-6.7388,-6.8286,-6.8405,-6.95,-7.0201,-7.0097,-6.709,-6.3169,-5.8644,-5.353,-5.09,-4.9552,-4.8853,-4.9004,0.0,0.0,0.0,-4.9017,-4.8273,0.0,0.0,-4.9764,-5.2171,-5.4888,-5.6672,-5.8901,-6.1001,-6.2301,-6.278,-6.3288,-6.4216,-6.5592,-6.6909,-6.8016,-6.7687,-6.7537,-6.8106,-6.7926,-6.7867,-6.8136,-6.8166,-6.7986,-6.7597,-6.7567,-6.7388,-6.6999,-6.6999,-6.6999,-6.6999,-6.646,-6.5922,-6.5443,-6.5173,-6.4964,-6.4844,-6.4186,-6.4306,-6.4994,-6.3947,-6.3528,-6.3617,-6.3797,-6.3588,-6.3139,-6.3737,-6.4006,-6.4066,-6.4755,-6.5443,-6.6161,-6.7478,-6.7897,-6.7986,0.0,-4.4264,-4.4989,-4.508,-4.6482,-4.7641,-4.7792,-4.8432,-4.9088,0.0,-5.0458,-5.0965,-5.0773,-4.9716,-4.8817,-4.809,-4.7462,-4.701,-4.6807,-4.6256,-4.5557,-4.4742,-4.4949,-4.4689,-4.3862,-4.4139,-4.4531,-4.4995,-4.5663,-4.6621,-4.7782,-4.842,-4.9436,-5.0714,-5.1323,-5.2814,-5.4914,-5.6108,-5.8589,-6.1898,-6.4289,-6.5339,-6.61,-7.1612,-7.2559,-7.1398,-7.4869,-7.5736,-7.454,-7.032,-6.5203,-6.0082,-5.6895,-5.4586,-5.289,-5.2017,-5.1621,0.0,0.0,0.0,0.0,-4.9747,-4.8961,0.0,-5.005,-5.1239,-5.2587,-5.4677,-5.6534,-5.7941,-5.8691,-5.9441,-6.0311,-6.1511,-6.2325,-6.3736,-6.64,-6.5772,-6.5473,-6.664,-6.6251,-6.6131,-6.6729,-6.6759,-6.6759,-6.6759,-6.6849,-6.6879,-6.6879,-6.6939,-6.6999,-6.6999,-6.5772,-6.5383,-6.5892,-6.5233,-6.5203,-6.5772,-6.5114,-6.4844,-6.4904,-6.4276,-6.3706,-6.3369,-6.4514,-6.4394,-6.3459,-6.3915,-6.4036,-6.3977,-6.4725,-6.5383,-6.6071,-6.7537,-6.8435,-6.8914,-4.4083,-4.4413,-4.4911,-4.5688,-4.6659,-4.7799,-4.9026,-4.9239,-4.9731,-5.1155,-5.1776,-5.2152,-5.2328,-5.1768,-5.0915,-4.9775,-4.9349,-4.8478,-4.6894,-4.6553,-4.6068,-4.536,-4.5866,-4.5866,-4.5158,-4.5875,-4.6098,-4.5692,-4.633,-4.7027,-4.7782,-4.842,-4.9436,-5.0714,-5.1323,-5.2688,-5.4711,-5.7158,-5.9852,-6.2759,-6.5503,-6.8657,-7.1943,-7.4474,-7.6105,-7.7113,-7.7352,-7.7352,-7.6305,-7.0231,-6.634,-6.3346,-5.9242,-5.6967,-5.562,-5.4775,-5.4521,-5.4202,-5.2655,-5.262,-5.2681,-5.1283,-5.09,0.0,-4.9556,-5.0144,-5.1297,-5.2581,-5.4279,-5.5831,-5.6842,-5.8064,-5.898,-5.9173,-6.0327,-6.2212,-6.5023,-6.5173,-6.5114,-6.5383,-6.5293,-6.5263,-6.5413,-6.5413,-6.5413,-6.5413,-6.5892,-6.6191,-6.6191,-6.67,-6.6999,-6.6999,-6.6221,-6.5622,-6.5233,-6.4545,-6.4276,-6.4395,-6.3767,-6.3707,-6.4186,-6.4066,-6.4138,-6.4382,-6.4836,-6.5044,-6.5176,-6.4927,-6.4216,-6.3378,-6.4575,-6.5114,-6.5503,-6.7926,-6.8525,-6.8405,-4.4421,-4.471,-4.5331,-4.6478,-4.7572,-4.876,-5.0169,-5.0603,-5.1272,-5.28,-5.3594,-5.3968,-5.3822,-5.3757,-5.3032,-5.1366,-5.1052,-5.0233,-4.8552,-4.7909,-4.7164,-4.6268,-4.6818,-4.6893,-4.6268,-4.6957,-4.7143,-4.6824,-4.7462,-4.7927,-4.8275,-4.9233,-5.0319,-5.1458,-5.2187,-5.36,-5.5552,-5.7601,-6.0123,-6.2969,-6.6883,-7.0049,-7.2756,-7.6292,-7.8093,-7.8819,-7.9178,-7.846,-7.6574,-7.1607,-6.8405,-6.5862,-6.2104,-5.9596,-5.8006,-5.7851,-5.7087,-5.6023,-5.4575,-5.4515,-5.4453,-5.2764,-5.2152,0.0,0.0,-5.0388,-5.0642,-5.185,-5.2352,-5.287,-5.3744,-5.4604,-5.5371,-5.6207,-5.7072,-5.8475,-6.0937,-6.2567,-6.3797,-6.4455,-6.4246,-6.4186,-6.4485,-6.4814,-6.5024,-6.5024,-6.5323,-6.5533,-6.5533,-6.5832,-6.6011,-6.6011,-6.5353,-6.5024,-6.5024,-6.4336,-6.4336,-6.4994,-6.4006,-6.3887,-6.4515,-6.4515,-6.4419,-6.4422,-6.5502,-6.5771,-6.5392,-6.5472,-6.4934,-6.4156,-6.5144,-6.5712,-6.6251,-6.8256,-6.9004,-6.9123,-4.4448,-4.497,-4.5675,-4.6711,-4.8207,-4.9748,-5.102,-5.1768,-5.2725,-5.4241,-5.5406,-5.5998,-5.5901,-5.5931,-5.5308,-5.3727,-5.3082,-5.2088,-5.0603,-4.9727,-4.875,-4.7491,-4.7845,-4.7835,-4.7262,-4.772,-4.7898,-4.7782,-4.842,-4.8663,-4.874,-5.0075,-5.1241,-5.223,-5.3279,-5.4831,-5.6697,-5.8132,-6.0484,-6.3653,-6.8542,-7.0839,-7.1978,-7.7053,-7.8956,-7.904,-8.0315,-7.9327,-7.6874,-7.3283,-7.0679,-6.8348,-6.4811,-6.2156,-6.0385,-6.0418,-5.9164,-5.7572,-5.659,-5.63,-5.5913,-5.4404,-5.3622,-5.3009,0.0,0.0,0.0,-5.188,-5.1219,-5.0677,-5.1318,-5.1498,-5.2065,-5.353,-5.4257,-5.5194,-5.6849,-5.9318,-6.1391,-6.2625,-6.2565,-6.2625,-6.3077,-6.3677,-6.4186,-6.4455,-6.4455,-6.4575,-6.4814,-6.4964,-6.5024,-6.5024,-6.4366,-6.4336,-6.5024,-6.4336,-6.4605,-6.5802,-6.4575,-6.4306,-6.4844,-6.4964,-6.4693,-6.4266,-6.6192,-6.6342,-6.5351,-6.5922,-6.5892,-6.5443,-6.5862,-6.634,-6.6999,-6.8465,-6.9333,-6.9842,-4.42,-4.4881,-4.5582,-4.5525,-4.7608,-4.9748,-5.102,-5.1768,-5.2972,-5.517,-5.6585,-5.803,-5.9663,-5.8667,-5.7945,-5.8005,-5.6196,-5.4164,-5.2009,-5.1554,-5.0643,-4.9104,-4.9095,-4.8864,-4.8269,-4.848,-4.8333,-4.7782,-4.842,-4.8663,-4.874,-5.0075,-5.1374,-5.2617,-5.4077,-5.5791,-5.7745,-5.9629,-6.2402,-6.6011,-7.0684,-7.2109,-7.1883,-7.6265,-7.8495,-7.94,-8.0462,-8.0225,-7.8789,-7.43,-7.2595,-7.1457,-6.64,-6.4146,-6.3062,-6.1352,-6.0202,-5.9358,-5.8639,-5.8423,-5.8116,-5.6761,-5.6168,-5.5551,-5.3883,0.0,-5.2404,-5.2337,0.0,-5.135,-5.1821,0.0,0.0,-5.2136,-5.3775,-5.5101,-5.5457,-5.6304,-5.7203,-5.8121,-5.9212,-5.9958,-6.0018,-6.0431,-6.1134,-6.2331,-6.2421,-6.2929,-6.4066,-6.4695,-6.5024,-6.5024,-6.4366,-6.4336,-6.5024,-6.4336,-6.4366,-6.5114,-6.4366,-6.4036,-6.4126,-6.4755,-6.489,-6.4733,-6.6311,-6.6793,-6.6514,-6.6794,-6.6819,-6.6729,-6.6191,-6.6071,-6.637,-6.8286,-6.9064,-6.9273,-4.5001,-4.5626,-4.6455,-4.7442,-4.858,-5.0018,-5.2037,-5.404,-5.5712,-5.6859,-5.8161,-5.9985,-6.2544,-6.1001,-6.0681,-6.2754,-5.9985,-5.7529,-5.6025,-5.4456,-5.3267,-5.2661,-5.1331,-5.068,-5.0846,-5.0171,-4.9524,-4.8885,-4.9146,-4.9262,-4.9291,-5.0598,-5.2006,-5.3471,-5.5265,-5.7298,-5.9605,-6.1963,-6.3712,-6.5114,-6.8645,-7.0123,-7.098,-7.7614,-7.9879,-7.9695,-8.0089,-7.9806,-7.8699,-7.5228,-7.3552,-7.2445,-6.9842,-6.6702,-6.4083,-6.45,-6.2961,-6.0935,-6.0211,-6.0958,-6.137,-5.8675,-5.837,-5.8084,-5.5927,-5.4314,-5.3312,-5.3392,0.0,0.0,0.0,0.0,0.0,0.0,-5.1845,-5.203,-5.252,-5.2887,-5.4175,-5.7011,-5.7374,-5.7643,-5.8294,-5.8987,-5.9921,-6.1142,-6.1202,-6.1898,-6.3609,-6.3436,-6.3677,-6.4425,-6.4156,-6.4336,-6.5024,-6.5458,-6.5775,-6.5991,-6.6001,-6.5998,-6.5973,-6.5604,-6.5578,-6.5883,-6.625,-6.6583,-6.6852,-6.7003,-6.6999,-6.6999,-6.7119,-6.7148,-6.7298,-6.8555,-6.9243,-6.9692,-4.6109,0.0,-4.7141,-4.8535,-4.906,-5.0258,-5.317,-5.5691,-5.7635,-5.8541,-5.9536,-6.1686,-6.5766,-6.4243,-6.4401,-6.8108,-6.5023,-6.2124,-6.044,-5.8099,-5.6412,-5.5654,-5.3743,-5.2661,-5.2594,-5.1519,-5.054,-4.96,-4.96,-4.9736,-5.0037,-5.1091,-5.2413,-5.3931,-5.628,-5.8758,-6.149,-6.4368,-6.6098,-6.7178,-6.9662,-7.1408,-7.3136,-7.8525,-8.0238,-7.9806,-7.9806,-7.9387,-7.843,-7.6185,-7.4779,-7.3732,-7.2325,-6.9067,-6.5952,-6.6854,0.0,0.0,-6.1995,-6.3072,-6.3731,-6.0502,-6.0053,-5.9805,-5.7886,-5.605,-5.4838,-5.4931,-5.3585,0.0,0.0,0.0,0.0,0.0,0.0,-5.0232,-5.0669,-5.079,-5.1999,-5.4996,-5.531,-5.5724,-5.6809,-5.7586,-5.8668,-6.0052,-6.0271,-6.1091,-6.2875,-6.3139,-6.3418,-6.3707,-6.4236,-6.4832,-6.5437,-6.6124,-6.6812,-6.7466,-6.7691,-6.785,-6.7985,-6.7166,-6.674,-6.6739,-6.6727,-6.6794,-6.6759,-6.7119,-6.7268,-6.7328,-6.7986,-6.8256,-6.8345,-6.9004,-6.9572,-7.0081,-4.7443,-4.725,-4.7068,-4.7336,-4.8416,-5.0499,-5.4014,-5.5752,-5.7505,-6.0019,-6.0346,-6.2994,-6.9819,-6.888,-6.9573,-7.4218,-7.1577,-6.816,-6.4665,-6.2584,-6.0185,-5.7335,-5.5978,-5.445,-5.2652,-5.1984,-5.0875,-4.9305,-4.9305,-4.9771,-5.0705,-5.1323,-5.231,-5.3669,-5.6858,-6.005,-6.3327,-6.6514,-7.044,-7.4689,-7.6694,-7.8669,-8.0238,-7.8216,-7.8446,-7.9806,-7.9806,-7.9387,-7.8579,-7.7233,-7.6724,-7.6125,-7.2894,-7.1113,-6.9715,-6.7185,-6.6611,-6.6302,-6.4361,-6.4331,-6.4391,-6.2299,-6.1058,-6.0172,-5.9378,-5.8408,-5.7567,-5.7081,-5.5209,-5.3789,-5.4255,0.0,0.0,0.0,0.0,0.0,0.0,-5.0834,-5.0736,-5.0802,-5.2516,-5.4097,-5.5285,-5.5773,-5.6839,-5.8811,-5.9599,-6.0462,-6.1489,-6.4506,-6.5218,-6.3166,-6.4823,-6.6001,-6.6621,-6.6032,-6.6958,-6.9383,-6.8743,-6.8829,-6.9493,-6.9493,-6.8482,-6.6884,-6.815,-6.7663,-6.6131,-6.7418,-6.7989,-6.8016,-6.8704,-6.8974,-6.9064,-6.9722,-6.9961,-7.0081,-4.7593,-4.8209,-4.8829,-4.9179,-4.9254,-5.0545,-5.4316,-5.7274,-6.0532,-6.4453,-6.5704,-6.9184,-7.6839,-7.5315,-7.5572,-8.0358,-7.6724,-7.3214,-7.0878,-6.7912,-6.5677,-6.4457,-6.1491,-5.9227,-5.7765,-5.6021,-5.3635,-5.0572,-5.0724,-5.089,-5.1042,-5.1911,-5.2688,-5.3617,-5.6858,-6.0109,-6.3505,-6.7975,-7.1068,-7.3103,-7.5557,-7.6963,-7.7652,-7.8633,-7.9011,-7.9148,-7.9148,-7.8998,-7.8729,-7.828,-7.7562,-7.6694,-7.6006,-7.3769,-7.1288,-7.0839,-6.9712,-6.8453,-6.8057,-6.9203,-6.9689,-6.6162,-6.5136,-6.4274,-6.1287,-5.9725,-5.8489,-5.7329,-5.6738,-5.598,-5.466,0.0,0.0,0.0,0.0,0.0,0.0,-4.9999,-5.0088,-5.0361,-5.158,-5.227,-5.2181,-5.3576,-5.5027,-5.6469,-5.8226,-5.9723,-6.1007,-6.3055,-6.4351,-6.485,-6.4725,-6.5906,-6.8569,-6.835,-6.8477,-6.8861,-6.9841,-7.0214,-6.9989,-6.9187,-6.8768,-6.8545,-6.825,-6.757,-6.6729,-6.7597,-6.7956,-6.8076,-6.9213,-6.9662,-6.9662,-6.9901,-7.0231,-7.0739,-4.8517,-4.9149,-4.9824,-5.0106,-5.0753,-5.2326,-5.5682,-5.971,-6.3354,-6.6063,-6.9245,-7.343,-7.9343,-7.9162,-8.0405,-8.4714,-8.1751,-7.8314,-7.5138,-7.282,-7.0425,-6.8076,-6.5796,-6.3506,-6.1052,-5.8999,-5.5979,-5.192,-5.1741,-5.1574,-5.1523,-5.2162,-5.2787,-5.3617,-5.6623,-5.9873,-6.3564,-6.8691,-7.2086,-7.4151,-7.6125,-7.6784,-7.6724,-7.819,-7.8489,-7.816,-7.8609,-7.8789,-7.8789,-7.8789,-7.822,-7.7562,-7.7741,-7.5886,-7.3642,-7.3612,-7.2697,-7.1628,-7.1163,-7.2248,-7.28,-6.9546,-6.8563,-6.7547,-6.424,-6.2579,-6.1279,-5.9809,-5.8723,-5.7494,-5.5949,0.0,0.0,0.0,0.0,0.0,0.0,-4.9653,-4.973,-5.0128,-5.0818,-5.1234,-5.1092,-5.2294,-5.3775,-5.5402,-5.7408,-5.9041,-6.0138,-6.2663,-6.4236,-6.4514,-6.4816,-6.6349,-6.9177,-6.9209,-6.9518,-7.0159,-7.1376,-7.1817,-7.1588,-7.0407,-6.9877,-6.9825,-6.8696,-6.7844,-6.7388,-6.8076,-6.8465,-6.8794,-6.9871,-7.032,-7.032,-7.032,-7.0709,-7.1398,-5.006,-5.0176,-5.0219,-5.0481,-5.2863,-5.5558,-5.8034,-6.2579,-6.5593,-6.5207,-7.089,-7.5752,-7.7902,-8.0882,-8.4062,-8.7526,-8.6659,-8.3457,-7.7682,-7.7233,-7.4629,-6.8914,-6.9123,-6.7319,-6.2913,-6.1056,-5.7932,-5.3415,-5.2349,-5.1952,-5.2133,-5.2133,-5.2607,-5.3588,-5.6153,-5.9431,-6.3445,-6.8635,-7.3492,-7.7861,-7.8549,-7.843,-7.7741,-7.7143,-7.6874,-7.6993,-7.831,-7.8789,-7.8789,-7.8789,-7.8789,-7.8669,-7.8041,-7.7412,-7.6634,-7.5377,-7.5467,-7.5527,-7.3672,-7.3612,-7.3762,-7.2415,-7.1323,-7.0013,-6.8059,-6.6822,-6.5726,-6.4331,-6.121,-5.8542,-5.8043,-5.5371,0.0,0.0,0.0,0.0,0.0,0.0,-4.9693,-4.9923,-5.0362,-5.0944,-5.1797,-5.1927,-5.2984,-5.5392,-5.7095,-5.835,-5.8915,-6.3357,-6.4746,-6.2378,-6.5098,-6.7299,-6.8631,-6.8577,-7.0053,-7.3044,-7.3044,-7.3458,-7.407,-7.294,-7.1756,-7.0599,-6.9463,-6.8632,-6.8143,-6.88,-6.949,-7.0119,-7.0649,-7.0919,-7.0949,-7.0979,-7.1398,-7.2026,-5.0764,-5.2442,-5.3905,-5.4709,-5.5871,-5.7098,-5.8206,-6.137,-6.4861,-6.8417,-7.4015,-7.9093,-8.2859,-8.6825,-8.9374,-8.983,-8.9112,-8.7377,-8.4354,-8.2769,-8.0853,-7.834,-7.6036,-7.323,-6.9951,-6.5899,-6.1527,-5.679,-5.4576,-5.3148,-5.253,-5.2742,-5.3093,-5.3588,-5.6153,-5.8929,-6.2056,-6.703,-7.2631,-7.8276,-7.916,-7.8849,-7.7861,-7.816,-7.7682,-7.6993,-7.831,-7.8789,-7.8789,-7.8789,-7.8789,-7.8759,-7.8579,-7.81,-7.7502,-7.7143,-7.6844,-7.6604,-7.6574,-7.6664,-7.6485,-7.5198,-7.3949,-7.2553,-7.0765,-6.9386,-6.8031,-6.6397,-6.4907,-6.295,-5.9765,-5.769,-5.5594,0.0,0.0,0.0,0.0,0.0,-5.0041,-5.0658,-5.0646,-5.0473,-5.0266,-5.1103,-5.2233,-5.3571,-5.5348,-5.7333,-5.9451,-6.1449,-6.321,-6.473,-6.4714,-6.6658,-7.0598,-6.9795,-7.0416,-7.2574,-7.2574,-7.2672,-7.2835,-7.2538,-7.2219,-7.195,-7.1593,-7.0917,-6.9952,-7.0247,-7.0435,-7.0617,-7.0825,-7.1188,-7.1697,-7.2206,-7.2505,-7.2804,-5.2102,-5.4074,-5.6134,-5.7839,-5.8552,-5.9675,-6.1967,-6.4081,-6.6681,-7.0098,-7.638,-8.1038,-8.2483,-8.7956,-9.1476,-9.1087,-9.0728,-8.9292,-8.6449,-8.603,-8.4654,-8.1901,-8.0255,-7.785,-7.4415,-6.9595,-6.4676,-5.9886,-5.6559,-5.4294,-5.308,-5.2984,-5.316,-5.3588,-5.5859,-5.8162,-6.0757,-6.7268,-7.257,-7.6731,-7.8003,-7.8071,0.0,-7.7801,-7.7652,-7.7352,-7.81,-7.8549,-7.8789,-7.8789,-7.8789,-7.8789,-7.8789,-7.8519,-7.825,-7.825,-7.7981,-7.7771,-7.813,-7.825,-7.8071,-7.7352,-7.6604,-7.5506,-7.3394,-7.2109,-7.0942,-6.9353,-6.7457,-6.5279,-6.2481,-5.9732,-5.6739,0.0,0.0,0.0,0.0,-5.0344,-5.0124,-5.0259,-5.0501,-5.0326,-4.9555,-5.063,-5.1585,-5.2219,-5.4252,-5.6207,-5.7911,-6.049,-6.2695,-6.4272,-6.5367,-6.7491,-7.069,-7.0854,-7.1647,-7.3025,-7.3155,-7.3181,-7.3149,-7.2111,-7.1593,-7.157,-7.0803,-7.0259,-6.996,-7.0282,-7.0644,-7.0854,-7.1242,-7.1757,-7.2415,-7.3103,-7.3343,-7.3492,-5.3784,-5.55,-5.7553,-5.9827,-6.0791,-6.2787,-6.7507,-6.8698,-6.973,-7.158,-7.8437,-8.2485,-8.0466,-8.7147,-9.1805,-9.1626,-9.1626,-9.01,-8.6569,-8.7885,-8.7018,-8.2978,-8.3038,-8.1392,-7.7682,-7.2477,-6.7466,-6.2715,-5.8205,-5.5185,-5.3649,-5.302,-5.3029,-5.3704,-5.5483,-5.7512,-6.0191,-6.8247,-7.2613,-7.4292,-7.6115,-7.6933,-7.7083,-7.6993,-7.7382,-7.7921,-7.7831,-7.813,-7.8519,-7.8519,-7.8579,-7.8669,-7.8669,-7.8729,-7.8789,-7.8789,-7.8789,-7.8789,-7.8789,-7.8789,-7.8789,-7.8789,-7.8789,-7.819,-7.5916,-7.4809,-7.3881,-7.2565,-6.9523,-6.6733,-6.5413,-6.1352,-5.6934,0.0,0.0,-5.1803,-5.088,-5.0829,-5.059,-4.9624,-5.0538,0.0,-4.9509,-5.0392,-5.1117,-5.14,-5.3374,-5.5052,-5.6081,-6.0053,-6.2472,-6.291,-6.6339,-6.8785,-7.0167,-7.1635,-7.3036,-7.4363,-7.4107,-7.4034,-7.4148,-7.1785,-7.0789,-7.0803,-6.9272,-6.8904,-6.9506,-7.001,-7.0573,-7.1098,-7.1757,-7.2445,-7.3103,-7.3702,-7.3941,-7.4091,-5.5255,-5.7334,-5.9001,-5.946,-6.1651,-6.5504,-7.2081,-7.1337,-7.165,-7.6001,-8.1834,-8.5431,-8.4996,-8.9957,-9.2793,-9.1716,-9.1626,-9.1087,-8.986,-8.9591,-8.9142,-8.8304,-8.6299,-8.4085,-8.1781,-7.4803,-6.9128,-6.5103,-5.8987,-5.5296,-5.4003,-5.3127,-5.3288,-5.4371,-5.5474,-5.8069,-6.1978,-6.7867,-7.1263,-7.2997,-7.5755,-7.7472,-7.84,-7.7861,-7.8041,-7.8549,-7.8011,-7.7532,-7.7173,-7.7173,-7.7532,-7.7981,-7.7981,-7.834,-7.8789,-7.8789,-7.8789,-7.8789,-7.8789,-7.8789,-7.8789,-7.8789,-7.8789,-7.8669,-7.822,-7.7173,-7.5946,-7.4629,-7.2541,-6.9939,-6.6763,-6.1684,-5.7598,-5.6464,-5.462,-5.3221,-5.302,-5.3619,-5.3259,0.0,-5.279,-5.31,-5.0164,-5.0556,-5.1246,-5.1796,-5.1946,-5.3991,-5.867,-5.9302,-6.1227,-6.501,-6.5971,-6.8232,-7.2126,-7.1361,-7.2889,-7.6723,-7.4012,-7.3261,-7.4312,-7.2325,-7.1712,-7.2191,-7.1912,-7.1862,-7.1933,-7.1536,-7.1519,-7.1787,-7.2475,-7.3133,-7.3732,-7.3851,-7.424,-7.4719,-5.7667,-5.8848,-6.0034,-6.1414,-6.5111,-6.9856,-7.5722,-7.7857,-7.9162,-8.0279,-8.3011,-8.5066,-8.5396,-9.0002,-9.2823,-9.2194,-9.2434,-9.2224,-9.1207,-9.0848,-9.0369,-8.9711,-8.7796,-8.5641,-8.3307,-7.7031,-7.1429,-6.6662,-6.0822,-5.6812,-5.4518,-5.3407,-5.3452,-5.4575,0.0,-5.9533,-6.3126,-6.7569,-7.0423,-7.2184,-7.5515,-7.7412,-7.825,-7.7921,-7.7801,-7.7682,-7.7053,-7.6395,-7.5916,-7.6604,-7.7263,-7.7801,-7.7801,-7.825,-7.8789,-7.8789,-7.8789,-7.8789,-7.8789,-7.8789,-7.8789,-7.8789,-7.8789,-7.8609,-7.7921,-7.7293,-7.6455,-7.5138,-7.3582,-7.1163,-6.6972,-6.3367,-6.0584,-5.913,-5.7072,-5.5475,-5.5061,-5.4969,-5.4357,0.0,0.0,0.0,-5.1884,-5.1593,-5.1339,-5.0839,-5.1414,-5.3484,-5.7363,-5.9054,-6.1298,-6.4429,-6.6916,-6.911,-7.1017,-7.2139,-7.3467,-7.5024,-7.3909,-7.3421,-7.3451,-7.1876,-7.1382,-7.1665,-7.1379,-7.1261,-7.1261,-7.165,-7.2254,-7.2954,-7.3283,-7.3821,-7.439,-7.439,-7.4599,-7.4869,-6.1494,-6.1278,-6.1742,-6.4669,-6.8857,-7.3319,-7.7805,-8.2907,-8.5855,-8.4616,-8.5013,-8.5671,-8.6329,-9.01,-9.2613,-9.2613,-9.2943,-9.2673,-9.1476,-9.1416,-9.0878,-8.9711,-8.8394,-8.6539,-8.3995,-7.8789,-7.3474,-6.8207,-6.2878,-5.8634,-5.5548,-5.4169,-5.4104,-5.5322,-5.815,-6.1011,-6.3968,-6.7479,-7.0029,-7.2029,-7.5117,-7.6963,-7.7771,-7.7502,-7.7263,-7.6933,-7.6185,-7.5557,-7.5228,-7.6125,-7.6844,-7.7412,-7.7412,-7.7861,-7.84,-7.8549,-7.8579,-7.8609,-7.8759,-7.8789,-7.8789,-7.8789,-7.8789,-7.8519,-7.7472,-7.7023,-7.6485,-7.5347,-7.3702,-7.1338,-6.7567,-6.5413,-6.3526,-6.1413,-5.9272,-5.7501,-5.6473,-5.6293,-5.5739,0.0,0.0,0.0,-5.3542,-5.2499,-5.1456,-5.0347,-5.1553,-5.3438,-5.5855,-5.9085,-6.1699,-6.3531,-6.7706,-7.0062,-7.0537,-7.2801,-7.391,-7.3847,-7.3962,-7.3667,-7.298,-7.1616,-7.1076,-7.1169,-7.0625,-7.047,-7.0679,-7.1697,-7.2804,-7.3911,-7.4061,-7.442,-7.4869,-7.4869,-7.4869,-7.4869,-6.763,-6.6206,-6.5379,-6.892,-7.1036,-7.3422,-7.69,-8.1968,-8.6428,-8.9441,-9.0489,-9.1147,-9.1776,-9.2314,-9.2613,-9.2613,-9.2105,-9.1506,-9.0788,-9.0728,-9.0399,-8.9711,-8.8394,-8.6748,-8.4654,-7.9447,-7.4543,-7.0219,-6.4445,-6.0237,-5.752,-5.5687,-5.58,-5.7576,-5.935,-6.173,-6.4665,-6.7682,-7.044,-7.293,-7.442,-7.6155,-7.7682,-7.6514,-7.6754,-7.7562,-7.6335,-7.5856,-7.5736,-7.5228,-7.5527,-7.6096,-7.6096,-7.6514,-7.7143,-7.7741,-7.7891,-7.8041,-7.8639,-7.8789,-7.8789,-7.8789,-7.8789,-7.8759,-7.8639,-7.7682,-7.6634,-7.5946,-7.3283,-7.0799,-6.9782,-6.7059,-6.4455,-6.3077,-6.0681,-5.8421,-5.6807,-5.8774,-5.9045,-5.5274,0.0,0.0,-5.414,-5.2581,-5.1809,-5.2031,-5.2426,-5.3914,-5.6803,-5.9376,-6.1803,-6.4127,-6.6982,-7.0198,-7.3843,-7.2347,-7.3529,-7.7177,-7.4238,-7.3433,-7.4427,-7.2576,-7.206,-7.2613,-7.1952,-7.2056,-7.2654,-7.2774,-7.3253,-7.3941,-7.454,-7.4809,-7.4869,-7.4869,-7.4869,-7.4869,-7.2205,-7.2252,-7.246,-7.5162,-7.9141,-8.1979,-8.2218,-8.7902,-9.1505,-8.9699,-9.0369,-9.1117,-9.1386,-9.1776,-9.2015,-9.2015,-9.2135,-9.1925,-9.1267,-9.0848,-9.0339,-8.9711,-8.8394,-8.6778,-8.4743,-8.1093,-7.6733,-7.1718,-6.6786,-6.2823,-5.9764,-5.7698,-5.7927,-6.0252,-6.1996,-6.4011,-6.6218,-6.9389,-7.1338,-7.2475,-7.4629,-7.5976,-7.6604,-7.6096,-7.6215,-7.6544,-7.5617,-7.5288,-7.5258,-7.4958,-7.5347,-7.5976,-7.6335,-7.6904,-7.7562,-7.819,-7.84,-7.846,-7.8729,-7.8789,-7.8789,-7.8789,-7.8789,-7.8699,-7.828,-7.7801,-7.7143,-7.6125,-7.418,-7.2265,-7.0799,-6.9453,-6.7804,-6.5531,-6.374,-6.1879,-5.9753,-6.0761,0.0,-5.8449,0.0,-5.8179,-5.7001,-5.4209,-5.3009,-5.4267,-5.3147,-5.3729,-5.656,-5.8752,-6.0774,-6.2655,-6.6596,-6.9151,-7.0217,-7.1951,-7.3381,-7.4501,-7.3723,-7.3262,-7.3005,-7.2614,-7.2599,-7.2841,-7.2619,-7.2894,-7.3492,-7.3492,-7.3881,-7.451,-7.4779,-7.4869,-7.4929,-7.5347,-7.5497,-7.5557,-7.7454,-7.7836,-7.8293,-8.11,-8.5039,-8.7499,-8.647,-9.1675,-9.443,-9.0519,-9.0466,-9.0653,-9.0579,-9.1057,-9.1416,-9.1596,-9.1865,-9.1746,-9.1087,-9.0608,-8.998,-8.9142,-8.8005,-8.6569,-8.4743,-8.214,-7.8507,-7.3721,-6.95,-6.5725,-6.2411,-6.0174,-6.0436,-6.2911,-6.4486,-6.6425,-6.8585,-7.0919,-7.2235,-7.2954,-7.5048,-7.5916,-7.5916,-7.5916,-7.5916,-7.5826,-7.5138,-7.4869,-7.4869,-7.4869,-7.5198,-7.5677,-7.6125,-7.6724,-7.7382,-7.8011,-7.834,-7.8549,-7.8729,-7.8789,-7.8789,-7.8789,-7.8789,-7.8669,-7.819,-7.7951,-7.7442,-7.6155,-7.4988,-7.3642,-7.1816,-7.1188,-7.0047,-6.7376,-6.5948,-6.4336,-6.1799,-6.2208,0.0,-6.0343,-5.9629,-5.9242,-5.9244,-5.6083,-5.4643,-5.6158,-5.5088,-5.5189,-5.7167,-5.9309,-6.1298,-6.3056,-6.7296,-6.9376,-6.8907,-7.2089,-7.3383,-7.2823,-7.368,-7.3644,-7.2736,-7.3249,-7.3383,-7.3193,-7.3013,-7.3402,-7.418,-7.3971,-7.43,-7.4869,-7.4869,-7.4988,-7.5228,-7.5736,-7.5916,-7.6006,-8.4027,-8.2527,-8.178,-8.6147,-8.6855,-8.7044,-8.7776,-9.0977,-9.3342,-9.3268,-9.1944,-9.0899,-9.0654,-9.0638,-9.0908,-9.1566,-9.1027,-9.0399,-8.9741,-8.9681,-8.9082,-8.7796,-8.7048,-8.606,-8.4743,-8.214,-7.9477,-7.6784,-7.2537,-6.8738,-6.5497,-6.3209,-6.3357,-6.5586,-6.6241,-6.8542,-7.1816,-7.1876,-7.3043,-7.4899,-7.5617,-7.5916,-7.5916,-7.5916,-7.5916,-7.5826,-7.5138,-7.4869,-7.4869,-7.4869,-7.4869,-7.4899,-7.4899,-7.5377,-7.6036,-7.6664,-7.7322,-7.7981,-7.8609,-7.8789,-7.8789,-7.8789,-7.8789,-7.8789,-7.8789,-7.828,-7.7442,-7.6155,-7.5347,-7.445,-7.3133,-7.1787,-7.026,-6.8286,-6.6604,-6.4606,-6.1889,-6.329,0.0,-5.9874,-6.0431,-6.0805,-6.0116,-5.7873,-5.6736,-5.7532,-5.8602,-5.9175,-5.908,-6.1609,-6.41,-6.6251,-6.9583,-7.1593,-7.2221,-7.3046,-7.356,-7.3751,-7.4459,-7.4797,-7.4733,-7.4733,-7.445,-7.3851,-7.3193,-7.3672,-7.4809,-7.4151,-7.43,-7.4869,-7.4869,-7.5288,-7.5886,-7.5916,-7.5916,-7.6006,-8.711,-8.7645,-8.8222,-9.1153,-9.2021,-9.2218,-9.189,-9.4121,-9.4988,-9.2275,-9.2298,-9.1989,-9.0349,-9.0033,-9.0249,-9.0878,-9.0339,-8.989,-8.9681,-8.8813,-8.8155,-8.7736,-8.7048,-8.606,-8.4743,-8.3008,-8.0823,-7.816,-7.4355,-7.0789,-6.7578,-6.7078,-6.7501,-6.8638,-6.9714,-7.1123,-7.2654,-7.3552,-7.4569,-7.5557,-7.5318,-7.5497,-7.5856,-7.5377,-7.5198,-7.5168,-7.4958,-7.4869,-7.4869,-7.4869,-7.4869,-7.4869,-7.4869,-7.5647,-7.6664,-7.7322,-7.7981,-7.8519,-7.8729,-7.8789,-7.8789,-7.8789,-7.8789,-7.8789,-7.8789,-7.828,-7.7562,-7.6724,-7.6036,-7.5168,-7.3821,-7.2864,-7.1571,-6.9376,-6.8426,-6.6997,-6.4245,0.0,-6.4275,-6.2682,-6.2074,-6.1938,-6.2375,-5.9891,-5.8654,-5.9529,-5.9668,-5.9396,-5.8592,-6.1322,-6.3507,-6.4601,-6.7951,-7.0006,-7.0675,-7.2256,-7.3308,-7.3859,-7.41,-7.4432,-7.4855,-7.4402,-7.4315,-7.454,-7.433,-7.448,-7.4869,-7.4659,-7.4689,-7.4869,-7.4869,-7.5018,-7.5318,-7.6215,-7.6544,-7.6694,-8.9155,-9.0204,-9.1132,-9.3053,-9.3749,-9.4021,-9.3791,-9.5145,-9.5374,-9.2954,-9.2654,-9.2195,-9.0993,-8.9694,-8.9507,-9.1031,-9.027,-8.9978,-9.0567,-8.9038,-8.7975,-8.7706,-8.6808,-8.5791,-8.4743,-8.3427,-8.1691,-7.9537,-7.5528,-7.2417,-7.0181,-6.9867,-7.0201,-7.1128,-7.2176,-7.3013,-7.3702,-7.454,-7.5138,-7.5527,-7.5587,-7.5587,-7.5527,-7.5587,-7.5318,-7.4869,-7.4869,-7.4869,-7.4869,-7.4869,-7.4869,-7.4869,-7.4869,-7.5766,-7.6904,-7.7322,-7.8071,-7.8789,-7.8789,-7.8789,-7.8789,-7.8789,-7.8789,-7.8789,-7.8789,-7.846,-7.7921,-7.7023,-7.6514,-7.5766,-7.418,-7.3343,-7.2349,-7.0658,-6.9594,-6.8256,-6.6071,-6.5772,-6.5293,0.0,-6.373,-6.3795,-6.436,-6.2565,-6.1515,-6.1945,-6.2128,-6.1716,-6.0677,-6.3,-6.4884,-6.6043,-6.8939,-7.0643,-7.1036,-7.275,-7.3708,-7.3881,-7.4151,-7.448,-7.4869,-7.445,-7.448,-7.4869,-7.4869,-7.4869,-7.4869,-7.4869,-7.4869,-7.4869,-7.4869,-7.5168,-7.5707,-7.6544,-7.6993,-7.7352,-9.0237,-9.0536,-9.0999,-9.249,-9.2755,-9.302,-9.3749,-9.4511,-9.4975,-9.4908,-9.2927,-9.1728,-9.2288,-8.9744,-8.9104,-9.2056,-9.0577,-9.0204,-9.1709,-8.9731,-8.8245,-8.7586,-8.6359,-8.5372,-8.4654,-8.3367,-8.1991,-8.0584,-7.6215,-7.3762,-7.3103,-7.1787,-7.1846,-7.3073,-7.3702,-7.43,-7.4869,-7.4929,-7.4958,-7.5108,-7.6305,-7.6066,-7.5138,-7.6275,-7.5946,-7.4869,-7.4869,-7.4899,-7.4929,-7.4899,-7.4899,-7.4958,-7.4958,-7.5826,-7.6814,-7.6814,-7.7771,-7.8789,-7.8789,-7.8789,-7.8789,-7.8789,-7.8789,-7.8789,-7.8789,-7.8789,-7.843,-7.7113,-7.6814,-7.6245,-7.433,-7.3402,-7.2684,-7.1996,-7.026,-6.8525,-6.7178,-6.6999,-6.6311,-6.4425,-6.5353,-6.6161,-6.6221,-6.5622,-6.5083,-6.4716,-6.5581,-6.573,-6.4744,-6.6138,-6.7887,-6.9847,-7.1845,-7.2913,-7.294,-7.4249,-7.4553,-7.3971,-7.4569,-7.4869,-7.4869,-7.4869,-7.4869,-7.4869,-7.4869,-7.4869,-7.4869,-7.4929,-7.4958,-7.4958,-7.4988,-7.5766,-7.6844,-7.6874,-7.7293,-7.7921,-9.0237,-9.0536,-9.1165,-9.3186,-9.3517,-9.3782,-9.4511,-9.5273,-9.5538,-9.4975,-9.388,-9.3165,-9.3326,-9.1583,-9.1418,-9.3906,-9.0451,-8.8316,-8.8687,-8.7766,-8.6868,-8.621,-8.5851,-8.5162,-8.3995,-8.2679,-8.0853,-7.8519,-7.6904,-7.5826,-7.5168,-7.433,-7.4091,-7.442,-7.4569,-7.4719,-7.4899,-7.5437,-7.5946,-7.6365,-7.6185,-7.6215,-7.6305,-7.5617,-7.5138,-7.4869,-7.4869,-7.5228,-7.5587,-7.5048,-7.5228,-7.5647,-7.5647,-7.6185,-7.6814,-7.6814,-7.7771,-7.8789,-7.8789,-7.8789,-7.8789,-7.8789,-7.8789,-7.8789,-7.8789,-7.8789,-7.843,-7.7113,-7.6814,-7.6365,-7.4899,-7.3702,-7.2684,-7.1996,-7.026,-6.8525,-6.7178,-6.6999,-6.6819,-6.634,-6.6999,-6.7717,-6.8226,-6.7687,-6.706,-6.6462,-6.7092,-6.7304,-6.6824,-6.8751,-6.9926,-6.9989,-7.1405,-7.2601,-7.367,-7.4001,-7.4354,-7.4659,-7.4809,-7.4869,-7.4869,-7.4869,-7.4869,-7.4869,-7.4869,-7.4869,-7.4929,-7.5437,-7.5647,-7.5707,-7.6185,-7.6544,-7.6874,-7.7382,-7.7682,-7.7921,-9.0734,-9.0734,-9.0999,-9.2523,-9.2788,-9.2921,-9.3318,-9.4312,-9.4842,-9.4445,-9.3986,-9.3688,-9.3688,-9.2294,-9.1777,-9.3018,-9.1107,-9.0236,-9.1278,-8.9037,-8.7624,-8.726,-8.5641,-8.4474,-8.3756,-8.2439,-8.0794,-7.8729,-7.7741,-7.6963,-7.6305,-7.5647,-7.5168,-7.4869,-7.4869,-7.5048,-7.5377,-7.5736,-7.6275,-7.6814,-7.6784,-7.6784,-7.6754,-7.6036,-7.5766,-7.5736,-7.5437,-7.5766,-7.6275,-7.5886,-7.6006,-7.6335,-7.6335,-7.6754,-7.7293,-7.7293,-7.7981,-7.8789,-7.8789,-7.8789,-7.8789,-7.8789,-7.8789,-7.8789,-7.8789,-7.8789,-7.8519,-7.7502,-7.7023,-7.6514,-7.5527,-7.4001,-7.2684,-7.1996,-7.0132,-6.8489,-6.7567,-6.7324,-6.7381,-6.7867,-6.8734,-6.9572,-7.026,-6.9991,-6.9482,-6.8824,-6.925,-6.9406,-6.9045,-7.0968,-7.1593,-7.0697,-7.2032,-7.3163,-7.3881,-7.451,-7.4839,-7.4869,-7.5198,-7.5347,-7.5347,-7.5347,-7.5497,-7.5736,-7.5467,-7.5497,-7.5766,-7.5856,-7.6066,-7.6365,-7.6694,-7.7023,-7.7322,-7.7682,-7.8011,-7.831,-9.1331,-9.1099,-9.09,-9.1629,-9.1761,-9.1794,-9.1894,-9.3086,-9.3981,-9.3981,-9.4023,-9.4063,-9.4063,-9.2788,-9.1977,-9.1977,-9.2518,-9.3451,-9.4819,-9.1103,-8.8774,-8.8589,-8.5409,-8.3636,-8.3457,-8.217,-8.0883,-7.9656,-7.843,-7.7472,-7.6814,-7.6185,-7.5527,-7.4869,-7.4869,-7.5258,-7.5916,-7.6006,-7.6395,-7.7023,-7.7592,-7.7472,-7.6963,-7.6874,-7.6814,-7.6754,-7.6245,-7.6455,-7.6963,-7.6874,-7.6904,-7.6963,-7.6963,-7.7352,-7.7831,-7.7921,-7.834,-7.8789,-7.8789,-7.8789,-7.8789,-7.8789,-7.8789,-7.8789,-7.8789,-7.8789,-7.8609,-7.7951,-7.7293,-7.6634,-7.6006,-7.427,-7.2654,-7.1811,-6.9913,-6.8266,-6.7745,-6.7615,-6.7939,-6.8731,-7.0141,-7.1278,-7.1816,-7.1966,-7.1816,-7.1248,-7.1478,-7.1543,-7.1253,-7.2649,-7.2997,-7.1918,-7.3304,-7.4091,-7.421,-7.5347,-7.5647,-7.5168,-7.5766,-7.6036,-7.6036,-7.6036,-7.6335,-7.6784,-7.6275,-7.6335,-7.6784,-7.6365,-7.6514,-7.6993,-7.7083,-7.7472,-7.7951,-7.7951,-7.831,-7.8789,-9.143,-9.1496,-9.1662,-9.2391,-9.2523,-9.2722,-9.3351,-9.4179,-9.4743,-9.4743,-9.5243,-9.564,-9.564,-9.5408,-9.5276,-9.5276,-9.5374,-9.4203,-9.1223,-8.9262,-8.7635,-8.6527,-8.4684,-8.3217,-8.211,-8.0794,-7.9746,-7.8938,-7.819,-7.7472,-7.6814,-7.6185,-7.5527,-7.4869,-7.4869,-7.5258,-7.5946,-7.6455,-7.7053,-7.7652,-7.7771,-7.7741,-7.7592,-7.7053,-7.6814,-7.6814,-7.6724,-7.7113,-7.7562,-7.7023,-7.7203,-7.7652,-7.7652,-7.7741,-7.7921,-7.846,-7.8699,-7.8789,-7.8789,-7.8789,-7.8789,-7.8789,-7.8789,-7.8789,-7.8789,-7.8789,-7.8609,-7.7951,-7.7293,-7.6634,-7.6006,-7.427,-7.2372,-7.0855,-6.9422,-6.7905,-6.6151,-6.7311,-6.8329,-6.8196,-7.026,-7.1787,-7.1876,-7.2415,-7.2714,-7.2624,-7.2661,-7.2793,-7.3027,-7.3514,-7.3844,-7.3901,-7.4474,-7.5018,-7.5587,-7.5796,-7.6125,-7.6544,-7.6634,-7.6694,-7.6694,-7.6694,-7.6724,-7.6814,-7.6724,-7.6724,-7.6874,-7.7322,-7.7562,-7.7711,-7.828,-7.8549,-7.8639,-7.8639,-7.8699,-7.8789,-9.1529,-9.1596,-9.1695,-9.2026,-9.2093,-9.2192,-9.2556,-9.3583,-9.4312,-9.4312,-9.5306,-9.6001,-9.6001,-9.6001,-9.6001,-9.6001,-9.6001,-9.4947,-9.2303,-9.0735,-8.952,-8.8506,-8.5513,-8.2914,-8.0764,-8.0135,-7.9477,-7.8789,-7.8489,-7.8011,-7.7352,-7.7053,-7.6395,-7.5437,-7.5437,-7.5796,-7.6425,-7.6694,-7.7412,-7.834,-7.834,-7.834,-7.828,-7.7592,-7.7562,-7.7831,-7.7472,-7.7771,-7.828,-7.7981,-7.81,-7.834,-7.834,-7.834,-7.84,-7.8699,-7.8789,-7.8789,-7.8789,-7.8789,-7.8789,-7.8789,-7.8789,-7.8789,-7.8789,-7.8789,-7.8699,-7.84,-7.7801,-7.7173,-7.6514,-7.5078,-7.3335,-7.15,-7.023,-6.9006,-6.7588,-6.8326,-6.9099,-6.9542,-7.1248,-7.2565,-7.2924,-7.3582,-7.3971,-7.3971,-7.3971,-7.4039,-7.4211,-7.4376,-7.4668,-7.5164,-7.5357,-7.5587,-7.5916,-7.6574,-7.6904,-7.6814,-7.7203,-7.7352,-7.7352,-7.7352,-7.7562,-7.7861,-7.7502,-7.7562,-7.7891,-7.7831,-7.8011,-7.837,-7.8669,-7.8789,-7.8789,-7.8789,-7.8789,-7.8789,-9.1596,-9.1596,-9.1596,-9.1596,-9.1728,-9.1894,-9.2059,-9.3219,-9.4047,-9.4047,-9.5173,-9.5935,-9.577,-9.5902,-9.6001,-9.6001,-9.6001,-9.5438,-9.4146,-9.2843,-9.1497,-9.0028,-8.5811,-8.2479,-8.0315,-7.9802,-7.9327,-7.8789,-7.8789,-7.846,-7.7801,-7.7801,-7.7203,-7.6125,-7.6125,-7.6455,-7.7053,-7.7053,-7.7741,-7.8789,-7.8789,-7.8789,-7.8729,-7.822,-7.834,-7.8729,-7.822,-7.837,-7.8789,-7.8789,-7.8789,-7.8819,-7.8968,-7.9028,-7.9028,-7.9028,-7.8908,-7.8789,-7.8789,-7.8908,-7.9028,-7.9028,-7.8908,-7.8878,-7.9178,-7.8998,-7.8819,-7.8998,-7.837,-7.7622,-7.6933,-7.5766,-7.427,-7.2349,-7.11,-7.0171,-6.9445,-6.9521,-7.0022,-7.0973,-7.2325,-7.3343,-7.3851,-7.448,-7.4869,-7.4869,-7.4869,-7.4958,-7.5108,-7.5108,-7.5437,-7.6096,-7.6125,-7.6185,-7.6335,-7.7322,-7.7622,-7.7293,-7.7801,-7.8041,-7.8041,-7.8041,-7.831,-7.8759,-7.825,-7.831,-7.8759,-7.825,-7.834,-7.8789,-7.8789,-7.8789,-7.8789,-7.8789,-7.8789,-7.8789,-9.1596,-9.1596,-9.1596,-9.1596,-9.2159,-9.2821,-9.3517,-9.4312,-9.4809,-9.4809,-9.5505,-9.5736,-9.5074,-9.5604,-9.6001,-9.6001,-9.6001,-9.567,-9.4875,-9.4115,-9.2086,-8.8636,-8.4368,-8.1994,-8.1761,-7.9867,-7.8849,-7.8789,-7.8789,-7.846,-7.7801,-7.7801,-7.7442,-7.6754,-7.6754,-7.7113,-7.7741,-7.7741,-7.813,-7.8789,-7.8789,-7.8789,-7.8789,-7.8729,-7.8759,-7.8789,-7.8729,-7.8759,-7.8789,-7.8789,-7.8789,-7.8908,-7.9537,-7.9746,-7.9746,-7.9746,-7.9297,-7.8789,-7.8789,-7.9267,-7.9746,-7.9746,-7.9267,-7.9118,-8.0375,-7.9686,-7.8968,-7.9627,-7.8699,-7.7622,-7.6933,-7.5766,-7.4352,-7.267,-7.1228,-7.0367,-7.0314,-7.0278,-7.0677,-7.1727,-7.3013,-7.3851,-7.3881,-7.448,-7.4869,-7.4869,-7.4869,-7.5138,-7.5796,-7.5826,-7.6125,-7.6724,-7.6754,-7.7053,-7.7652,-7.7771,-7.81,-7.8639,-7.8699,-7.8729,-7.8729,-7.8729,-7.8729,-7.8789,-7.8729,-7.8729,-7.8789,-7.8729,-7.8759,-7.8789,-7.8789,-7.8789,-7.8789,-7.8789,-7.8789,-7.8789,-9.1496,-9.1596,-9.1596,-9.1596,-9.2192,-9.2788,-9.3053,-9.3749,-9.4378,-9.4842,-9.514,-9.5405,-9.5571,-9.5836,-9.6001,-9.6001,-9.5571,-9.5008,-9.4279,-9.3517,-9.149,-8.7826,-8.4835,-8.266,-8.1294,-7.9637,-7.8789,-7.8789,-7.8789,-7.8669,-7.843,-7.843,-7.8071,-7.7442,-7.7442,-7.7562,-7.7801,-7.7801,-7.819,-7.8789,-7.8789,-7.8789,-7.8789,-7.8789,-7.8789,-7.8789,-7.8789,-7.8789,-7.8789,-7.8789,-7.8789,-7.8908,-7.9597,-7.9507,-7.9267,-7.9686,-8.0225,-8.0554,-8.0135,-7.9926,-7.9806,-7.9806,-7.9926,-8.0165,-8.0674,-8.0075,-7.9507,-7.9776,-7.9058,-7.822,-7.7562,-7.6694,-7.5577,-7.4224,-7.3171,-7.2425,-7.2007,-7.1947,-7.2252,-7.3043,-7.3582,-7.4061,-7.445,-7.4719,-7.4869,-7.4869,-7.4869,-7.5168,-7.5856,-7.6664,-7.7203,-7.7442,-7.7831,-7.7981,-7.7801,-7.822,-7.8549,-7.8789,-7.8789,-7.8789,-7.8789,-7.8789,-7.8789,-7.8789,-7.8789,-7.8789,-7.8789,-7.8789,-7.8789,-7.8789,-7.8789,-7.8789,-7.8789,-7.8789,-7.8789,-7.8789,-9.143,-9.1596,-9.1662,-9.1894,-9.2358,-9.2854,-9.3318,-9.3815,-9.4312,-9.4842,-9.5107,-9.5273,-9.5306,-9.5736,-9.5902,-9.567,-9.5405,-9.4941,-9.4179,-9.302,-9.1054,-8.8073,-8.5664,-8.3493,-8.1615,-8.016,-7.9261,-7.8789,-7.8789,-7.8789,-7.8789,-7.8789,-7.8549,-7.81,-7.81,-7.81,-7.81,-7.81,-7.837,-7.8789,-7.8789,-7.8789,-7.8789,-7.8789,-7.8789,-7.8789,-7.8789,-7.8789,-7.8789,-7.8789,-7.8938,-7.9238,-7.9926,-7.9956,-7.9866,-8.0554,-8.1093,-8.1422,-8.1183,-8.0764,-8.0434,-8.0434,-8.0614,-8.0913,-8.1332,-8.0764,-8.0195,-8.0405,-7.9746,-7.8908,-7.825,-7.7592,-7.6784,-7.5677,-7.4958,-7.442,-7.418,-7.3971,-7.4091,-7.4749,-7.4809,-7.4988,-7.5437,-7.5497,-7.5497,-7.5497,-7.5497,-7.5796,-7.6455,-7.7532,-7.81,-7.81,-7.8549,-7.8579,-7.813,-7.8579,-7.8789,-7.8789,-7.8789,-7.8789,-7.8789,-7.8789,-7.8789,-7.8789,-7.8789,-7.8789,-7.8789,-7.8789,-7.8789,-7.8789,-7.8789,-7.8789,-7.8789,-7.8789,-7.8789,-7.8789,-9.143,-9.1596,-9.1828,-9.2556,-9.2689,-9.3186,-9.4676,-9.4908,-9.4908,-9.4875,-9.5538,-9.5438,-9.3948,-9.5107,-9.5703,-9.4975,-9.5571,-9.567,-9.4941,-9.2788,-9.0933,-8.9475,-8.6666,-8.4442,-8.3085,-8.1647,-8.0261,-7.8789,-7.8819,-7.8789,-7.8789,-7.8789,-7.8789,-7.8789,-7.8789,-7.8789,-7.8789,-7.8789,-7.8789,-7.8789,-7.8789,-7.8789,-7.8789,-7.8789,-7.8819,-7.8819,-7.8819,-7.8819,-7.8819,-7.8819,-7.9267,-7.9926,-8.0584,-8.1272,-8.1931,-8.2559,-8.1841,-8.0973,-8.1631,-8.1811,-8.1811,-8.1781,-8.1302,-8.1153,-8.2469,-8.1751,-8.1003,-8.1631,-8.0734,-7.9627,-7.8938,-7.825,-7.7592,-7.6933,-7.6305,-7.6125,-7.6754,-7.6305,-7.6125,-7.6754,-7.6814,-7.6814,-7.6814,-7.6814,-7.6814,-7.6814,-7.6814,-7.7113,-7.7771,-7.843,-7.8789,-7.8789,-7.8789,-7.8789,-7.8789,-7.8789,-7.8789,-7.8789,-7.8789,-7.8789,-7.8789,-7.8789,-7.8789,-7.8789,-7.8789,-7.8789,-7.8789,-7.8789,-7.8789,-7.8789,-7.8789,-7.8789,-7.8789,-7.8789,-7.8789,-7.8789,-9.1331,-9.1596,-9.1828,-9.2556,-9.3119,-9.3616,-9.4047,-9.4577,-9.471,-9.4179,-9.4312,-9.4279,-9.3848,-9.4643,-9.514,-9.4908,-9.5107,-9.471,-9.3418,-9.1264,-9.0105,-9.0204,-8.7941,-8.6468,-8.6018,-8.3594,-8.22,-8.1736,-8.0719,-7.9956,-7.9507,-7.9507,-7.9267,-7.8789,-7.8789,-7.8789,-7.8789,-7.8789,-7.8789,-7.8819,-7.9327,-7.9507,-7.9567,-8.0016,-8.0195,-8.0195,-8.0195,-8.0195,-8.0195,-8.0195,-8.0345,-8.0554,-8.0734,-8.1871,-8.3008,-8.229,-8.2439,-8.2888,-8.3098,-8.3487,-8.3517,-8.211,-8.1991,-8.229,-8.2679,-8.211,-8.1542,-8.1751,-8.0734,-7.9746,-7.9537,-7.8579,-7.7741,-7.7562,-7.6963,-7.6604,-7.6814,-7.6664,-7.6634,-7.6814,-7.6814,-7.6814,-7.6814,-7.6814,-7.6814,-7.6814,-7.7263,-7.7592,-7.7801,-7.8878,-7.9507,-7.9507,-7.9956,-7.9986,-7.9507,-7.9028,-7.9028,-7.9507,-7.9028,-7.9058,-7.9507,-7.8998,-7.8789,-7.8789,-7.8789,-7.8789,-7.8789,-7.8789,-7.8789,-7.8789,-7.8789,-7.8789,-7.8789,-7.8789,-7.8789,-7.8789,-9.1297,-9.1596,-9.1894,-9.2954,-9.3252,-9.3649,-9.4544,-9.4809,-9.4842,-9.4676,-9.4676,-9.4544,-9.4279,-9.4908,-9.5206,-9.4941,-9.4643,-9.3948,-9.2755,-9.1165,-9.0469,-9.0933,-8.9689,-8.8436,-8.734,-8.5037,-8.3527,-8.2996,-8.1541,-8.0584,-8.0225,-8.0225,-7.9986,-7.9597,-7.9597,-7.9597,-7.9567,-7.9297,-7.9208,-7.9238,-7.9656,-7.9806,-7.9896,-8.0554,-8.0794,-8.0794,-8.0794,-8.0794,-8.0794,-8.0794,-8.0973,-8.1272,-8.1811,-8.2769,-8.3636,-8.3098,-8.3487,-8.4115,-8.4115,-8.4414,-8.4444,-8.3247,-8.3247,-8.3457,-8.3217,-8.2828,-8.2469,-8.223,-8.1332,-8.0584,-8.0584,-7.9716,-7.8998,-7.8998,-7.8669,-7.84,-7.84,-7.84,-7.831,-7.8041,-7.8011,-7.7891,-7.7622,-7.7592,-7.7592,-7.7592,-7.7981,-7.819,-7.819,-7.9238,-7.9806,-7.9806,-8.0464,-8.0614,-8.0225,-7.9776,-7.9537,-7.9417,-7.9267,-7.9417,-7.9806,-7.9387,-7.9208,-7.9208,-7.9208,-7.9058,-7.8789,-7.8789,-7.8789,-7.8789,-7.8789,-7.8789,-7.8789,-7.8789,-7.8789,-7.8789,-9.1297,-9.1596,-9.2059,-9.355,-9.3219,-9.3484,-9.5571,-9.5405,-9.5206,-9.5736,-9.5869,-9.5637,-9.4875,-9.5471,-9.5637,-9.4975,-9.4279,-9.3616,-9.2921,-9.2059,-9.1629,-9.1695,-9.1562,-9.0272,-8.7726,-8.6098,-8.465,-8.3393,-8.1795,-8.0943,-8.0883,-8.0883,-8.0853,-8.0794,-8.0794,-8.0794,-8.0764,-8.0165,-7.9896,-7.9926,-7.9956,-7.9986,-8.0075,-8.0794,-8.1063,-8.1063,-8.1123,-8.1153,-8.1153,-8.1153,-8.1572,-8.232,-8.3457,-8.3846,-8.4025,-8.4564,-8.4743,-8.4803,-8.4803,-8.4833,-8.4893,-8.4893,-8.4893,-8.4714,-8.3995,-8.3816,-8.3636,-8.2978,-8.232,-8.1841,-8.1781,-8.1242,-8.0794,-8.0794,-8.0794,-8.0794,-8.0794,-8.0794,-8.0584,-7.9986,-7.9866,-7.9567,-7.8938,-7.8819,-7.8789,-7.8789,-7.8849,-7.8878,-7.8878,-7.9597,-7.9986,-7.9986,-8.0644,-8.0943,-8.0883,-8.0943,-8.0345,-7.9058,-7.9627,-7.9926,-7.9986,-7.9866,-7.9866,-7.9896,-7.9836,-7.9447,-7.8878,-7.8878,-7.8849,-7.8789,-7.8789,-7.8789,-7.8789,-7.8789,-7.8789,-7.8789,-9.1397,-9.1596,-9.2059,-9.355,-9.3649,-9.3914,-9.4975,-9.5505,-9.5405,-9.4411,-9.4776,-9.4842,-9.4113,-9.471,-9.5074,-9.4908,-9.4743,-9.4577,-9.4411,-9.2623,-9.1828,-9.2424,-9.1364,-9.0743,-9.0691,-8.8102,-8.6579,-8.6302,-8.3642,-8.208,-8.1572,-8.1572,-8.1302,-8.0794,-8.0794,-8.0794,-8.0794,-8.0644,-8.0584,-8.0644,-8.1153,-8.1362,-8.1482,-8.2649,-8.3098,-8.3158,-8.3666,-8.3846,-8.3846,-8.3846,-8.4295,-8.4803,-8.4564,-8.4863,-8.5192,-8.4833,-8.5073,-8.5492,-8.5492,-8.5851,-8.624,-8.624,-8.624,-8.594,-8.4773,-8.4504,-8.4325,-8.3666,-8.3008,-8.238,-8.1871,-8.1242,-8.0794,-8.0794,-8.0794,-8.0794,-8.0794,-8.0794,-8.0764,-8.0614,-8.0135,-7.9746,-7.9627,-7.9118,-7.8789,-7.8789,-7.9297,-7.9597,-7.9597,-8.0734,-8.1362,-8.1362,-8.1991,-8.208,-8.1572,-8.208,-8.1931,-8.1123,-8.0764,-8.0853,-8.1332,-8.0285,-8.0105,-8.0554,-8.0045,-7.9746,-7.9597,-7.9597,-7.9267,-7.8789,-7.8789,-7.8789,-7.8789,-7.8789,-7.8789,-7.8789,-9.143,-9.1861,-9.2457,-9.3583,-9.408,-9.4577,-9.5306,-9.577,-9.5736,-9.4941,-9.5173,-9.5273,-9.4875,-9.5206,-9.5273,-9.4941,-9.4908,-9.4743,-9.4411,-9.3285,-9.2656,-9.2689,-9.196,-9.1728,-9.2093,-8.9899,-8.8263,-8.7159,-8.4521,-8.2888,-8.226,-8.226,-8.205,-8.1721,-8.1721,-8.1721,-8.1721,-8.1392,-8.1272,-8.1302,-8.1631,-8.1961,-8.235,-8.3367,-8.3936,-8.4235,-8.4594,-8.4714,-8.4714,-8.4714,-8.4953,-8.5222,-8.5192,-8.5432,-8.5701,-8.5671,-8.5881,-8.615,-8.615,-8.6419,-8.6689,-8.6689,-8.6689,-8.6419,-8.5402,-8.4923,-8.4534,-8.3876,-8.3217,-8.2649,-8.232,-8.1961,-8.1721,-8.1721,-8.1721,-8.1721,-8.1721,-8.1721,-8.1631,-8.1302,-8.0973,-8.0644,-8.0315,-7.9956,-7.9746,-7.9746,-8.0075,-8.0285,-8.0285,-8.1242,-8.1781,-8.1781,-8.2409,-8.2589,-8.226,-8.2589,-8.2589,-8.223,-8.1572,-8.1452,-8.1751,-8.1063,-8.0943,-8.1242,-8.0913,-8.0405,-7.9806,-7.9806,-7.9417,-7.8819,-7.9148,-7.9088,-7.8819,-7.9148,-7.9058,-7.8789,-9.1463,-9.2192,-9.2888,-9.3484,-9.4312,-9.5107,-9.5736,-9.5935,-9.6001,-9.6001,-9.6001,-9.6001,-9.6001,-9.6001,-9.577,-9.514,-9.5074,-9.4842,-9.4213,-9.4047,-9.3716,-9.3086,-9.2954,-9.2888,-9.2888,-9.1534,-8.9778,-8.7538,-8.5274,-8.3731,-8.2918,-8.2918,-8.2858,-8.2769,-8.3008,-8.2978,-8.2814,-8.2409,-8.214,-8.1961,-8.22,-8.2529,-8.3008,-8.3786,-8.4414,-8.4893,-8.5013,-8.5043,-8.5043,-8.5043,-8.5043,-8.5132,-8.5701,-8.5851,-8.597,-8.6509,-8.6689,-8.6689,-8.6689,-8.6748,-8.6808,-8.6718,-8.6778,-8.6689,-8.6,-8.5432,-8.4833,-8.4055,-8.3547,-8.3158,-8.2904,-8.2948,-8.3068,-8.2948,-8.2918,-8.2918,-8.2918,-8.2828,-8.2589,-8.217,-8.211,-8.1811,-8.1033,-8.0973,-8.0913,-8.0823,-8.0913,-8.0973,-8.0973,-8.1601,-8.1961,-8.1961,-8.2469,-8.2844,-8.2844,-8.2844,-8.2844,-8.2814,-8.22,-8.1961,-8.1931,-8.1841,-8.1841,-8.1931,-8.1841,-8.1153,-8.0135,-8.0045,-7.9597,-7.9028,-7.9597,-7.9477,-7.9058,-7.9746,-7.9567,-7.8998,-9.1562,-9.2192,-9.2722,-9.2821,-9.3981,-9.4941,-9.5041,-9.5604,-9.6001,-9.6001,-9.6001,-9.6001,-9.6001,-9.6001,-9.5968,-9.5869,-9.5869,-9.5803,-9.5703,-9.5107,-9.471,-9.461,-9.3981,-9.3649,-9.3649,-9.2774,-9.1188,-8.9023,-8.6835,-8.5042,-8.3606,-8.3606,-8.3307,-8.2874,-8.3936,-8.3816,-8.2828,-8.3876,-8.3666,-8.2739,-8.3876,-8.4025,-8.3726,-8.4953,-8.5492,-8.5641,-8.621,-8.6419,-8.6419,-8.6419,-8.6419,-8.6419,-8.6509,-8.6539,-8.6569,-8.6659,-8.6689,-8.6689,-8.6689,-8.7107,-8.7437,-8.6808,-8.7137,-8.7377,-8.6689,-8.6479,-8.606,-8.4833,-8.4953,-8.4773,-8.3068,-8.3696,-8.4265,-8.3696,-8.3606,-8.3606,-8.3606,-8.3128,-8.2948,-8.3427,-8.3457,-8.2978,-8.1751,-8.1631,-8.1422,-8.0823,-8.1332,-8.1631,-8.1631,-8.226,-8.2619,-8.2619,-8.2709,-8.2844,-8.2844,-8.2844,-8.2844,-8.2844,-8.2679,-8.2619,-8.2619,-8.205,-8.208,-8.2589,-8.202,-8.1691,-8.1482,-8.0883,-8.0285,-7.9686,-7.9776,-7.9746,-7.9746,-8.0434,-8.0255,-7.9746,-9.1596,-9.2192,-9.2821,-9.3219,-9.4179,-9.5041,-9.5438,-9.5803,-9.6001,-9.6001,-9.6001,-9.6001,-9.6001,-9.6001,-9.6001,-9.6001,-9.6001,-9.6001,-9.6001,-9.5703,-9.5339,-9.4908,-9.4577,-9.4411,-9.4411,-9.4091,-9.2719,-9.0445,-8.8233,-8.6137,-8.4295,-8.4295,-8.4115,-8.3876,-8.4444,-8.4384,-8.3876,-8.4474,-8.4384,-8.3906,-8.4474,-8.4773,-8.4893,-8.5462,-8.591,-8.627,-8.6569,-8.6689,-8.6689,-8.6689,-8.6689,-8.6689,-8.6689,-8.6689,-8.6689,-8.6689,-8.6689,-8.6748,-8.7137,-8.7197,-8.7137,-8.7227,-8.7197,-8.7048,-8.6748,-8.6988,-8.6868,-8.5551,-8.5192,-8.4893,-8.4025,-8.4325,-8.4624,-8.4325,-8.4295,-8.4145,-8.3786,-8.3487,-8.3277,-8.3217,-8.3187,-8.2978,-8.238,-8.232,-8.22,-8.1931,-8.217,-8.232,-8.232,-8.2589,-8.2844,-8.2844,-8.3128,-8.3307,-8.3307,-8.3307,-8.3307,-8.3307,-8.2948,-8.2844,-8.2814,-8.2469,-8.2499,-8.2739,-8.2469,-8.211,-8.1751,-8.1452,-8.0943,-8.0405,-8.0764,-8.0913,-8.0913,-8.0823,-8.0614,-8.0405]},{"header":{"parameterUnit":"m.s-1","parameterCategory":1,"la1":30.6,"la2":28.766,"lo1":-90.7593,"lo2":-88.6598,"dy":0.0162,"dx":0.0183,"nx":116,"ny":114,"refTime":"2024-04-07T18:00:00:Z","depth":0,"parameterNumber":3,"parameterNumberName":"V-component_of_WINDS"},"data":[0.0,0.0,0.0,0.0,0.0,0.0,0.0,0.0,0.0,0.0,0.0,0.0,0.0,0.0,0.0,0.0,0.0,0.0,0.0,0.0,0.0,0.0,0.0,0.0,0.0,0.0,0.0,0.0,0.0,0.0,0.0,0.0,0.0,0.0,0.0,0.0,0.0,0.0,0.0,0.0,0.0,0.0,0.0,0.0,0.0,0.0,0.0,0.0,0.0,0.0,0.0,0.0,0.0,0.0,0.0,0.0,0.0,0.0,0.0,0.0,0.0,0.0,0.0,0.0,0.0,0.0,0.0,0.0,0.0,0.0,0.0,0.0,0.0,0.0,0.0,0.0,0.0,0.0,0.0,0.0,0.0,0.0,0.0,0.0,0.0,0.0,0.0,0.0,0.0,0.0,0.0,0.0,0.0,0.0,0.0,0.0,0.0,0.0,0.0,0.0,0.0,0.0,0.0,0.0,0.0,0.0,0.0,0.0,0.0,0.0,0.0,0.0,0.0,0.0,0.0,0.0,0.0,0.0,0.0,0.0,0.0,0.0,0.0,0.0,0.0,0.0,0.0,0.0,0.0,0.0,0.0,0.0,0.0,0.0,0.0,0.0,0.0,0.0,0.0,0.0,0.0,0.0,0.0,0.0,0.0,0.0,0.0,0.0,0.0,0.0,0.0,0.0,0.0,0.0,0.0,0.0,0.0,0.0,0.0,0.0,0.0,0.0,0.0,0.0,0.0,0.0,0.0,0.0,0.0,0.0,0.0,0.0,0.0,0.0,0.0,0.0,0.0,0.0,0.0,0.0,0.0,0.0,0.0,0.0,0.0,0.0,0.0,0.0,0.0,0.0,0.0,0.0,0.0,0.0,0.0,0.0,0.0,0.0,0.0,0.0,0.0,0.0,0.0,0.0,0.0,0.0,0.0,0.0,0.0,0.0,0.0,0.0,0.0,0.0,0.0,0.0,0.0,0.0,0.0,0.0,0.0,0.0,0.0,0.0,0.0,0.0,0.0,0.0,0.0,0.0,0.0,0.0,0.0,0.0,0.0,0.0,0.0,0.0,0.0,0.0,0.0,0.0,0.0,0.0,0.0,0.0,0.0,0.0,0.0,0.0,0.0,0.0,0.0,0.0,0.0,0.0,0.0,0.0,0.0,0.0,0.0,0.0,0.0,0.0,0.0,0.0,0.0,0.0,0.0,0.0,0.0,0.0,0.0,0.0,0.0,0.0,0.0,0.0,0.0,0.0,0.0,0.0,0.0,0.0,0.0,0.0,0.0,0.0,0.0,0.0,0.0,0.0,0.0,0.0,0.0,0.0,0.0,0.0,0.0,0.0,0.0,0.0,0.0,0.0,0.0,0.0,0.0,0.0,0.0,0.0,0.0,0.0,0.0,0.0,0.0,0.0,0.0,0.0,0.0,0.0,0.0,0.0,0.0,0.0,0.0,0.0,0.0,0.0,0.0,0.0,0.0,0.0,0.0,0.0,0.0,0.0,0.0,0.0,0.0,0.0,0.0,0.0,0.0,0.0,0.0,0.0,0.0,0.0,0.0,0.0,0.0,0.0,0.0,0.0,0.0,0.0,0.0,0.0,0.0,0.0,0.0,0.0,0.0,0.0,0.0,0.0,0.0,0.0,0.0,0.0,0.0,0.0,0.0,0.0,0.0,0.0,0.0,0.0,0.0,0.0,0.0,0.0,0.0,0.0,0.0,0.0,0.0,0.0,0.0,0.0,0.0,0.0,0.0,0.0,0.0,0.0,0.0,0.0,0.0,0.0,0.0,0.0,0.0,0.0,0.0,0.0,0.0,0.0,0.0,0.0,0.0,0.0,0.0,0.0,0.0,0.0,0.0,0.0,0.0,0.0,0.0,0.0,0.0,0.0,0.0,0.0,0.0,0.0,0.0,0.0,0.0,0.0,0.0,0.0,0.0,0.0,0.0,0.0,0.0,0.0,0.0,0.0,0.0,0.0,0.0,0.0,0.0,0.0,0.0,0.0,0.0,0.0,0.0,0.0,0.0,0.0,0.0,0.0,0.0,0.0,0.0,0.0,0.0,0.0,0.0,0.0,0.0,0.0,0.0,0.0,0.0,0.0,0.0,0.0,0.0,0.0,0.0,0.0,0.0,0.0,0.0,0.0,0.0,0.0,0.0,0.0,0.0,0.0,0.0,0.0,0.0,0.0,0.0,0.0,0.0,0.0,0.0,0.0,0.0,0.0,0.0,0.0,0.0,0.0,0.0,0.0,0.0,0.0,0.0,0.0,0.0,0.0,0.0,0.0,0.0,0.0,0.0,0.0,0.0,0.0,0.0,0.0,0.0,0.0,0.0,0.0,0.0,0.0,0.0,0.0,0.0,0.0,0.0,0.0,0.0,0.0,0.0,0.0,0.0,0.0,0.0,0.0,0.0,0.0,0.0,0.0,0.0,0.0,0.0,0.0,0.0,0.0,0.0,0.0,0.0,0.0,0.0,0.0,0.0,0.0,0.0,0.0,0.0,0.0,0.0,0.0,0.0,0.0,0.0,0.0,0.0,0.0,0.0,0.0,0.0,0.0,0.0,0.0,0.0,0.0,0.0,0.0,0.0,0.0,0.0,0.0,0.0,0.0,0.0,0.0,0.0,0.0,0.0,0.0,0.0,0.0,0.0,0.0,0.0,0.0,0.0,0.0,0.0,0.0,0.0,0.0,0.0,0.0,0.0,0.0,0.0,0.0,0.0,0.0,0.0,0.0,0.0,0.0,0.0,0.0,0.0,0.0,0.0,0.0,0.0,0.0,0.0,0.0,0.0,0.0,0.0,0.0,0.0,0.0,0.0,0.0,0.0,0.0,0.0,0.0,0.0,0.0,0.0,0.0,0.0,0.0,0.0,0.0,0.0,0.0,0.0,0.0,0.0,0.0,0.0,0.0,0.0,0.0,0.0,0.0,0.0,0.0,0.0,0.0,0.0,0.0,0.0,0.0,0.0,0.0,0.0,0.0,0.0,0.0,0.0,0.0,0.0,0.0,0.0,0.0,0.0,0.0,0.0,0.0,0.0,0.0,0.0,0.0,0.0,0.0,0.0,0.0,0.0,0.0,0.0,0.0,0.0,0.0,0.0,0.0,0.0,0.0,0.0,0.0,0.0,0.0,0.0,0.0,0.0,0.0,0.0,0.0,0.0,0.0,0.0,0.0,0.0,0.0,0.0,0.0,0.0,0.0,0.0,0.0,0.0,0.0,0.0,0.0,0.0,0.0,0.0,0.0,0.0,0.0,0.0,0.0,0.0,0.0,0.0,0.0,0.0,0.0,0.0,0.0,0.0,0.0,0.0,0.0,0.0,0.0,0.0,0.0,0.0,0.0,0.0,0.0,0.0,0.0,0.0,0.0,0.0,0.0,0.0,0.0,0.0,0.0,0.0,0.0,0.0,0.0,0.0,0.0,0.0,0.0,0.0,0.0,0.0,0.0,0.0,0.0,0.0,0.0,0.0,0.0,0.0,0.0,0.0,0.0,0.0,0.0,0.0,0.0,0.0,0.0,0.0,0.0,0.0,0.0,0.0,0.0,0.0,0.0,0.0,0.0,0.0,0.0,0.0,0.0,0.0,0.0,0.0,0.0,0.0,0.0,0.0,0.0,0.0,0.0,0.0,0.0,0.0,0.0,0.0,0.0,0.0,0.0,0.0,0.0,0.0,0.0,0.0,0.0,0.0,0.0,0.0,0.0,0.0,0.0,0.0,0.0,0.0,0.0,0.0,0.0,0.0,0.0,0.0,0.0,0.0,0.0,0.0,0.0,0.0,0.0,0.0,0.0,0.0,0.0,0.0,0.0,0.0,0.0,0.0,0.0,0.0,0.0,0.0,0.0,0.0,0.0,0.0,0.0,0.0,0.0,0.0,0.0,0.0,0.0,0.0,0.0,0.0,0.0,0.0,0.0,0.0,0.0,0.0,0.0,0.0,0.0,0.0,0.0,0.0,0.0,0.0,0.0,0.0,0.0,0.0,0.0,0.0,0.0,0.0,0.0,0.0,0.0,0.0,0.0,0.0,0.0,0.0,0.0,0.0,0.0,0.0,0.0,0.0,0.0,0.0,0.0,0.0,0.0,0.0,0.0,0.0,0.0,0.0,0.0,0.0,0.0,0.0,0.0,0.0,0.0,0.0,0.0,0.0,0.0,0.0,0.0,0.0,0.0,0.0,0.0,0.0,0.0,0.0,0.0,0.0,0.0,0.0,0.0,0.0,0.0,0.0,0.0,0.0,0.0,0.0,0.0,0.0,0.0,0.0,0.0,0.0,0.0,0.0,0.0,0.0,0.0,0.0,0.0,0.0,0.0,0.0,0.0,0.0,0.0,0.0,0.0,0.0,0.0,0.0,0.0,0.0,0.0,0.0,0.0,0.0,0.0,0.0,0.0,0.0,0.0,0.0,0.0,0.0,0.0,0.0,0.0,0.0,0.0,0.0,0.0,0.0,0.0,0.0,0.0,0.0,0.0,0.0,0.0,0.0,0.0,0.0,0.0,0.0,0.0,0.0,0.0,0.0,0.0,0.0,0.0,0.0,0.0,0.0,0.0,0.0,0.0,0.0,0.0,0.0,0.0,0.0,0.0,0.0,0.0,0.0,0.0,0.0,0.0,0.0,0.0,0.0,0.0,0.0,0.0,0.0,0.0,0.0,0.0,0.0,0.0,0.0,0.0,0.0,0.0,0.0,0.0,0.0,0.0,0.0,0.0,0.0,0.0,0.0,0.0,0.0,0.0,0.0,0.0,0.0,0.0,0.0,0.0,0.0,0.0,0.0,0.0,0.0,0.0,0.0,0.0,0.0,0.0,0.0,0.0,0.0,0.0,0.0,0.0,0.0,0.0,0.0,0.0,0.0,0.0,0.0,0.0,0.0,0.0,0.0,0.0,0.0,0.0,0.0,0.0,0.0,0.0,0.0,0.0,0.0,0.0,0.0,0.0,0.0,0.0,0.0,0.0,0.0,0.0,0.0,0.0,0.0,0.0,0.0,0.0,0.0,0.0,0.0,0.0,0.0,0.0,0.0,0.0,0.0,0.0,0.0,0.0,0.0,0.0,0.0,0.0,0.0,0.0,0.0,0.0,0.0,0.0,0.0,0.0,0.0,0.0,0.0,0.0,0.0,0.0,0.0,0.0,0.0,0.0,0.0,0.0,0.0,0.0,0.0,0.0,0.0,0.0,0.0,0.0,0.0,0.0,0.0,0.0,0.0,0.0,0.0,0.0,0.0,0.0,0.0,0.0,0.0,0.0,0.0,0.0,0.0,0.0,0.0,0.0,0.0,0.0,0.0,0.0,0.0,0.0,0.0,0.0,0.0,0.0,0.0,0.0,0.0,0.0,0.0,0.0,0.0,0.0,0.0,0.0,0.0,0.0,0.0,0.0,0.0,0.0,0.0,0.0,0.0,0.0,0.0,0.0,0.0,0.0,0.0,0.0,0.0,0.0,0.0,0.0,0.0,0.0,0.0,0.0,0.0,0.0,0.0,0.0,0.0,0.0,0.0,0.0,0.0,0.0,0.0,0.0,0.0,0.0,0.0,0.0,0.0,0.0,0.0,0.0,0.0,0.0,0.0,0.0,0.0,0.0,0.0,0.0,0.0,0.0,0.0,0.0,0.0,0.0,0.0,0.0,0.0,0.0,0.0,0.0,0.0,0.0,0.0,0.0,0.0,0.0,0.0,0.0,0.0,0.0,0.0,0.0,0.0,0.0,0.0,0.0,0.0,0.0,0.0,0.0,0.0,0.0,0.0,0.0,0.0,0.0,0.0,0.0,0.0,0.0,0.0,0.0,0.0,0.0,0.0,0.0,0.0,0.0,0.0,0.0,0.0,0.0,0.0,0.0,0.0,0.0,0.0,0.0,0.0,0.0,0.0,0.0,0.0,0.0,0.0,0.0,0.0,0.0,0.0,0.0,0.0,0.0,0.0,0.0,0.0,0.0,0.0,0.0,0.0,0.0,0.0,0.0,0.0,0.0,0.0,0.0,0.0,0.0,0.0,0.0,0.0,0.0,0.0,0.0,0.0,0.0,0.0,0.0,0.0,0.0,0.0,0.0,0.0,0.0,0.0,0.0,0.0,0.0,0.0,0.0,0.0,0.0,0.0,0.0,4.0221,3.8397,0.0,0.0,0.0,0.0,0.0,0.0,0.0,0.0,0.0,0.0,0.0,0.0,0.0,0.0,0.0,0.0,0.0,0.0,0.0,0.0,0.0,0.0,0.0,3.5608,3.5749,3.5633,3.5511,3.5277,3.4878,3.4689,0.0,0.0,0.0,0.0,3.5152,3.649,3.6936,3.6488,3.8437,3.9982,4.1226,4.0227,3.8153,3.5224,0.0,0.0,0.0,0.0,0.0,0.0,0.0,0.0,0.0,0.0,0.0,0.0,0.0,0.0,0.0,0.0,0.0,0.0,0.0,0.0,0.0,0.0,0.0,0.0,0.0,0.0,0.0,0.0,0.0,0.0,0.0,0.0,0.0,0.0,0.0,0.0,0.0,0.0,0.0,0.0,0.0,0.0,0.0,0.0,0.0,0.0,0.0,0.0,0.0,0.0,0.0,0.0,0.0,0.0,0.0,0.0,0.0,0.0,0.0,0.0,0.0,0.0,0.0,0.0,0.0,0.0,0.0,0.0,0.0,0.0,4.4353,4.1563,0.0,0.0,0.0,0.0,0.0,0.0,0.0,0.0,0.0,0.0,0.0,0.0,0.0,0.0,0.0,0.0,0.0,0.0,0.0,0.0,0.0,3.4861,3.5994,3.611,3.6355,3.6962,3.6468,3.6071,3.6039,3.5641,3.5463,3.5571,3.5915,3.6113,3.6308,3.7943,3.8844,3.8956,4.1878,4.4372,4.6436,4.7568,4.5465,4.0556,3.7459,0.0,0.0,0.0,0.0,0.0,0.0,0.0,0.0,0.0,0.0,0.0,0.0,0.0,0.0,0.0,0.0,0.0,0.0,0.0,0.0,0.0,0.0,0.0,0.0,0.0,0.0,0.0,0.0,0.0,0.0,0.0,0.0,0.0,0.0,0.0,0.0,0.0,0.0,0.0,0.0,0.0,0.0,0.0,0.0,0.0,0.0,0.0,0.0,0.0,0.0,0.0,0.0,0.0,0.0,0.0,0.0,0.0,0.0,0.0,0.0,0.0,0.0,0.0,5.2438,5.3335,5.4288,5.4288,5.4576,5.4811,4.9468,4.6055,4.4219,4.3516,0.0,0.0,0.0,0.0,0.0,0.0,0.0,0.0,0.0,0.0,0.0,0.0,0.0,0.0,0.0,0.0,0.0,0.0,0.0,3.5537,3.6878,3.7774,3.8439,3.8734,3.8554,3.8238,3.7702,3.7563,3.7491,3.7535,3.7743,3.777,3.7672,3.8901,3.9825,4.036,4.6565,5.1003,5.3626,5.4738,5.4678,5.3373,4.5714,4.123,3.9279,0.0,0.0,0.0,0.0,0.0,0.0,0.0,0.0,0.0,0.0,0.0,0.0,0.0,0.0,0.0,0.0,0.0,0.0,0.0,0.0,0.0,0.0,0.0,0.0,0.0,0.0,0.0,0.0,0.0,0.0,0.0,0.0,0.0,0.0,0.0,0.0,0.0,0.0,0.0,0.0,0.0,3.9572,4.106,0.0,0.0,0.0,0.0,0.0,0.0,0.0,0.0,0.0,0.0,0.0,0.0,0.0,4.9987,5.0363,5.3436,5.5004,5.5057,5.7112,5.8011,5.7843,5.7843,5.8157,5.8646,5.702,0.0,5.0315,4.8463,0.0,0.0,0.0,0.0,0.0,0.0,0.0,0.0,0.0,0.0,0.0,0.0,0.0,0.0,0.0,0.0,0.0,0.0,0.0,0.0,0.0,4.0506,4.2138,4.2338,4.495,4.519,4.2026,4.2355,4.1537,3.8906,3.8613,3.8693,3.9066,4.1047,4.3907,4.7527,5.2348,5.5821,5.8001,5.9738,6.0314,5.9734,5.5418,5.0306,4.4814,4.2344,0.0,0.0,0.0,0.0,0.0,0.0,0.0,0.0,0.0,0.0,0.0,0.0,0.0,0.0,0.0,0.0,0.0,0.0,0.0,0.0,0.0,0.0,0.0,0.0,0.0,0.0,0.0,0.0,0.0,0.0,0.0,0.0,0.0,0.0,0.0,0.0,0.0,0.0,0.0,4.0467,4.349,4.3249,4.4306,4.4104,0.0,0.0,0.0,0.0,0.0,0.0,0.0,0.0,0.0,5.0998,5.3027,5.4264,5.4511,5.6637,5.8271,5.9555,6.0556,6.1477,6.2365,6.2365,6.2705,6.3201,6.2516,6.076,5.807,5.3433,5.0095,4.7566,0.0,0.0,0.0,0.0,4.68,4.7554,0.0,0.0,0.0,0.0,0.0,0.0,0.0,0.0,0.0,0.0,0.0,0.0,4.092,4.4129,4.656,4.7606,5.0715,5.0764,4.6429,4.6132,4.4405,4.0491,3.9972,4.0067,4.0641,4.3926,4.842,5.4253,5.7636,6.0248,6.2069,6.4178,6.4856,6.4254,6.3299,5.8402,5.068,4.8308,4.4419,3.9575,0.0,0.0,0.0,0.0,0.0,0.0,0.0,0.0,0.0,0.0,0.0,0.0,0.0,0.0,0.0,0.0,0.0,0.0,0.0,0.0,0.0,0.0,0.0,0.0,0.0,0.0,0.0,0.0,0.0,0.0,0.0,0.0,0.0,0.0,0.0,0.0,0.0,4.4327,4.7357,4.553,4.866,4.9343,0.0,0.0,0.0,0.0,0.0,0.0,5.1981,5.3252,5.4466,5.5887,5.7486,5.853,5.9131,5.9985,6.1565,6.3815,6.3607,6.4523,6.6259,6.6129,6.6286,6.6678,6.592,6.5031,6.3723,5.7729,5.3825,5.1398,4.9478,4.8379,4.7993,4.9529,5.0601,5.1593,0.0,0.0,0.0,0.0,0.0,0.0,0.0,0.0,0.0,0.0,0.0,4.1338,4.6169,4.8989,5.1743,5.4954,5.3741,5.1921,4.9861,4.6912,4.4478,4.2628,4.2468,4.2413,4.2486,4.7378,5.2514,5.7918,6.1587,6.4479,6.6689,6.8371,6.8874,6.8296,6.7719,6.3726,5.7148,5.2854,4.921,4.5824,4.0145,0.0,0.0,0.0,0.0,0.0,0.0,0.0,0.0,0.0,0.0,0.0,0.0,0.0,0.0,0.0,0.0,0.0,0.0,0.0,0.0,0.0,0.0,0.0,0.0,0.0,0.0,0.0,0.0,0.0,0.0,0.0,0.0,0.0,0.0,0.0,0.0,0.0,0.0,4.8469,5.367,0.0,0.0,0.0,0.0,4.9714,5.2197,5.4377,5.5788,5.7138,5.895,6.1239,6.2054,6.3249,6.4856,6.4931,6.5765,6.722,6.6708,6.726,6.8638,6.8115,6.788,6.7854,6.673,6.5867,6.4979,6.087,5.8096,5.6212,5.3911,5.2934,5.2811,5.1835,5.3727,5.6562,0.0,0.0,0.0,0.0,0.0,3.4737,3.5131,3.5529,3.6402,3.798,4.1141,4.4898,4.9181,5.4304,5.8437,6.0814,6.2542,6.1933,5.8419,5.4262,5.0578,4.7563,4.4532,4.4725,4.8534,5.2376,5.6887,6.2273,6.5377,6.7618,6.9125,7.043,7.0556,6.9677,6.9476,6.7668,6.453,6.0437,5.6286,5.1991,4.7485,4.3132,0.0,0.0,0.0,0.0,0.0,0.0,0.0,0.0,0.0,0.0,0.0,0.0,0.0,0.0,0.0,0.0,0.0,0.0,0.0,0.0,0.0,0.0,0.0,0.0,0.0,0.0,0.0,0.0,0.0,0.0,0.0,0.0,0.0,0.0,0.0,0.0,0.0,5.3929,5.904,0.0,5.536,5.4916,5.5386,5.6458,5.7843,5.969,6.207,6.3073,6.4184,6.5419,6.5805,6.6312,6.689,6.6564,6.6808,6.7587,6.7366,6.7634,6.8429,6.8472,6.8533,6.8481,6.7305,6.6678,6.6286,6.375,6.1241,5.8784,5.6846,5.5668,5.5024,5.5484,5.6523,5.7764,0.0,0.0,0.0,0.0,3.4767,3.5219,3.5467,3.6082,3.7316,3.9527,4.3729,4.834,5.3395,5.9555,6.4228,6.645,6.8159,6.697,6.1942,5.744,5.3107,4.9009,4.6743,4.8029,5.3452,5.6744,6.0763,6.5584,6.8196,6.9828,7.0556,7.1485,7.141,7.0531,7.0531,7.0029,6.8999,6.6237,6.2311,5.7562,5.325,4.8391,4.3355,0.0,0.0,0.0,0.0,0.0,0.0,0.0,0.0,0.0,0.0,0.0,0.0,0.0,0.0,0.0,0.0,0.0,0.0,0.0,0.0,0.0,0.0,0.0,0.0,0.0,0.0,0.0,0.0,0.0,0.0,0.0,0.0,0.0,0.0,5.4347,5.8974,5.7934,6.3337,6.5318,6.0692,6.0457,6.1215,6.2731,6.3596,6.4894,6.6971,6.7579,6.7883,6.8208,6.8322,6.8346,6.8346,6.7794,6.7678,6.8061,6.7835,6.8009,6.8455,6.868,6.8764,6.8711,6.7592,6.7096,6.6965,6.5449,6.3698,6.1764,5.9856,5.8392,5.7485,5.8141,5.8577,5.9016,0.0,0.0,0.0,3.4792,3.4969,3.5208,3.5386,3.6029,3.7738,4.1127,4.5799,5.1583,5.8801,6.4562,6.9024,7.1761,6.9953,6.6145,6.0186,5.5783,5.1281,4.6743,4.9036,5.2418,5.6675,6.0193,6.3954,6.7894,7.0054,7.1108,7.1158,7.1686,7.1636,7.1108,7.1108,7.0807,7.0255,6.9727,6.699,6.2496,5.7102,5.2435,4.8299,0.0,0.0,0.0,0.0,0.0,0.0,0.0,0.0,0.0,0.0,0.0,0.0,0.0,0.0,0.0,0.0,0.0,0.0,0.0,0.0,0.0,0.0,0.0,0.0,0.0,0.0,0.0,0.0,0.0,0.0,0.0,0.0,0.0,5.0478,5.775,6.2277,6.0605,6.6507,6.8926,6.4404,6.6495,6.8141,6.8141,6.926,6.9936,7.0065,7.007,6.9901,6.9451,6.9336,6.9426,6.9426,6.8764,6.8646,6.903,6.8466,6.8371,6.8764,6.8764,6.8764,6.8711,6.7592,6.7096,6.6991,6.5867,6.5371,6.5109,6.2888,6.1319,6.0248,5.962,5.989,6.0675,0.0,0.0,3.4232,3.4512,3.5009,3.5386,3.5588,3.6407,3.8434,4.2346,4.8205,5.4637,6.1711,6.7117,7.1309,7.4071,7.1209,6.7781,6.4592,5.8401,5.3306,4.9798,5.2201,5.5916,6.0736,6.3529,6.6707,7.0179,7.1184,7.1887,7.2288,7.2439,7.2213,7.1686,7.1686,7.1359,7.0857,7.0706,6.9476,6.7191,6.2457,5.8646,5.5294,0.0,0.0,0.0,0.0,0.0,0.0,0.0,0.0,0.0,0.0,0.0,0.0,0.0,0.0,0.0,0.0,0.0,0.0,0.0,0.0,0.0,0.0,0.0,0.0,0.0,0.0,0.0,0.0,0.0,0.0,0.0,5.1984,5.5863,5.7261,6.2276,6.649,6.8097,7.1139,7.2402,7.0677,7.0886,7.1105,7.1173,7.1464,7.1446,7.0796,7.0768,7.0306,6.9451,6.9049,6.8848,6.8848,6.7832,6.7627,6.801,6.7835,6.7925,6.8371,6.868,6.8764,6.8711,6.7619,6.7096,6.6991,6.5867,6.4743,6.3727,6.3386,6.3018,6.2496,6.0666,5.962,5.9289,0.0,3.3804,3.4032,3.4326,3.4888,3.5331,3.5426,3.6282,3.861,4.3384,4.9696,5.6392,6.321,6.8916,7.2514,7.3418,7.0135,6.6518,6.2841,5.7014,5.3562,5.3187,5.6055,5.9688,6.394,6.652,6.9024,7.1435,7.1987,7.2414,7.274,7.274,7.2565,7.2263,7.2263,7.1937,7.1435,7.1435,7.0932,6.9878,6.7066,6.3651,5.9879,5.7268,5.4541,5.1769,4.9084,4.873,4.8759,4.3801,0.0,0.0,0.0,0.0,0.0,0.0,0.0,0.0,0.0,0.0,0.0,0.0,0.0,0.0,0.0,0.0,0.0,0.0,0.0,0.0,0.0,0.0,0.0,0.0,5.6236,6.1215,6.4225,6.7028,6.9746,7.2232,7.3765,7.439,7.369,7.3469,7.3327,7.3211,7.2964,7.2496,7.1718,7.151,7.0856,6.9803,6.9476,6.9074,6.8622,6.792,6.7627,6.7608,6.7758,6.7925,6.8203,6.8597,6.8764,6.8711,6.7537,6.7122,6.6991,6.5606,6.4404,6.3467,0.0,0.0,0.0,0.0,5.9098,5.8638,0.0,3.363,3.3872,3.4206,3.4699,3.5086,3.5086,3.5902,3.8516,4.4171,5.0538,5.7004,6.3507,6.9476,7.2489,7.1108,6.7638,6.3143,5.7606,5.3975,5.3535,5.6826,6.0379,6.3686,6.6589,6.9275,7.1108,7.2087,7.264,7.2891,7.2816,7.2891,7.2916,7.2916,7.2916,7.2615,7.2087,7.2087,7.1786,7.1234,7.0732,6.7567,6.3113,6.2509,6.0441,5.7564,5.5418,5.4128,5.2796,4.8962,0.0,0.0,0.0,0.0,0.0,0.0,0.0,0.0,0.0,0.0,0.0,0.0,0.0,0.0,0.0,0.0,0.0,0.0,0.0,0.0,0.0,0.0,0.0,0.0,6.0047,6.5764,7.0528,7.1568,7.2362,7.3884,7.495,7.5143,7.431,7.4614,7.4707,7.4123,7.3775,7.324,7.2539,7.2116,0.0,0.0,0.0,6.9602,6.8622,6.8461,6.8054,6.7608,6.7869,6.8119,6.8203,6.8597,6.8738,6.869,6.7592,6.6988,6.6806,6.5292,6.4326,6.3804,6.357,6.1828,5.9506,5.885,5.8504,5.8452,0.0,3.3235,3.3329,3.448,3.4759,3.4921,3.5086,3.5902,3.8673,4.4656,5.0704,5.6548,6.1923,6.6739,6.9803,7.038,6.4764,5.9692,5.615,5.5995,5.7595,6.1172,6.4742,6.7718,7.0054,7.1987,7.3042,7.3268,7.382,7.387,7.3443,7.387,7.4096,7.4096,7.4096,7.377,7.3268,7.3268,7.2941,7.2389,7.2288,7.0437,6.7775,6.6729,6.5161,6.3279,6.1499,6.1644,6.1832,5.6191,5.506,5.5056,4.9962,4.5806,0.0,0.0,0.0,0.0,0.0,0.0,0.0,0.0,0.0,0.0,0.0,0.0,0.0,0.0,0.0,0.0,0.0,0.0,0.0,6.0563,6.5168,6.941,7.3048,7.395,7.4248,7.4156,7.4326,7.4403,7.4217,7.431,7.4149,7.3707,7.3519,7.2876,7.1494,7.1326,7.0732,6.9627,6.9175,6.8848,6.8622,6.7731,6.7414,6.7608,6.7247,0.0,6.8203,6.8287,6.8279,6.8115,6.741,6.6591,6.588,6.5395,6.4456,6.313,6.2248,6.0777,5.919,5.9247,5.87,5.807,0.0,3.319,3.3445,3.4432,3.459,3.4632,3.4729,3.5562,3.7774,4.2415,4.7163,5.1696,5.5717,5.9485,6.1626,6.1429,5.8116,5.5776,5.5096,5.7518,6.0942,6.5351,6.8083,7.0355,7.2288,7.3418,7.3996,7.3996,7.4272,7.4272,7.4021,7.4272,7.4423,7.4423,7.4423,7.4272,7.3996,7.3996,7.3996,7.3971,7.3694,7.2835,7.1704,7.0497,6.9372,6.8293,6.6898,6.6423,6.5874,6.1722,6.0161,5.9332,5.5836,5.2101,4.8498,0.0,0.0,0.0,0.0,0.0,0.0,0.0,0.0,0.0,0.0,0.0,0.0,0.0,0.0,4.9743,5.1585,0.0,6.0841,6.3669,6.7719,7.1291,7.3147,7.3976,7.4324,7.4208,7.4465,7.4362,7.3494,7.3682,7.3682,7.3118,7.3118,7.2545,7.1133,7.1334,7.0857,6.9386,6.9451,6.9175,6.8622,6.7794,6.7329,6.7288,6.699,6.7052,6.7502,6.7473,6.7441,6.7297,6.6417,6.5792,6.5213,6.4029,6.2997,6.189,6.0455,5.9558,5.909,5.8967,5.8401,5.7713,0.0,3.3333,3.3751,3.4194,3.4272,3.4272,3.4272,3.509,3.681,3.9904,4.3406,4.6692,4.9464,5.2253,5.3139,5.1235,5.2345,5.3653,5.4815,5.9376,6.4189,6.9175,7.1008,7.2565,7.4046,7.4498,7.4674,7.4573,7.4674,7.4724,7.4724,7.4849,7.49,7.49,7.5,7.4875,7.4598,7.4799,7.5101,7.5352,7.4925,7.4724,7.4573,7.337,7.2471,7.1661,7.074,6.8978,6.6898,6.5553,6.3432,6.1274,6.0817,5.8277,5.4784,5.0779,4.8978,0.0,0.0,0.0,0.0,0.0,0.0,0.0,0.0,4.6768,4.8259,5.0489,5.2585,5.4561,5.6446,6.0868,6.4758,6.6154,6.9689,7.2414,7.2966,7.3544,7.4062,7.4293,7.4597,7.4223,7.2885,7.3118,7.3118,7.274,7.274,7.2288,7.1309,7.156,7.1083,6.9652,6.9928,6.9677,6.8798,6.812,6.7568,6.7116,6.6783,6.6711,6.6771,6.666,6.6522,6.6451,6.5216,6.4653,6.4529,6.2462,6.1391,6.0835,5.9034,5.8599,5.8843,5.831,5.7778,5.7282,0.0,3.3522,3.3733,3.3742,3.381,3.381,3.381,3.4743,3.6555,3.9652,4.3022,4.5683,4.7305,4.9254,4.9228,4.6091,5.2562,5.662,5.6091,6.2501,6.8058,7.2087,7.387,7.5101,7.5753,7.5829,7.5628,7.5151,7.5628,7.5879,7.5879,7.6381,7.6607,7.6632,7.7109,7.6507,7.5201,7.618,7.6356,7.5954,7.5904,7.5879,7.5728,7.467,7.3262,7.1829,7.1201,6.836,6.5104,6.6837,6.4966,6.2259,6.4068,6.2235,5.8832,5.6352,5.2501,4.8309,4.5201,4.3581,4.2982,4.4042,4.5053,4.6742,0.0,5.2784,5.4627,5.7074,6.0108,6.269,6.3886,6.6276,6.8684,7.0815,7.2464,7.3594,7.4146,7.4699,7.4875,7.4469,7.3991,7.3463,7.2791,7.274,7.274,7.274,7.274,7.2464,7.1836,7.141,7.0857,7.0179,6.9752,6.9476,6.9351,6.8321,6.7769,6.7693,6.67,6.6369,6.6771,6.6298,6.6041,6.5836,6.4302,6.3618,6.3348,6.1865,6.118,6.0835,5.9034,5.8251,5.7925,5.7082,5.6775,5.6794,0.0,0.0,3.3368,3.3368,3.3556,3.3725,3.3725,3.4568,3.5684,3.6988,3.8817,4.0077,4.0297,4.1018,4.131,4.0893,4.7607,5.3106,5.6213,6.3381,6.9602,7.4448,7.5653,7.6607,7.7461,7.7185,7.6908,7.6682,7.6908,7.7009,7.7009,7.726,7.736,7.736,7.726,7.7009,7.6682,7.6808,7.7109,7.7461,7.7134,7.6632,7.5904,7.4473,7.2288,6.9752,6.8247,6.6162,0.0,6.357,6.2357,6.137,6.364,6.1546,5.7976,5.6937,5.3366,4.9495,4.7668,4.6654,4.6518,4.8096,4.9339,5.1155,5.5196,5.7075,5.8827,6.1542,6.4203,6.6513,6.7919,7.0003,7.1912,7.3167,7.4021,7.4523,7.4423,7.4623,7.3946,7.1786,7.2163,7.264,7.2715,7.274,7.274,7.274,7.274,7.2339,7.146,7.151,7.1008,6.9828,6.9878,6.9627,6.8974,6.8196,6.7643,6.7317,6.6488,6.6021,6.595,6.5395,6.4746,6.3969,6.335,6.3022,6.2906,6.1702,6.1198,6.0953,5.8883,5.8051,5.7775,5.6861,5.6305,5.5905,0.0,0.0,0.0,3.3111,3.3368,3.3513,3.3513,3.4223,3.4768,3.4768,3.5592,3.5977,3.5424,3.5466,3.6071,3.7352,4.2874,4.9022,5.5523,6.2421,6.9024,7.5327,7.6431,7.7385,7.849,7.8139,7.7938,7.7938,7.7938,7.8013,7.8164,7.8164,7.8088,7.7913,7.7687,7.7611,7.7687,7.7611,7.7938,7.8465,7.7913,7.7034,7.5778,7.3368,7.0204,6.6913,6.5224,6.3054,6.0763,5.9105,5.8006,5.7703,6.0094,5.8604,5.5945,5.5656,5.2722,4.9536,4.9314,4.9149,4.9686,5.2251,5.3808,5.5666,5.9282,6.1165,6.2822,6.5132,6.7392,6.9351,7.0681,7.2389,7.377,7.4322,7.4875,7.505,7.4498,7.4021,7.2665,6.9777,6.9953,7.0531,7.1083,7.1686,7.2188,7.2489,7.2364,7.1987,7.1334,7.141,7.0907,6.9702,6.9903,6.9577,6.8622,6.807,6.7518,6.6965,6.6388,6.5835,6.5258,6.458,6.3726,6.2822,6.2672,6.2521,6.2295,6.1341,6.0864,6.0537,5.8629,5.7901,5.775,5.6467,5.574,5.5361,0.0,0.0,0.0,0.0,3.3111,3.3111,3.3111,3.3589,3.3922,3.3922,3.4876,3.5399,3.5142,3.5567,3.6009,3.6334,4.0236,4.5961,5.367,5.9209,6.586,7.4096,7.6004,7.7385,7.849,7.8515,7.849,7.849,7.849,7.8792,7.9344,7.9344,7.9043,7.8515,7.9068,7.8716,7.7762,7.8842,7.9018,7.8465,7.7913,7.7034,7.5578,7.1234,6.6927,6.3356,6.3021,5.9306,5.4483,5.4338,5.2193,5.0032,5.2784,5.3507,5.3383,5.3111,5.0447,4.7981,4.9877,5.0106,5.0996,5.5622,5.8077,6.0035,6.2898,6.5208,6.7116,6.8246,7.0255,7.1962,7.2539,7.3167,7.377,7.4322,7.4875,7.505,7.4498,7.3016,7.1359,6.9652,6.7568,6.6513,6.7091,6.9074,7.0782,7.1861,7.1435,7.1359,7.1861,7.0882,7.028,7.0229,6.9727,6.92,6.8622,6.807,6.7518,6.6965,6.6388,6.5835,6.5258,6.4203,6.34,6.2797,6.227,6.1718,6.119,6.0588,6.0035,5.9433,5.8328,5.7901,5.7625,5.5487,5.4984,5.5239,0.0,0.0,0.0,0.0,0.0,3.2978,3.3283,3.3683,3.404,3.4445,3.482,0.0,0.0,0.0,0.0,0.0,3.9321,4.3601,4.8082,5.6971,6.3902,6.817,7.3845,7.7385,7.849,7.8515,7.9068,8.0198,7.9821,7.9921,8.0474,8.0474,8.0373,8.0173,8.0022,7.9921,7.9921,7.9921,7.9168,7.7888,7.6984,7.3614,6.8864,6.589,6.0981,5.5471,0.0,5.135,4.9499,4.8236,4.7412,4.736,4.9622,4.9264,4.7796,4.6398,4.8006,5.0248,5.0403,5.3036,5.6473,5.9506,6.1843,6.3977,6.6413,6.8095,6.915,6.9175,6.8572,6.7931,6.7491,6.6417,6.6666,7.0163,7.1212,7.2356,7.4577,7.4473,7.2414,6.7794,6.7869,6.7241,6.4505,6.6564,6.8848,7.0681,7.0983,7.1008,7.0832,7.0807,7.048,6.9752,6.9551,6.8999,6.8095,6.7894,6.7342,6.6388,6.5459,6.4756,6.4203,6.345,6.2998,6.2797,6.2245,6.1893,6.1667,6.0713,6.0211,5.9935,5.883,5.8202,5.7725,5.6219,5.5315,5.4687,0.0,0.0,0.0,0.0,0.0,0.0,0.0,0.0,0.0,0.0,0.0,0.0,0.0,0.0,0.0,0.0,0.0,4.0192,4.4111,5.1557,5.7424,6.1211,6.6728,7.0305,7.1435,7.1435,7.2163,7.3619,7.4674,7.5552,7.6331,7.8139,7.8867,7.8666,7.8515,7.8641,7.8917,7.8164,7.6505,7.4213,7.2703,6.8322,6.2303,5.9516,5.4879,0.0,4.6534,4.4985,4.4281,4.3363,4.3284,4.3851,4.5374,4.5129,4.4361,4.4311,4.7519,5.1507,5.3167,5.6923,6.0931,6.3726,6.5584,6.7191,6.8823,6.9602,6.9526,6.8171,6.6535,6.4915,6.3418,6.1977,6.2413,6.6891,6.8125,6.9847,7.3749,7.3318,7.1133,6.7191,6.7116,6.6262,6.3425,6.4756,6.689,6.9476,6.9828,7.0003,7.0255,7.0405,7.0179,6.9386,6.9361,6.8924,6.7819,6.7794,6.7141,6.581,6.4705,6.4028,6.3676,6.3099,6.2722,6.2496,6.1943,6.1592,6.1341,6.0412,6.001,5.9935,5.9031,5.8353,5.775,5.642,5.534,5.4436,0.0,0.0,0.0,0.0,0.0,0.0,0.0,0.0,0.0,0.0,0.0,0.0,0.0,0.0,0.0,0.0,0.0,0.0,4.1466,4.3579,4.7307,5.3383,5.5722,5.7349,5.8579,5.8579,5.9131,6.0261,6.3844,6.6201,6.7467,7.2119,7.405,7.3669,7.4197,7.4448,7.4372,7.3318,7.084,6.7425,6.5251,6.1188,5.6096,5.251,4.8772,4.5107,4.2736,4.0664,3.9216,4.0033,4.0095,3.9928,4.0568,4.1695,4.3432,4.6823,4.9215,5.2,5.8076,6.1552,6.4309,6.7831,6.91,6.9602,7.0079,6.9677,6.8334,6.5378,6.4121,6.2648,6.0047,5.9663,6.0935,6.4555,6.5767,6.7826,7.2194,7.0154,6.812,6.7945,6.566,6.4053,6.3877,6.3877,6.5208,6.8396,6.812,6.8522,7.0129,6.9752,6.9476,6.9361,6.9336,6.8899,6.7819,6.7719,6.6865,6.5233,6.4178,6.3676,6.3626,6.3073,6.2546,6.2019,6.1441,6.0864,6.0311,5.9734,5.9483,5.9433,5.893,5.8378,5.77,5.6018,5.5039,5.4486,0.0,0.0,0.0,0.0,0.0,0.0,0.0,0.0,0.0,0.0,0.0,0.0,0.0,0.0,0.0,0.0,0.0,0.0,3.5771,4.1021,4.4606,4.5894,5.1532,5.5183,5.6525,5.68,5.7747,5.9373,5.9815,6.0383,6.1129,6.2513,6.3094,6.3052,6.3367,6.35,6.35,6.3199,6.1647,5.9108,5.7949,5.413,4.9009,4.7018,4.3831,4.0399,4.0128,3.9449,3.8914,4.0005,4.1544,4.3182,4.3891,4.4985,4.6724,5.068,5.3914,5.7099,6.1487,6.5173,6.8182,6.9526,6.9953,6.9878,6.92,6.7317,6.4991,6.2396,5.8453,5.5042,5.3696,5.313,5.4996,6.1446,6.4384,6.7826,7.3724,7.387,7.2414,6.9928,6.9727,6.8848,6.6388,6.6513,6.7267,6.8522,6.812,6.8346,6.9577,6.9903,6.9853,6.9451,6.9049,6.8497,6.7819,6.6564,6.5509,6.468,6.4002,6.3475,6.3048,6.2898,6.2747,6.2571,6.1592,6.109,6.0889,5.991,5.9483,5.9433,5.893,5.8378,5.77,5.6018,5.5039,5.4436,0.0,0.0,0.0,0.0,0.0,0.0,0.0,0.0,0.0,0.0,0.0,0.0,0.0,0.0,0.0,0.0,0.0,0.0,0.0,3.7264,3.9459,3.9279,4.3481,4.6303,4.727,4.7244,4.8025,4.9651,5.0687,5.1656,5.2615,5.4702,5.5674,5.5674,5.607,5.6317,5.6365,5.5861,5.4113,0.0,0.0,4.6821,4.2398,4.1428,3.9744,3.7847,3.8111,3.9117,4.0635,4.2914,4.4715,4.6382,4.8397,4.9891,5.1762,5.6152,5.917,6.1939,6.5875,6.8874,7.1008,7.1585,7.0983,6.9652,6.7142,6.4831,6.1832,5.7061,5.3572,5.0728,4.8418,4.9153,5.2126,5.82,6.2189,6.6753,7.3197,7.372,7.2991,7.1861,7.1836,7.0983,6.8648,6.8698,6.8899,6.8974,6.8246,6.8296,6.9285,6.9727,6.9752,6.9451,6.915,6.8597,6.7819,6.5886,6.4781,6.4454,6.3676,6.3149,6.2822,6.2822,6.2697,6.2421,6.1542,6.104,6.0738,5.9859,5.9483,5.9433,5.893,5.8378,5.77,5.6018,5.5039,5.4411,0.0,0.0,0.0,0.0,0.0,0.0,0.0,0.0,0.0,0.0,3.3815,0.0,0.0,0.0,0.0,0.0,0.0,0.0,0.0,0.0,3.382,3.4049,3.4771,3.55,3.6088,3.5647,3.5989,3.7271,4.0145,4.2146,4.3344,4.7257,4.9099,4.9049,4.959,4.9856,4.9974,4.9078,4.7002,4.416,4.2778,4.019,3.7113,0.0,3.6711,3.6737,3.6934,3.9218,4.2886,4.7087,4.8935,5.0001,5.3451,5.5599,5.7773,6.244,6.4712,6.6516,7.0539,7.2339,7.3117,7.3418,7.1811,6.9074,6.4703,6.2019,5.8528,5.1169,4.9424,4.8112,4.457,4.7112,5.12,5.5814,6.0176,6.5318,7.1969,7.1987,7.1912,7.3619,7.2941,7.1937,7.0907,7.0757,7.048,6.9928,6.8798,6.8522,6.9311,6.9361,6.9401,6.9351,6.925,6.8723,6.7693,6.5559,6.4454,6.4454,6.335,6.2822,6.2822,6.2822,6.2571,6.2069,6.1441,6.0889,6.0387,5.9759,5.9483,5.9433,5.8855,5.8328,5.77,5.5917,5.4988,5.4411,0.0,0.0,0.0,0.0,0.0,0.0,0.0,0.0,0.0,0.0,3.3456,3.3529,0.0,0.0,0.0,0.0,0.0,0.0,0.0,0.0,0.0,3.2156,3.2759,3.3589,3.4723,3.4413,3.4727,3.5649,3.6013,3.6134,3.6211,3.717,3.7493,3.7245,3.759,3.7739,3.7762,3.783,3.747,3.6951,3.7016,3.6786,3.6289,3.6098,0.0,0.0,3.7528,3.9207,4.2032,4.9263,5.2979,5.5016,5.8152,6.0939,6.3744,6.7794,6.9501,7.064,7.3694,7.4649,7.4498,7.3192,7.1209,6.8221,6.3218,5.8404,5.3709,4.8912,4.593,4.413,4.3844,4.6294,5.0537,5.7147,6.0434,6.4972,7.3016,7.3142,7.3067,7.4749,7.4774,7.4397,7.377,7.3293,7.2765,7.2188,7.0706,6.9727,6.9451,6.9361,6.925,6.8773,6.8321,6.7769,6.7116,6.5358,6.4454,6.4454,6.335,6.2822,6.2822,6.2822,6.2772,6.2621,6.1617,6.1115,6.0939,5.991,5.9483,5.9382,5.8428,5.7976,5.765,5.5491,5.4637,5.4411,0.0,0.0,0.0,0.0,0.0,0.0,0.0,3.2606,3.2697,3.2697,3.3027,3.3195,3.2935,3.2642,3.2563,0.0,0.0,0.0,0.0,0.0,0.0,0.0,3.2572,3.3186,3.3832,3.3433,3.3552,3.4195,0.0,3.3312,3.3557,3.3427,3.3338,3.3341,3.3563,3.374,3.3872,3.4135,3.4354,3.4615,3.4675,3.4977,3.542,0.0,0.0,0.0,3.6384,3.8095,4.0898,4.6671,5.064,5.4461,6.1542,6.5283,6.7191,6.7718,7.0238,7.2791,7.2406,7.4129,7.5678,7.4021,7.0857,6.6488,6.0216,5.5021,5.0155,4.5283,4.3349,4.25,4.2158,4.5329,4.9302,5.3344,5.6796,6.1692,6.9451,7.033,7.1309,7.4448,7.5075,7.49,7.4071,7.3468,7.2791,7.1937,7.0857,7.0154,6.9878,6.9602,6.92,6.8648,6.8095,6.7543,6.699,6.5308,6.4454,6.4454,6.335,6.2822,6.2822,6.2822,6.2822,6.2772,6.1667,6.119,6.109,5.996,5.9483,5.9408,5.8629,5.8152,5.77,5.6043,5.5239,5.4838,0.0,0.0,0.0,0.0,0.0,0.0,3.2539,3.251,3.2535,3.2935,3.293,3.3,3.3291,3.2383,3.2133,0.0,0.0,0.0,0.0,0.0,0.0,0.0,0.0,0.0,0.0,0.0,0.0,3.305,3.2274,0.0,0.0,0.0,0.0,0.0,3.255,3.2766,3.3025,3.324,3.3581,0.0,0.0,3.4105,0.0,0.0,0.0,0.0,0.0,3.6878,3.9568,4.3538,4.705,5.1405,6.0935,6.5349,6.6779,6.6155,6.9455,7.2952,7.1887,7.4304,7.6607,7.4699,7.0405,6.4815,5.7649,5.2371,4.7513,4.2285,4.1414,4.1412,4.0722,4.4045,4.7434,4.9213,5.2566,5.7725,6.5298,6.6928,6.8985,7.3519,7.4649,7.4724,7.3845,7.3242,7.2514,7.151,7.0706,7.0204,7.0079,6.9677,6.92,6.8648,6.8095,6.7543,6.699,6.5308,6.4454,6.4454,6.335,6.2822,6.2822,6.2822,6.2822,6.2772,6.1667,6.119,6.109,5.996,5.9483,5.9433,5.893,5.8378,5.775,5.662,5.5867,5.5239,0.0,0.0,0.0,0.0,0.0,0.0,3.2901,3.2559,3.2718,3.4366,3.3606,3.3348,3.451,3.3078,3.2101,0.0,0.0,0.0,0.0,0.0,0.0,0.0,0.0,0.0,0.0,0.0,0.0,3.2276,3.2395,0.0,0.0,0.0,0.0,0.0,0.0,3.255,3.2766,3.3025,0.0,0.0,0.0,0.0,0.0,0.0,0.0,0.0,0.0,3.6087,3.7909,4.2872,4.5284,4.7197,5.2546,5.6376,5.9945,6.5545,6.834,7.0663,7.6232,7.7687,7.6984,7.4322,6.9526,6.3716,5.7001,5.1057,4.5806,4.1776,4.0333,4.0031,4.0745,4.2116,4.4428,4.8519,5.0307,5.4238,6.3037,6.5157,6.7566,7.227,7.3845,7.4448,7.4347,7.3845,7.3242,7.2615,7.1133,7.0054,6.9551,6.9476,6.92,6.8648,6.8095,6.7543,6.699,6.5308,6.4454,6.4454,6.335,6.2822,6.2822,6.2822,6.2822,6.2772,6.1667,6.119,6.109,5.996,5.9483,5.9433,5.893,5.8378,5.775,5.662,5.5867,5.5315,0.0,0.0,0.0,0.0,0.0,0.0,3.2587,3.2388,3.2606,3.3954,3.3546,3.3355,3.3999,3.3173,3.2578,3.2578,0.0,0.0,0.0,0.0,0.0,0.0,0.0,0.0,0.0,0.0,3.1019,3.1458,3.1113,0.0,0.0,0.0,0.0,0.0,0.0,3.2444,3.255,3.2939,0.0,0.0,0.0,0.0,0.0,0.0,0.0,0.0,0.0,0.0,3.58,3.7661,3.9095,4.0402,4.2168,4.4417,4.7671,5.4545,6.2084,6.8304,6.8817,7.3507,7.7536,7.4774,6.9175,6.2703,5.6577,4.9812,4.4087,4.1261,3.9973,3.9591,4.0312,4.1047,4.2351,4.4768,4.5768,4.865,5.5531,5.8071,6.139,6.748,6.9828,7.1585,7.3242,7.2891,7.2213,7.1309,7.033,6.9526,6.8974,6.8949,6.8698,6.8145,6.7593,6.7041,6.6463,6.5132,6.4454,6.4454,6.335,6.2822,6.2822,6.2822,6.2822,6.2797,6.2019,6.1492,6.1115,6.0311,5.9784,5.9483,5.9257,5.8855,5.8303,5.7524,5.6872,5.6244,0.0,0.0,0.0,0.0,0.0,3.1588,3.2568,3.2352,3.2553,3.3863,3.3433,3.3337,3.4028,3.3102,3.2605,3.2841,3.1845,0.0,0.0,0.0,0.0,0.0,0.0,0.0,0.0,0.0,3.0329,3.0736,3.0491,3.0559,0.0,0.0,3.155,3.1717,0.0,0.0,0.0,0.0,0.0,0.0,0.0,0.0,0.0,0.0,0.0,0.0,0.0,0.0,0.0,0.0,0.0,3.5655,3.5597,3.6726,3.9398,4.6371,5.5213,6.2959,6.3531,6.9464,7.5229,7.4197,6.8271,6.1345,5.6179,4.8937,4.2812,4.0772,3.9722,3.9363,3.9905,4.0458,4.1229,4.2177,4.3037,4.538,5.0654,5.3236,5.6847,6.2937,6.532,6.774,7.0838,7.1549,7.151,7.0581,7.0003,6.9451,6.8899,6.8547,6.812,6.7568,6.7191,6.6614,6.5886,6.4931,6.4379,6.4228,6.3274,6.2822,6.2822,6.2822,6.2822,6.2797,6.2245,6.1692,6.114,6.0563,5.9985,5.9483,5.9483,5.9182,5.8654,5.8102,5.7524,5.6897,0.0,0.0,0.0,0.0,0.0,0.0,3.3039,3.2557,3.2742,3.4558,3.3458,3.3219,3.4978,3.2934,3.1832,3.2817,3.2163,0.0,0.0,0.0,0.0,0.0,0.0,0.0,0.0,0.0,3.0487,3.0216,3.102,3.0974,3.0216,3.1796,3.2199,3.1717,0.0,0.0,0.0,0.0,0.0,0.0,0.0,0.0,3.4397,0.0,0.0,0.0,0.0,0.0,0.0,0.0,0.0,0.0,0.0,3.5459,3.7629,4.4171,4.8565,5.3488,6.3583,6.7305,6.8924,7.1969,6.6488,5.9409,5.5825,4.8508,4.2033,4.0413,3.9626,3.9323,3.9648,4.0364,4.1136,4.1889,4.3287,4.5814,5.0186,5.2525,5.5299,5.9283,6.0856,6.3175,6.7086,7.0146,7.1686,7.1108,7.0556,7.0003,6.9451,6.8396,6.7543,6.7015,6.6965,6.6438,6.5308,6.4756,6.4203,6.3701,6.3099,6.2822,6.2822,6.2822,6.2822,6.2797,6.2245,6.1692,6.114,6.0563,5.9985,5.9483,5.9483,5.9182,5.8654,5.8102,5.7524,5.6947,0.0,0.0,0.0,0.0,0.0,0.0,3.2127,3.1958,3.2181,3.3092,3.2785,3.2785,3.3473,3.2737,3.2122,3.2112,3.1553,0.0,0.0,0.0,0.0,0.0,0.0,0.0,0.0,3.0926,3.0928,3.1043,3.16,3.195,3.2065,3.2357,3.2461,3.2471,3.2548,3.2636,0.0,0.0,0.0,0.0,0.0,3.4356,3.4397,0.0,0.0,0.0,0.0,0.0,0.0,0.0,0.0,0.0,0.0,0.0,0.0,3.8051,4.3409,4.9699,5.3741,5.8035,6.1359,6.1622,5.7814,5.3296,5.0215,4.547,4.1336,4.0104,3.95,3.9272,3.9648,4.0065,4.0661,4.1501,4.2818,4.4328,4.6234,5.0398,5.4767,5.8858,6.5149,6.9689,7.0913,7.1524,7.1686,7.1133,7.0581,6.9702,6.8396,6.7995,6.7719,6.7543,6.6789,6.6212,6.586,6.4931,6.4379,6.4203,6.3274,6.2822,6.2822,6.2822,6.2822,6.2822,6.2647,6.2245,6.1692,6.114,6.0563,6.001,5.9633,5.9382,5.9131,5.8227,5.7775,5.7499,0.0,0.0,0.0,0.0,0.0,0.0,0.0,3.1805,3.1999,3.244,3.2298,3.2412,3.2935,3.2418,3.204,3.1985,3.1437,0.0,0.0,0.0,0.0,0.0,0.0,0.0,3.1095,3.1135,3.1368,3.1833,3.2486,3.2982,3.3244,3.3428,3.3371,3.312,3.3049,3.2978,0.0,0.0,0.0,0.0,3.4189,3.4356,3.4314,0.0,0.0,0.0,0.0,0.0,0.0,0.0,0.0,0.0,0.0,0.0,0.0,0.0,3.8851,4.3904,4.7123,5.0998,5.4401,5.5532,5.2847,4.9413,4.7354,4.3846,4.0777,3.9873,3.9447,3.9372,3.9794,3.9975,4.0414,4.1387,4.2425,4.3576,4.476,4.8368,5.2791,5.7819,6.5632,7.077,7.0994,7.175,7.1912,7.1133,7.0757,6.9853,6.8196,6.7919,6.7693,6.7493,6.6589,6.6011,6.581,6.4906,6.4379,6.4178,6.3249,6.2822,6.2822,6.2822,6.2822,6.2822,6.2596,6.232,0.0,6.1165,6.0638,6.0261,5.9709,5.9483,5.9357,5.8303,5.7901,5.775,0.0,0.0,0.0,0.0,0.0,0.0,0.0,3.1981,3.2087,3.2415,3.1985,3.2102,3.3068,3.2094,3.1642,3.2394,3.1738,0.0,0.0,0.0,0.0,0.0,0.0,0.0,3.1342,3.1433,3.1833,3.2606,3.3617,3.4022,3.3815,3.4752,3.4652,3.3606,3.3498,3.3474,3.3444,3.3614,3.3556,3.3428,3.4105,3.423,0.0,0.0,0.0,0.0,0.0,0.0,0.0,0.0,0.0,0.0,0.0,0.0,0.0,0.0,0.0,0.0,0.0,4.566,4.7774,5.2242,5.0284,4.703,4.6266,4.3155,0.0,3.9746,3.9465,3.9484,4.0028,4.009,4.0384,4.1468,4.2262,4.3396,4.5386,4.7191,5.0616,5.6787,6.3559,6.7942,6.8337,7.0944,7.2238,7.1158,7.1008,7.0255,6.8648,6.8045,6.7493,6.694,6.6388,6.586,6.5358,6.4756,6.4228,6.3751,6.3124,6.2822,6.2822,6.2822,6.2822,6.2797,6.2295,6.2044,6.1918,6.0839,6.0362,6.0261,5.9709,5.9483,5.9357,5.8303,5.7901,5.775,0.0,0.0,0.0,0.0,0.0,0.0,0.0,0.0,0.0,0.0,3.1789,3.1813,3.2054,3.1773,3.1677,0.0,0.0,0.0,0.0,0.0,0.0,0.0,0.0,0.0,3.1889,3.2112,3.2747,3.3711,3.4322,3.4731,3.4837,3.5114,3.4652,3.3606,3.3388,3.3143,3.2897,3.3308,3.3428,3.3428,3.3725,3.3937,0.0,0.0,0.0,0.0,3.3471,3.3525,0.0,0.0,0.0,0.0,0.0,0.0,0.0,0.0,3.5208,3.5949,3.7483,0.0,3.9841,4.12,4.1065,4.0595,0.0,3.9721,3.9275,3.9387,3.931,3.9556,4.0471,4.0434,4.0643,4.1839,4.256,4.3399,4.4846,5.1944,5.8132,6.1011,6.7314,7.1031,6.988,7.1216,7.1811,7.1133,7.0305,6.93,6.8045,6.7467,6.6915,6.6338,6.6187,6.6036,6.5911,6.4957,6.4404,6.4279,6.3299,6.2822,6.2822,6.2822,6.2822,6.2822,6.2697,6.2395,6.1943,6.1266,6.0713,6.0261,5.9709,5.9483,5.9357,5.8303,5.7901,5.775,0.0,0.0,0.0,0.0,0.0,0.0,0.0,0.0,0.0,0.0,3.1717,3.1717,3.1717,3.1717,0.0,0.0,0.0,0.0,0.0,0.0,0.0,0.0,0.0,3.2043,3.1942,3.2536,3.3405,3.449,3.4933,3.549,3.6111,3.5859,3.5308,3.4485,3.3701,3.3113,3.2723,3.3111,3.3283,3.3283,3.3598,0.0,0.0,0.0,0.0,0.0,3.3388,3.3488,0.0,3.3622,3.4083,3.4713,0.0,0.0,0.0,0.0,3.5208,3.5637,3.5758,3.6284,3.6979,3.77,3.8082,3.8263,3.8611,3.8757,3.8841,3.905,3.9325,3.9713,4.0471,4.0797,4.1242,4.1976,4.3292,4.5149,4.7934,5.5104,6.1122,6.3792,6.8584,7.1661,7.1786,7.1861,7.1686,7.1133,7.0305,6.9225,6.7869,6.7518,6.6965,6.6137,6.6112,6.5986,6.5735,6.4881,6.4354,6.4103,6.3249,6.2822,6.2822,6.2822,6.2822,6.2797,6.2295,6.2044,6.1918,6.0839,6.0362,6.0261,5.9709,5.9483,5.9357,5.8303,5.7901,5.775,0.0,0.0,0.0,0.0,0.0,0.0,0.0,0.0,0.0,0.0,0.0,0.0,0.0,0.0,0.0,0.0,0.0,0.0,0.0,0.0,0.0,0.0,3.2322,3.2452,3.204,3.2889,3.395,3.5209,3.5534,3.6212,3.7232,3.6723,3.617,3.5425,3.4073,3.3224,3.2804,3.2964,3.3068,3.3111,3.3471,0.0,0.0,0.0,0.0,0.0,0.0,0.0,0.0,3.3836,3.427,3.4775,3.4775,0.0,0.0,0.0,0.0,0.0,3.5887,3.6351,3.6956,3.8034,3.8203,3.8334,3.89,3.898,3.8928,3.8928,3.9349,3.9903,4.0451,4.1495,4.2353,4.2614,4.4948,4.8187,5.2533,5.758,6.2016,6.5035,6.8574,7.1259,7.2816,7.2238,7.156,7.1008,7.0305,6.9275,6.7869,6.7643,6.7066,6.6011,6.5986,6.5685,6.5057,6.4655,6.4203,6.3676,6.3099,6.2822,6.2822,6.2822,6.2772,6.2647,6.1718,6.1466,6.1642,6.0211,5.9859,6.0136,5.9684,5.9433,5.9257,5.8278,5.7851,5.7625,0.0,0.0,0.0,0.0,0.0,0.0,0.0,0.0,0.0,0.0,0.0,0.0,0.0,0.0,0.0,0.0,0.0,0.0,0.0,0.0,0.0,3.2394,3.2875,3.331,3.3647,3.3648,3.4605,3.6493,3.6108,3.647,3.7515,3.7211,3.6314,3.4871,3.3516,3.3012,3.3128,3.2878,3.2896,3.3111,3.3154,0.0,0.0,0.0,0.0,0.0,0.0,0.0,0.0,3.338,3.403,3.4775,3.4775,0.0,0.0,0.0,0.0,0.0,3.5792,3.7056,3.8075,3.7723,3.8312,3.8927,3.8442,3.8896,3.9375,3.9375,3.9667,4.033,4.1516,4.2866,4.422,4.5624,4.9067,5.2533,5.5209,6.0313,6.3741,6.3877,6.8825,7.1761,7.0229,7.0757,7.0983,7.043,6.9024,6.807,6.7819,6.689,6.6086,6.5434,6.5409,6.4931,6.3952,6.4279,6.4203,6.3676,6.3099,6.2822,6.2822,6.2822,6.2571,6.2119,6.1943,6.1391,6.0563,6.0286,5.996,5.9608,5.9533,5.9232,5.8755,5.8127,5.76,5.7072,0.0,0.0,0.0,0.0,0.0,0.0,0.0,0.0,0.0,0.0,0.0,0.0,0.0,0.0,0.0,0.0,0.0,0.0,0.0,0.0,3.3104,3.329,3.3834,3.4126,3.4221,3.441,3.5389,3.7252,3.6992,3.7474,3.864,3.8113,3.6909,3.521,3.4457,3.3964,3.3629,3.3314,3.3266,3.3346,0.0,0.0,0.0,0.0,0.0,0.0,0.0,0.0,0.0,0.0,3.4198,3.4775,3.4775,0.0,0.0,0.0,0.0,0.0,3.6042,3.7553,3.9091,3.9825,4.0248,4.0523,4.0297,4.0359,4.0394,4.0168,4.0781,4.1573,4.2431,4.4814,4.8101,5.2269,5.5129,5.7819,6.0694,6.3507,6.5757,6.6997,6.9364,7.0907,7.0782,7.0681,7.0405,6.9853,6.8848,6.797,6.7392,6.6564,6.586,6.5308,6.5007,6.4479,6.3701,6.3927,6.3776,6.3224,6.2948,6.2822,6.2822,6.2521,6.2245,6.1969,6.1366,6.0788,6.0286,6.001,5.9734,5.9483,5.9483,5.9357,5.9031,5.8202,5.7524,5.6947,0.0,0.0,0.0,0.0,0.0,0.0,0.0,0.0,0.0,0.0,0.0,0.0,0.0,0.0,0.0,0.0,0.0,0.0,0.0,3.2491,3.3116,3.3882,3.4556,3.4895,3.4938,3.5413,3.6442,3.8059,3.7953,3.8383,3.9393,3.8684,3.7431,3.5843,3.5307,3.4698,3.4056,3.3679,3.3451,3.3385,0.0,0.0,0.0,0.0,0.0,0.0,0.0,0.0,0.0,0.0,0.0,0.0,0.0,0.0,0.0,3.5113,3.5403,3.5911,3.6461,3.7948,3.9764,4.1239,4.1677,4.2077,4.3132,4.2782,4.2348,4.264,4.3288,4.4001,4.4278,4.758,5.2042,5.7734,6.0298,6.2637,6.585,6.684,6.807,7.0204,7.0204,7.0405,7.1435,7.0631,6.9853,6.93,6.8622,6.7819,6.6815,6.6237,6.5609,6.4931,6.4505,6.4028,6.35,6.35,6.3274,6.2822,6.2822,6.2822,6.2822,6.2245,6.1943,6.1768,6.0763,6.0236,6.0085,5.9659,5.9483,5.9483,5.9483,5.9332,5.9006,5.8052,5.7323,5.6771,0.0,0.0,0.0,0.0,0.0,0.0,0.0,0.0,0.0,0.0,0.0,0.0,0.0,0.0,0.0,0.0,0.0,0.0,0.0,3.2402,3.3071,3.3606,3.4604,3.5648,3.662,3.6922,3.7899,3.9574,3.8983,3.8737,3.8864,3.8359,3.7606,3.6646,3.5162,3.4433,3.4335,3.3546,3.3177,3.3117,3.3117,0.0,0.0,0.0,0.0,0.0,0.0,0.0,0.0,0.0,0.0,0.0,0.0,0.0,3.6211,3.6014,3.6137,3.6455,3.7022,3.8396,3.9731,3.9961,4.1063,4.2993,4.656,4.6333,4.5987,4.8036,4.8322,4.8204,4.7976,5.1337,5.5199,5.8417,6.232,6.5925,6.8659,7.0054,7.0807,7.1008,7.1435,7.1384,7.0455,6.9853,6.9275,6.8723,6.7693,6.6815,6.6212,6.566,6.4881,6.3852,6.3776,6.3475,6.2898,6.2898,6.2873,6.2822,6.2822,6.2822,6.2822,6.2245,6.1718,6.1215,6.0588,6.0035,5.9558,5.9508,5.9483,5.9483,5.9483,5.888,5.7951,5.7323,5.6746,5.6269,0.0,0.0,0.0,0.0,0.0,0.0,0.0,0.0,0.0,0.0,0.0,0.0,0.0,0.0,0.0,0.0,0.0,0.0,0.0,3.1981,3.2629,3.3301,3.4071,3.5284,3.6993,3.746,3.8321,3.9649,4.0224,4.0366,4.009,3.9911,3.903,3.7543,3.6751,3.5915,3.5158,3.4795,3.4303,3.3728,3.4185,3.3995,0.0,0.0,0.0,0.0,0.0,0.0,0.0,0.0,3.4241,3.5235,3.5428,3.5892,3.6383,3.6284,3.6333,3.6554,3.7275,3.9173,4.1194,4.2086,4.3379,4.5083,4.7627,4.8426,4.9131,5.115,5.1922,5.2396,5.2799,5.5224,5.8328,6.1857,6.5474,6.8597,7.0681,7.1334,7.1585,7.1585,7.1184,7.0732,7.0305,6.9451,6.8698,6.8145,6.7066,6.6187,6.5634,6.4781,6.4103,6.3701,6.335,6.3048,6.2822,6.2822,6.2822,6.2822,6.2822,6.2647,6.2295,6.1743,6.119,6.0613,6.006,5.9684,5.9483,5.9483,5.9483,5.9483,5.9483,5.9257,5.878,5.7901,5.7449,5.7148,0.0,0.0,0.0,0.0,0.0,0.0,0.0,0.0,0.0,0.0,0.0,0.0,0.0,0.0,0.0,0.0,0.0,0.0,3.138,3.1763,3.2269,3.2938,3.371,3.4872,3.6454,3.7484,3.8664,4.0026,4.1377,4.1706,4.1037,4.1026,4.0109,3.8465,3.8066,3.7147,3.5966,3.5795,3.5157,3.4293,3.4755,3.4549,0.0,0.0,0.0,0.0,0.0,0.0,0.0,0.0,3.4576,3.5476,3.5668,3.6258,3.6875,3.6776,3.7171,3.7692,3.8248,3.9841,4.1698,4.3169,4.4695,4.66,4.9688,5.0044,5.0684,5.4008,5.5139,5.5633,5.6128,5.77,6.0035,6.3317,6.6803,6.9752,7.141,7.1636,7.1585,7.141,7.0556,6.9928,6.9752,6.8748,6.7869,6.7317,6.6388,6.5534,6.4831,6.4078,6.3601,6.3425,6.3048,6.2822,6.2822,6.2822,6.2747,6.2571,6.2571,6.237,6.1994,6.1441,6.0864,6.0286,5.9734,5.9483,5.9483,5.9483,5.9408,5.9257,5.9257,5.9156,5.8905,5.8177,5.7775,5.7499,0.0,0.0,0.0,0.0,0.0,0.0,0.0,0.0,0.0,0.0,0.0,0.0,0.0,0.0,0.0,0.0,0.0,0.0,3.1693,3.1893,3.2136,3.2464,3.371,3.4533,3.4896,3.6967,3.8931,4.0898,4.2323,4.2407,4.1274,4.128,4.0707,3.9549,3.8832,3.7887,3.6792,3.6257,3.5551,3.4762,3.4527,3.4675,3.499,0.0,0.0,0.0,0.0,0.0,0.0,0.0,3.5131,3.6003,3.6003,3.6943,3.794,3.7693,3.8793,4.0082,4.0087,4.0315,4.0893,4.2527,4.4423,4.7408,5.3208,5.1487,5.0475,5.6849,5.8075,5.7851,5.7423,5.8525,6.0158,6.1982,6.5828,6.92,7.0857,7.1083,7.0857,7.033,6.9777,6.9225,6.8673,6.7618,6.6739,6.6162,6.5584,6.4831,6.3751,6.3676,6.3425,6.2847,6.2822,6.2822,6.2822,6.2822,6.2546,6.1994,6.1994,6.1994,6.1969,6.1416,6.0864,6.0286,5.9734,5.9483,5.9483,5.9483,5.9182,5.873,5.873,5.8378,5.7901,5.7901,5.7524,5.6972,0.0,0.0,0.0,0.0,0.0,0.0,0.0,0.0,0.0,0.0,0.0,0.0,0.0,0.0,0.0,0.0,0.0,0.0,3.1404,3.1632,3.1834,3.1934,3.3039,3.3906,3.4509,3.7069,3.9093,4.0651,4.1398,4.1527,4.1037,4.1026,4.0492,3.9603,3.9384,3.8738,3.7938,3.7742,3.6991,3.5921,3.6056,3.5719,3.5091,0.0,0.0,0.0,0.0,0.0,0.0,0.0,0.0,0.0,3.6003,3.6668,3.7513,3.7791,3.8241,3.8768,3.9362,4.0839,4.263,4.4112,4.7184,5.0613,5.3545,5.3251,5.3304,5.6574,5.9145,6.0233,5.8245,5.9751,6.1868,6.3593,6.6176,6.8622,7.028,7.0506,7.0305,6.9752,6.92,6.8648,6.8095,6.7392,6.6739,6.6162,6.5233,6.4404,6.3726,6.3299,6.2998,6.2847,6.2822,6.2647,6.2245,6.2245,6.1969,6.1441,6.1441,6.1215,6.0814,6.0663,6.0261,5.9734,5.9558,5.9483,5.9458,5.9106,5.8855,5.873,5.873,5.8629,5.8428,5.8052,5.7801,5.7499,0.0,0.0,0.0,0.0,0.0,0.0,0.0,0.0,0.0,0.0,3.2361,3.2759,0.0,0.0,0.0,0.0,0.0,0.0,3.1458,3.1656,3.1858,3.1872,3.2849,3.3905,3.4848,3.7044,3.8573,3.9529,4.0706,4.1345,4.1439,4.1275,4.1037,4.075,4.0529,4.0015,3.9189,3.902,3.8314,3.7362,3.7169,3.6843,3.6332,0.0,0.0,0.0,0.0,0.0,0.0,0.0,0.0,0.0,3.5918,3.6584,3.743,3.7392,3.8165,3.9171,3.9919,4.1781,4.4086,4.6476,4.9746,5.3059,5.5432,5.6825,5.7918,5.9103,6.144,6.2891,6.1521,6.2033,6.3224,6.4856,6.6639,6.8296,6.9727,6.9752,6.9476,6.915,6.8447,6.7844,6.7493,6.6764,6.6061,6.5509,6.4655,6.3927,6.3375,6.3023,6.2822,6.2822,6.2822,6.2571,6.2019,6.1994,6.1617,6.0839,6.0839,6.0437,5.9709,6.0136,5.991,5.9182,5.8956,5.8981,5.9131,5.8378,5.8052,5.8052,5.8052,5.8052,5.8027,5.7675,5.7549,5.7424,0.0,0.0,3.2295,3.1789,0.0,0.0,0.0,0.0,0.0,0.0,3.1981,3.237,0.0,0.0,0.0,0.0,0.0,0.0,0.0,3.2015,3.2143,3.2146,3.3158,3.4291,3.5593,3.6909,3.7748,3.8079,4.0209,4.1526,4.2028,4.1803,4.1935,4.2375,4.1941,4.1309,4.052,4.0074,3.9521,3.8842,3.8016,3.799,3.8238,3.67,0.0,0.0,0.0,0.0,0.0,0.0,0.0,0.0,3.5848,3.6637,3.7639,3.6798,3.8341,4.0491,4.1291,4.2907,4.5403,4.9343,5.2505,5.5519,5.8896,6.1633,6.3303,6.2721,6.4128,6.5509,6.5675,6.4781,6.4404,6.5936,6.7041,6.8095,6.915,6.8848,6.8522,6.8472,6.7593,6.6965,6.689,6.5911,6.5057,6.4505,6.3977,6.345,6.2873,6.2822,6.2797,6.2747,6.2747,6.2471,6.1843,6.1843,6.1291,6.0161,6.0161,5.9633,5.8679,5.9759,5.9684,5.8679,5.8127,5.8177,5.8554,5.7474,5.7022,5.7022,5.7022,5.7022,5.7022,5.7022,5.7022,5.6947,0.0,0.0,3.2039,3.1741,0.0,0.0,0.0,0.0,0.0,0.0,0.0,0.0,0.0,0.0,0.0,0.0,0.0,0.0,0.0,3.298,3.2916,3.2668,3.3635,3.4654,3.5593,3.6746,3.7612,3.8079,4.005,4.0893,4.0799,4.1188,4.1401,4.1492,4.183,4.1679,4.1046,4.1204,4.0704,3.9628,3.8641,3.83,3.8262,3.7319,3.6948,0.0,0.0,0.0,0.0,0.0,0.0,0.0,3.6279,3.6568,3.7035,3.7445,3.8336,3.96,4.1698,4.3847,4.6695,5.1691,5.7297,6.2094,6.4145,6.5424,6.4753,5.9766,6.2987,6.59,6.3569,6.4487,6.586,6.6664,6.699,6.7392,6.807,6.8045,6.7819,6.7367,6.7116,6.6789,6.6338,6.5685,6.5057,6.4505,6.3977,6.345,6.2873,6.2822,6.2621,6.2195,6.2195,6.1692,6.0688,6.0688,6.0136,5.9056,5.9056,5.8704,5.8102,5.9182,5.9332,5.8679,5.8127,5.7976,5.8027,5.7323,5.7022,5.7022,5.7022,5.7022,5.7022,5.7022,5.7022,5.6947,0.0,0.0,0.0,0.0,0.0,0.0,0.0,0.0,0.0,0.0,0.0,0.0,0.0,0.0,0.0,0.0,0.0,0.0,0.0,0.0,3.386,3.3949,3.4595,3.5161,3.5575,3.6974,3.7842,3.809,4.0227,4.0928,4.0409,4.1219,4.168,4.1822,4.2078,4.209,4.1787,4.1574,4.1121,4.0474,3.9663,3.9296,3.9058,3.8248,3.7813,3.7543,3.7295,0.0,0.0,0.0,0.0,0.0,0.0,0.0,3.7066,3.7184,3.7977,3.9247,4.1367,4.4285,4.8446,5.5143,6.0688,6.4605,6.5183,6.576,6.5173,6.1608,6.4353,6.6753,6.4878,6.5675,6.6614,6.6915,6.6965,6.7166,6.7719,6.7568,6.7292,6.7015,6.6488,6.6061,6.576,6.4982,6.4279,6.3726,6.3199,6.2647,6.2069,6.2044,6.1918,6.1617,6.1617,6.1065,5.9935,5.9935,5.9382,5.8328,5.8328,5.8177,5.7901,5.8202,5.8328,5.8278,5.7449,5.7248,5.7449,5.6872,5.6646,5.6646,5.6646,5.6646,5.6646,5.6646,5.6646,5.6595,0.0,0.0,0.0,0.0,0.0,0.0,0.0,0.0,0.0,0.0,0.0,0.0,0.0,0.0,0.0,0.0,0.0,0.0,0.0,0.0,0.0,3.526,3.5565,3.5766,3.5816,3.7291,3.8139,3.8441,4.0536,4.1249,4.0716,4.1663,4.2232,4.2355,4.2589,4.2643,4.2524,4.2022,4.1607,4.1292,4.0752,4.0367,4.0026,3.9169,3.854,3.8103,3.7765,3.732,3.692,3.7404,0.0,0.0,0.0,0.0,3.7248,3.6687,3.7597,3.9143,4.0805,4.5003,5.0738,5.8428,6.2697,6.4906,6.4555,6.4831,6.5032,6.4555,6.5936,6.7091,6.6614,6.6538,6.6538,6.6538,6.6614,6.6815,6.7166,6.6915,6.6639,6.6564,6.571,6.5157,6.5157,6.4178,6.335,6.2873,6.222,6.1667,6.1215,6.119,6.109,6.0889,6.0889,6.0362,5.9232,5.9207,5.873,5.775,5.765,5.76,5.76,5.7123,5.7198,5.77,5.6671,5.647,5.6846,5.6394,5.6219,5.6219,5.6219,5.6219,5.6219,5.6219,5.6219,5.6219,0.0,0.0,0.0,0.0,0.0,0.0,0.0,0.0,0.0,0.0,3.3417,3.3414,0.0,0.0,0.0,0.0,0.0,0.0,0.0,0.0,0.0,3.5545,3.6048,3.6393,3.6601,3.7285,3.836,3.9804,4.0777,4.1502,4.2035,4.2407,4.2508,4.2365,4.3409,4.3523,4.2914,4.3532,4.3119,4.1938,4.1373,4.0985,4.0585,3.9569,3.8945,3.8617,3.8128,3.7618,3.7138,3.7211,3.7026,0.0,0.0,0.0,3.6803,3.6968,3.7876,3.9094,4.0586,4.6799,5.4166,5.9155,6.2144,6.4002,6.4379,6.453,6.4555,6.4479,6.4705,6.4881,6.4806,6.4806,6.4806,6.4806,6.5208,6.5383,6.4957,6.5258,6.5333,6.4856,6.4655,6.458,6.458,6.3576,6.2923,6.2847,6.1868,6.1266,6.119,6.119,6.0738,5.9759,5.9734,5.9207,5.8127,5.8102,5.7801,5.7148,5.6671,5.6445,5.642,5.6344,5.662,5.7123,5.6495,5.6244,5.6319,5.6244,5.6219,5.6219,5.6219,5.6219,5.6219,5.6219,5.6219,5.6219,0.0,0.0,0.0,0.0,0.0,0.0,0.0,0.0,0.0,0.0,0.0,3.3659,0.0,0.0,0.0,3.4972,0.0,0.0,0.0,0.0,0.0,3.6191,3.6452,3.66,3.6709,3.761,3.8492,3.9368,4.0398,4.1416,4.2491,4.3566,4.3791,4.3198,4.4111,4.4126,4.3548,4.3482,4.2921,4.2086,4.1646,4.1379,4.1193,4.0248,3.9922,3.9878,3.8969,3.8319,3.7837,3.7543,3.7215,3.6975,3.707,0.0,0.0,0.0,3.7782,3.8944,4.1958,4.7483,5.3283,5.73,6.0559,6.2898,6.3425,6.3802,6.3952,6.3626,6.355,6.3726,6.4354,6.4454,6.4454,6.4454,6.468,6.4756,6.4505,6.468,6.4731,6.4505,6.4203,6.4028,6.4028,6.3023,6.2245,6.1943,6.1165,6.0563,6.0261,6.0236,5.9885,5.9081,5.9056,5.8529,5.7424,5.7424,5.6972,5.6118,5.5867,5.5591,5.529,5.529,5.5767,5.6545,5.5993,5.5917,5.6194,5.5867,5.5942,5.6219,5.6219,5.6219,5.6219,5.6219,5.6219,5.6219,0.0,0.0,0.0,0.0,0.0,0.0,0.0,0.0,0.0,0.0,0.0,0.0,0.0,0.0,0.0,0.0,3.5991,0.0,0.0,0.0,0.0,3.6756,3.6875,3.6875,3.6803,3.7706,3.8493,3.9151,4.0019,4.1367,4.2977,4.4548,4.5035,4.4481,4.5438,4.5379,4.4643,4.4211,4.3656,4.3044,4.2758,4.2527,4.2363,4.1541,4.1436,4.146,4.0129,3.936,3.8838,3.8211,3.7717,3.7377,3.7279,3.7283,0.0,0.0,0.0,3.8389,4.237,4.614,4.9999,5.4188,5.7574,6.0305,6.1788,6.2647,6.2998,6.2847,6.2722,6.2873,6.3701,6.3952,6.4053,6.4053,6.4178,6.4228,6.4078,6.4178,6.4228,6.4078,6.3576,6.3274,6.3274,6.2245,6.1391,6.0989,6.0437,5.9935,5.9508,5.9357,5.9056,5.8529,5.8378,5.7826,5.6846,5.6821,5.642,5.5591,5.5591,5.539,5.4988,5.4988,5.544,5.6168,5.5616,5.5616,5.5993,5.5717,5.5767,5.6018,5.6168,5.6219,5.6219,5.6219,5.6219,5.6219,0.0,0.0,0.0,0.0,0.0,0.0,0.0,0.0,0.0,0.0,0.0,0.0,3.5523,3.5571,3.5763,3.626,3.6121,3.6193,3.6662,3.6637,0.0,3.7062,3.732,0.0,3.7062,3.7392,3.8359,4.0039,4.0,4.1304,4.3869,4.5086,4.5886,4.6309,4.7905,4.7732,4.6235,4.6722,4.6509,4.5791,4.5405,4.4933,4.4382,4.3841,4.3644,4.3364,4.1484,4.0621,4.027,3.9382,3.8567,3.7811,3.7642,3.7355,3.7015,0.0,0.0,0.0,4.0542,4.1997,4.4014,4.9988,5.2862,5.5236,5.9453,6.0889,6.1592,6.2621,6.2421,6.2069,6.2119,6.2571,6.2923,6.2923,6.3375,6.3525,6.2998,6.34,6.3525,6.2973,6.2421,6.2094,6.2094,6.1065,6.0387,6.0362,5.9859,5.9533,5.9483,5.9031,5.8504,5.7951,5.7424,5.6846,5.6269,5.6244,5.6219,5.6168,5.6168,5.6143,5.6118,5.6118,5.6168,5.6168,5.5616,5.5415,5.5465,5.5968,5.5867,5.5491,5.6018,5.6219,5.6219,5.6219,5.6219,5.6219,0.0,0.0,0.0,0.0,0.0,0.0,0.0,0.0,0.0,0.0,0.0,0.0,0.0,3.7193,3.7215,3.7175,3.6586,3.64,3.6943,3.6611,0.0,3.7341,3.7459,3.7459,3.7366,3.7598,3.8366,3.9547,3.9625,4.0774,4.2938,4.4655,4.5552,4.5658,4.7419,4.7954,4.7443,4.7087,4.6773,4.6476,4.6316,4.6284,4.6199,4.5793,4.5657,4.5448,4.4101,4.3292,4.2635,4.1682,4.0793,4.0031,3.9574,3.8697,3.7736,3.7024,3.725,3.7841,3.8504,4.0627,4.3358,4.6254,4.928,5.2254,5.4942,5.7097,5.8629,5.9031,5.9784,6.0387,6.0387,6.114,6.1768,6.1768,6.1943,6.2019,6.1793,6.1943,6.2019,6.1793,6.1592,6.1492,6.1492,6.0763,6.0161,5.9809,5.9307,5.8855,5.8478,5.8303,5.7926,5.7374,5.7148,5.6595,5.5691,5.5691,5.5315,5.4612,5.4612,5.4612,5.4587,5.426,5.4486,5.5114,5.4561,5.4712,5.539,5.5214,5.5239,5.5415,5.5591,5.5892,5.6219,5.6219,5.6219,5.6269,0.0,0.0,0.0,3.3934,0.0,3.5551,3.5842,3.6184,3.6674,3.7364,0.0,0.0,0.0,0.0,3.8386,3.8046,3.7544,3.7428,3.7788,3.7479,3.7444,3.7857,3.793,3.7779,3.7505,3.7644,3.8262,3.9188,3.9389,4.0539,4.2543,4.4192,4.5216,4.5723,4.7168,4.8059,4.8518,4.8095,4.7897,4.7922,4.7946,4.7858,4.7933,4.8771,4.8707,4.8183,4.7508,4.6712,4.5748,4.4417,4.3244,4.2145,4.1328,3.9777,3.8063,3.7537,3.7825,3.8114,3.749,3.9149,4.1554,4.3564,4.5881,4.8382,5.1247,5.3864,5.5794,5.6473,5.7851,5.9006,5.9207,5.9684,6.0186,6.0563,6.0613,6.0613,6.0613,6.0613,6.0613,6.0613,6.0462,6.0337,6.0362,5.9834,5.9357,5.8981,5.8629,5.8278,5.7926,5.7725,5.7349,5.6771,5.657,5.6219,5.5666,5.5491,5.5114,5.4536,5.4361,5.426,5.426,5.3708,5.3884,5.4536,5.416,5.431,5.4813,5.4637,5.4787,5.5139,5.5315,5.5717,5.6219,5.6219,5.6319,5.6545,3.2539,3.3356,3.4006,3.403,3.5138,3.6136,3.6383,3.7394,3.8089,3.8114,0.0,0.0,0.0,0.0,0.0,3.8877,3.9068,3.9214,3.9188,3.9188,3.9099,3.8762,0.0,0.0,3.7583,3.7557,3.8101,3.9214,3.9241,4.0491,4.292,4.3771,4.5081,4.6645,4.7375,4.83,4.933,4.9825,5.0104,5.0141,5.0373,4.9906,4.952,5.2566,5.2779,5.1498,5.1637,5.0855,4.9475,4.7571,4.5764,4.4105,4.2645,4.0327,3.8065,3.804,3.8065,3.7992,0.0,0.0,0.0,4.1896,4.2438,4.3382,4.8551,5.123,5.3217,5.5204,5.6699,5.7901,5.8478,5.8152,5.8152,5.9207,5.9408,5.9433,5.9433,5.9433,5.9433,5.9433,5.8981,5.8654,5.8704,5.8202,5.7901,5.7876,5.7876,5.7876,5.7851,5.7323,5.6771,5.6219,5.5691,5.5641,5.6168,5.5641,5.5616,5.6118,5.5566,5.534,5.534,5.4787,5.4607,5.4536,5.4607,5.4185,5.3733,5.431,5.4536,5.4587,5.5139,5.5691,5.6194,5.6219,5.657,5.7022,3.3549,3.3979,3.4461,3.504,3.5966,3.6726,3.7221,3.7717,3.8465,0.0,0.0,0.0,4.108,4.1132,4.0925,4.0356,4.019,3.992,3.9529,3.9503,3.9425,3.9364,3.9364,3.9238,3.9033,3.9033,3.9372,4.0076,4.0037,4.0822,4.2334,4.3185,4.4275,4.5588,4.6839,4.8094,4.9364,4.9271,4.9888,5.0977,5.1398,5.2184,5.3142,5.4245,5.4749,5.4813,5.4774,5.4436,5.3757,5.2248,5.0142,4.7378,4.2936,4.1016,4.0109,3.8717,3.8966,0.0,3.7506,0.0,0.0,0.0,0.0,0.0,4.3255,4.5654,4.8064,5.0272,5.2147,5.3803,5.5465,5.5591,5.5717,5.642,5.7549,5.8353,5.8353,5.8353,5.8353,5.8353,5.8202,5.8127,5.8127,5.8001,5.7725,5.7298,5.7273,5.7097,5.6696,5.652,5.6369,5.6219,5.6068,5.5666,5.5039,5.4863,5.4662,5.4386,5.3858,5.4009,5.4762,5.3808,5.3582,5.3909,5.3557,5.3281,5.3181,5.3708,5.3934,5.4009,5.4561,5.5139,5.5717,5.652,5.6646,5.662,3.4124,3.4725,3.5381,3.5867,3.6972,3.7966,3.8239,3.9044,3.9879,0.0,0.0,0.0,4.2744,4.2759,4.245,4.18,4.138,4.101,4.0697,4.0461,4.0275,4.011,3.9987,3.9882,3.9743,3.9647,3.9886,4.0409,4.0671,4.1357,4.2473,4.3227,4.4206,4.5371,4.6444,4.7722,4.9015,4.8942,4.9977,5.1783,5.2179,5.2939,5.4248,5.6545,5.7298,5.7399,5.8706,5.8905,5.8299,5.6171,5.3005,4.9099,4.4619,4.271,4.1764,3.9915,4.0038,0.0,0.0,0.0,3.934,3.9266,0.0,0.0,4.1205,4.3198,4.5246,4.7134,4.9096,5.0847,5.2277,5.2678,5.3105,5.3884,5.5039,5.6143,5.7072,5.6796,5.6671,5.7148,5.6997,5.6947,5.7173,5.7198,5.7047,5.6721,5.6696,5.6545,5.6219,5.6219,5.6219,5.6219,5.5767,5.5315,5.4913,5.4687,5.4511,5.4411,5.3858,5.3959,5.4536,5.3658,5.3306,5.3381,5.3532,5.3356,5.298,5.3482,5.3708,5.3758,5.4336,5.4913,5.5516,5.662,5.6972,5.7047,0.0,3.5526,3.6432,3.6505,3.8062,3.936,3.9484,4.0729,4.1648,0.0,4.281,4.3721,4.3943,4.4082,4.3858,4.3206,4.2735,4.2421,4.2238,4.174,4.129,4.0909,4.0739,4.0503,4.0192,4.0005,4.0095,4.0514,4.1115,4.1977,4.3023,4.3598,4.4513,4.5663,4.6212,4.7241,4.8583,4.8881,5.0372,5.2633,5.2878,5.3384,5.4489,5.9164,6.0347,5.991,6.2822,6.355,6.2546,5.9006,5.4712,5.0303,4.7109,4.4997,4.3309,4.1655,4.1338,0.0,0.0,0.0,0.0,4.0735,4.0092,0.0,4.1166,4.2426,4.3737,4.5072,4.681,4.8296,4.8921,4.9546,5.0272,5.1272,5.2065,5.3362,5.5717,5.5189,5.4938,5.5917,5.5591,5.5491,5.5993,5.6018,5.6018,5.6018,5.6093,5.6118,5.6118,5.6168,5.6219,5.6219,5.5189,5.4863,5.529,5.4737,5.4712,5.5189,5.4637,5.4411,5.4461,5.3934,5.3337,5.2704,5.4014,5.3914,5.2779,5.3513,5.3733,5.3683,5.431,5.4863,5.544,5.6671,5.7424,5.7826,3.5065,3.5965,3.6775,3.6997,3.8463,3.9842,4.0504,4.1043,4.1915,4.3498,4.4515,4.5036,4.4891,4.5299,4.5145,4.4134,4.4142,4.365,4.2316,4.2285,4.2121,4.1565,4.1937,4.1937,4.138,4.1579,4.1507,4.1141,4.1716,4.2343,4.3023,4.3598,4.4513,4.5663,4.6212,4.744,4.9046,4.9578,5.1119,5.3247,5.4842,5.6975,5.9437,6.2077,6.3719,6.4705,6.4906,6.4906,6.4028,5.893,5.5666,5.3036,4.9053,4.696,4.5646,4.3961,4.3465,4.3114,4.1417,4.1019,4.1067,4.0884,4.0488,0.0,4.004,4.0245,4.0804,4.2201,4.3079,4.4014,4.5316,4.629,4.702,4.728,4.8961,5.1284,5.444,5.4687,5.4637,5.4863,5.4787,5.4762,5.4888,5.4888,5.4888,5.4888,5.529,5.5541,5.5541,5.5968,5.6219,5.6219,5.5566,5.5064,5.4737,5.416,5.3934,5.4034,5.3507,5.3457,5.3858,5.3758,5.2754,5.1211,5.3566,5.3499,5.1844,5.364,5.3884,5.3181,5.4185,5.4637,5.4963,5.6997,5.7499,5.7399,3.5892,3.6774,3.7617,3.8314,3.9565,4.0824,4.1818,4.2273,4.3118,4.4699,4.5875,4.6399,4.5969,4.6524,4.6405,4.5047,4.5167,4.4736,4.3334,4.3232,4.3123,4.277,4.2807,4.2782,4.277,4.2653,4.2448,4.216,4.2735,4.3154,4.3467,4.433,4.5109,4.5827,4.6887,4.7945,4.904,4.9962,5.1463,5.3544,5.5626,5.7744,6.0109,6.3311,6.5238,6.6137,6.6438,6.5835,6.4254,6.0085,5.7399,5.5143,5.1537,4.9237,4.7604,4.6431,4.5511,4.4463,4.2831,4.24,4.2352,4.1783,4.1298,0.0,0.0,4.044,4.0373,4.1614,4.1549,4.1586,4.2559,4.3046,4.3651,4.4609,4.6216,4.8203,5.068,5.2384,5.3532,5.4084,5.3909,5.3858,5.411,5.4386,5.4561,5.4561,5.4813,5.4988,5.4988,5.5239,5.539,5.539,5.4838,5.4561,5.4561,5.3984,5.3984,5.4536,5.3708,5.3607,5.4135,5.4135,5.3458,5.2284,5.4477,5.4459,5.3072,5.4452,5.4486,5.3833,5.4662,5.5139,5.5591,5.7273,5.7901,5.8001,3.6478,3.7318,3.8241,3.9195,4.045,4.1652,4.2811,4.3438,4.4242,4.5413,4.6698,4.7511,4.7323,4.777,4.7656,4.6499,4.6347,4.5882,4.4672,4.4481,4.4282,4.4093,4.3651,4.3546,4.388,4.3441,4.3127,4.3023,4.3598,4.3912,4.3885,4.5088,4.5835,4.6311,4.7658,4.8617,4.9394,5.0422,5.2002,5.4006,5.6502,5.8136,5.9334,6.3801,6.5667,6.6176,6.7392,6.6564,6.4505,6.1492,5.9307,5.7224,5.3903,5.1352,4.9446,4.8599,4.7166,4.559,4.4312,4.3986,4.3783,4.2985,4.2462,4.2166,0.0,0.0,0.0,4.1452,4.0651,3.9951,4.0274,4.0234,4.0586,4.2011,4.3546,4.4995,4.6241,4.8898,5.1172,5.2316,5.2266,5.2316,5.281,5.3432,5.3858,5.4084,5.4084,5.4185,5.4386,5.4511,5.4561,5.4561,5.4009,5.3984,5.4561,5.3984,5.421,5.5214,5.4185,5.3959,5.4411,5.4511,5.4044,5.3213,5.5296,5.5421,5.4231,5.5193,5.529,5.4913,5.5265,5.5666,5.6219,5.7449,5.8177,5.8604,3.5793,3.6751,3.7742,3.8116,3.9948,4.1652,4.2811,4.3438,4.4252,4.5579,4.6749,4.7943,4.9401,4.901,4.8838,4.9432,4.8421,4.7188,4.5912,4.6013,4.58,4.4995,4.4889,4.4678,4.423,4.394,4.352,4.3023,4.3598,4.3912,4.3885,4.5088,4.6156,4.7169,4.8054,4.936,5.0865,5.1379,5.2944,5.539,5.918,5.9972,5.9388,6.3711,6.5428,6.5744,6.7217,6.7317,6.6112,6.2345,6.0914,5.996,5.5717,5.3113,5.1294,4.9682,4.7994,4.648,4.5814,4.5645,4.5405,4.4347,4.428,4.399,4.2383,0.0,4.0851,3.9978,0.0,3.8695,3.8258,0.0,0.0,3.849,4.0799,4.2664,4.265,4.4486,4.6426,4.8018,4.9028,4.9535,4.9585,5.0372,5.1297,5.2302,5.2377,5.2804,5.3758,5.4285,5.4561,5.4561,5.4009,5.3984,5.4561,5.3984,5.4009,5.4637,5.4009,5.3733,5.3808,5.4336,5.3254,5.1146,5.4663,5.4815,5.2671,5.506,5.6068,5.5993,5.5541,5.544,5.5691,5.7298,5.7951,5.8127,3.6604,3.7444,3.8465,3.9721,4.0674,4.1877,4.3664,4.5044,4.6027,4.6353,4.7414,4.901,5.1557,5.0174,5.0132,5.2891,5.0781,4.9026,4.8381,4.7862,4.7438,4.7002,4.632,4.5933,4.5983,4.5273,4.4591,4.4016,4.4251,4.4356,4.4382,4.5558,4.6621,4.762,4.8894,5.0249,5.1586,5.3038,5.3936,5.4637,5.76,5.845,5.8641,6.4838,6.6878,6.6429,6.7054,6.6965,6.6036,6.3124,6.1718,6.0788,5.8604,5.5599,5.2944,5.3052,5.0985,4.8579,4.8109,4.8488,4.8597,4.6777,4.6533,4.6202,4.3892,4.253,4.1465,4.0785,0.0,0.0,0.0,0.0,0.0,0.0,3.9335,4.0377,4.0574,4.188,4.3772,4.6166,4.6772,4.7307,4.8054,4.8625,4.9395,5.0739,5.0789,5.148,5.2903,5.3111,5.3432,5.4059,5.3833,5.3984,5.4561,5.3362,5.2908,5.3201,5.1682,5.0986,5.1082,5.2184,5.228,5.1705,5.4491,5.5254,5.462,5.5726,5.6219,5.6219,5.6319,5.6344,5.647,5.7524,5.8102,5.8478,3.784,0.0,3.886,4.0545,4.1075,4.2078,4.4319,4.6113,4.7194,4.7194,4.7889,4.9952,5.3973,5.2256,5.2618,5.7023,5.444,5.2244,5.1393,5.0282,4.9364,4.8807,4.7548,4.7002,4.7252,4.6286,4.5506,4.4856,4.4856,4.4881,4.4955,4.6003,4.6986,4.7925,4.9574,5.119,5.275,5.4733,5.5833,5.6369,5.8453,5.9654,6.0692,6.5453,6.7179,6.6965,6.6965,6.6614,6.581,6.3927,6.2747,6.1868,6.0688,5.7826,5.4974,5.5355,0.0,0.0,5.0315,5.0847,5.115,4.8993,4.8306,4.7678,4.5634,4.3988,4.2748,4.2245,4.1303,0.0,0.0,0.0,0.0,0.0,0.0,3.8807,3.888,3.9681,4.1177,4.3746,4.4292,4.5024,4.6415,4.6945,4.772,4.9174,4.9463,5.0248,5.183,5.1817,5.2278,5.3457,5.3188,5.3325,5.3942,5.2598,5.1848,5.1768,4.9975,4.9296,4.9508,5.0613,5.1559,5.226,5.4155,5.5306,5.6018,5.6319,5.6445,5.6495,5.7047,5.7273,5.7349,5.7901,5.8378,5.8805,3.9109,3.8605,3.8457,3.9544,4.0626,4.2093,4.4525,4.5856,4.6983,4.7848,4.8002,5.0445,5.6791,5.5903,5.697,6.2139,6.006,5.7447,5.4986,5.3334,5.1631,4.9731,4.8554,4.7751,4.7304,4.6704,4.6009,4.518,4.518,4.5308,4.5555,4.6212,4.71,4.8218,4.9863,5.2086,5.4687,5.6309,5.9106,6.2672,6.4354,6.6011,6.7179,6.4908,6.5243,6.6965,6.6965,6.6614,6.5936,6.4806,6.4379,6.3877,6.1165,5.9276,5.7596,5.5506,5.4545,5.381,5.2235,5.221,5.2259,5.0561,4.9113,4.797,4.7337,4.6045,4.4774,4.3998,4.2844,4.1742,4.107,0.0,0.0,0.0,0.0,0.0,0.0,3.7359,3.8146,3.9602,4.1215,4.2743,4.4074,4.4963,4.613,4.773,4.837,4.929,5.0687,5.0739,5.1414,5.2886,5.191,5.1682,5.2284,5.1706,5.1147,5.0641,5.006,5.0008,5.049,5.049,5.1138,5.2138,5.3245,5.4426,5.5491,5.657,5.6923,5.7072,5.765,5.7876,5.7951,5.8504,5.8704,5.8805,3.9233,3.9653,4.0252,4.1175,4.1329,4.2038,4.4279,4.6276,4.8582,5.1498,5.2498,5.5775,6.3201,6.1672,6.2159,6.7279,6.3953,6.1026,5.9738,5.7619,5.5846,5.4567,5.2868,5.1485,5.0547,4.9454,4.8081,4.6341,4.6175,4.6225,4.6465,4.6843,4.744,4.8277,4.9863,5.2137,5.484,5.7545,5.9633,6.1341,6.34,6.458,6.5157,6.5689,6.6151,6.6413,6.6413,6.6287,6.6061,6.5685,6.5082,6.4354,6.3776,6.1763,5.9553,5.9178,5.7722,5.6303,5.6352,5.7173,5.732,5.4782,5.3694,5.228,4.9078,4.7402,4.6005,4.4189,4.3931,4.3442,4.1376,0.0,0.0,0.0,0.0,0.0,0.0,3.6913,3.7317,3.8382,3.9938,4.1022,4.1136,4.2331,4.377,4.522,4.6212,4.7719,4.9734,5.0494,5.1187,5.1815,5.253,5.2307,5.1087,5.0923,5.0555,5.0031,4.913,4.8596,4.844,4.9579,5.0423,5.1185,5.2607,5.423,5.5993,5.6721,5.7022,5.7123,5.8077,5.8453,5.8453,5.8654,5.893,5.9357,4.0262,4.0968,4.1622,4.2137,4.2399,4.3134,4.489,4.7922,5.062,5.2549,5.5451,5.9595,6.526,6.5112,6.6429,7.1083,6.8294,6.5278,6.3048,6.1374,5.9488,5.7123,5.5947,5.4479,5.2838,5.1627,4.9854,4.7472,4.7205,4.7156,4.7212,4.7381,4.7738,4.8277,4.9657,5.1932,5.4891,5.8151,6.0487,6.222,6.3877,6.4429,6.4379,6.5609,6.586,6.5584,6.5961,6.6112,6.6112,6.6112,6.5634,6.5082,6.5233,6.3676,6.1793,6.1768,6.073,5.9573,5.9581,6.0355,6.0547,5.8227,5.715,5.5682,5.2136,5.0338,4.8962,4.7044,4.6086,4.5122,4.3418,0.0,0.0,0.0,0.0,0.0,0.0,3.6657,3.6882,3.7263,3.8556,3.9491,3.9738,4.0673,4.2014,4.3675,4.4852,4.644,4.8698,4.9733,5.064,5.1547,5.2604,5.2188,5.026,5.0283,4.9586,4.8332,4.758,4.7197,4.7047,4.8729,4.9958,5.0964,5.2475,5.445,5.6545,5.7123,5.7449,5.7725,5.8629,5.9006,5.9006,5.9006,5.9332,5.991,4.2192,4.2478,4.2608,4.2359,4.3771,4.5291,4.6265,5.0338,5.2762,5.1175,5.6895,6.1754,6.3507,6.6526,6.9914,7.3443,7.2715,7.0029,6.5183,6.4806,6.2621,5.7826,5.8001,5.699,5.421,5.331,5.1479,4.8732,4.8391,4.8129,4.7876,4.7876,4.7995,4.825,4.9245,5.1548,5.4789,5.7975,6.1667,6.5333,6.5911,6.581,6.5233,6.4731,6.4505,6.4605,6.571,6.6112,6.6112,6.6112,6.6112,6.6011,6.5484,6.4957,6.4304,6.3249,6.3324,6.3375,6.1818,6.1768,6.1893,6.0763,5.9451,5.7971,5.6228,5.4718,5.3343,5.221,4.9236,4.688,4.7002,4.3651,0.0,0.0,0.0,0.0,0.0,0.0,3.6603,3.6355,3.7012,3.8129,3.9656,3.9935,4.0932,4.318,4.4108,4.5486,4.7602,4.8396,4.9794,5.1879,5.213,5.1408,4.9749,4.9824,4.8485,4.5865,4.5865,4.6013,4.6509,4.8049,4.9663,5.1293,5.2821,5.4715,5.6799,5.7475,5.8051,5.8577,5.9282,5.9508,5.9533,5.9558,5.991,6.0437,4.269,4.3422,4.4042,4.4105,4.4841,4.5622,4.6299,4.8597,5.1362,5.4421,5.9803,6.4765,6.8304,7.2211,7.4827,7.5377,7.4774,7.3318,7.0782,6.9451,6.7844,6.5735,6.3802,6.1857,5.9744,5.6908,5.4195,5.1698,5.0009,4.9022,4.8771,4.8541,4.8332,4.825,4.9245,5.1113,5.3589,5.612,6.0139,6.4957,6.6276,6.6162,6.5333,6.5584,6.5183,6.4605,6.571,6.6112,6.6112,6.6112,6.6112,6.6086,6.5936,6.5534,6.5032,6.4731,6.4479,6.4279,6.4254,6.4329,6.4178,6.3099,6.1913,6.0476,5.8594,5.7197,5.5831,5.4128,5.2678,5.0749,4.754,4.5378,4.324,0.0,0.0,0.0,0.0,0.0,3.6524,3.6805,3.722,3.7519,3.7535,3.9213,4.0626,4.1386,4.2855,4.4693,4.6867,4.8117,4.9163,5.0007,5.2171,5.1728,4.8521,4.9669,4.9535,4.8036,4.8036,4.81,4.8208,4.8583,4.9057,4.945,4.9897,5.1053,5.2952,5.513,5.6152,5.6424,5.8644,5.9734,6.0161,6.0588,6.0839,6.109,4.3526,4.4082,4.4951,4.6008,4.6366,4.715,4.929,5.1087,5.3278,5.6385,6.2405,6.6951,6.8145,7.3478,7.6758,7.6431,7.613,7.4925,7.2539,7.2188,7.1033,6.8723,6.7342,6.5468,6.2997,5.944,5.647,5.404,5.1487,4.997,4.9498,4.9085,4.8606,4.825,4.8987,5.0448,5.2583,5.6445,6.0089,6.3393,6.5163,6.5509,0.0,6.5283,6.5157,6.4906,6.5534,6.5911,6.6112,6.6112,6.6112,6.6112,6.6112,6.5886,6.566,6.566,6.5434,6.5258,6.5559,6.566,6.5509,6.4906,6.4279,6.3217,6.1176,5.9972,5.8871,5.7298,5.5484,5.3335,5.0709,4.7833,4.4629,0.0,0.0,0.0,0.0,3.7168,3.7006,3.702,3.7284,3.7324,3.692,3.8674,4.0122,4.0706,4.2101,4.3914,4.6168,4.8009,4.9314,5.0215,5.3288,5.3325,4.9959,5.1008,5.0635,4.8909,4.8077,4.7752,4.773,4.9214,4.9897,4.9998,5.1678,5.3064,5.4291,5.6155,5.6952,5.7376,5.912,6.0211,6.0763,6.1341,6.1542,6.1667,4.4435,4.4743,4.5677,4.7588,4.7817,4.9386,5.4059,5.5507,5.6592,5.8093,6.4947,6.8755,6.6478,7.2801,7.7034,7.6883,7.6883,7.5603,7.264,7.3745,7.3016,6.9627,6.9677,6.8296,6.5183,6.1356,5.8261,5.5976,5.2754,5.079,4.9919,4.9334,4.8806,4.8355,4.8764,4.9885,5.1864,5.7648,6.0526,6.1378,6.3585,6.4555,6.468,6.4605,6.4931,6.5383,6.5308,6.5559,6.5886,6.5886,6.5936,6.6011,6.6011,6.6061,6.6112,6.6112,6.6112,6.6112,6.6112,6.6112,6.6112,6.6112,6.6112,6.5609,6.3701,6.2772,6.1994,6.0889,5.795,5.5378,5.4766,5.0238,4.5389,0.0,0.0,3.984,3.8603,3.8477,3.8209,3.7479,3.7824,0.0,3.7308,3.8406,3.9579,4.0611,4.1513,4.3108,4.5515,4.7555,4.947,5.1171,5.4322,5.4837,5.2277,5.2525,5.1378,4.8871,4.7325,4.6712,4.6897,5.0031,5.1431,5.1678,5.4978,5.68,5.7297,5.8097,5.8825,5.9659,6.0211,6.0788,6.1341,6.1843,6.2044,6.2169,4.5045,4.6015,4.6932,4.7296,4.8493,5.1871,5.9024,5.7897,5.7634,6.182,6.7459,7.0894,7.0378,7.4982,7.7862,7.6959,7.6883,7.6431,7.5402,7.5176,7.4799,7.4096,7.2414,7.0556,6.8622,6.3325,5.9564,5.7345,5.3229,5.0669,4.9593,4.9218,4.9044,4.8956,4.9187,5.0257,5.2236,5.6947,5.9401,6.0308,6.3285,6.5007,6.5785,6.5333,6.5484,6.5911,6.5459,6.5057,6.4756,6.4756,6.5057,6.5434,6.5434,6.5735,6.6112,6.6112,6.6112,6.6112,6.6112,6.6112,6.6112,6.6112,6.6112,6.6011,6.5634,6.4756,6.3726,6.2621,6.0734,5.8426,5.5403,5.0511,4.6434,4.4913,4.2963,4.1581,4.1331,4.1516,4.0959,0.0,4.0415,4.0653,3.8319,3.8706,3.9411,4.0105,4.0676,4.2182,4.4816,4.5916,4.7514,4.9771,5.2476,5.295,5.0974,5.1373,5.0565,4.8526,4.8409,4.8836,4.9654,5.1233,5.2221,5.2691,5.3334,5.3662,5.3959,5.589,5.8044,6.0236,6.0814,6.1366,6.1868,6.1969,6.2295,6.2697,4.5973,4.6496,4.7327,4.8415,4.9961,5.3723,6.173,6.2069,6.2687,6.603,6.9039,7.0906,7.1181,7.5354,7.7888,7.736,7.7561,7.7385,7.6532,7.623,7.5829,7.5276,7.3669,7.1861,6.9903,6.4924,6.1141,5.859,5.4166,5.1266,4.9957,4.9261,4.898,4.9139,0.0,5.1071,5.2385,5.6572,5.87,5.9636,6.3085,6.4957,6.566,6.5383,6.5283,6.5183,6.4655,6.4103,6.3701,6.4279,6.4831,6.5283,6.5283,6.566,6.6112,6.6112,6.6112,6.6112,6.6112,6.6112,6.6112,6.6112,6.6112,6.5961,6.5383,6.4856,6.4153,6.3048,6.1743,5.9581,5.5824,5.2585,4.9942,4.8204,4.6216,4.4524,4.3602,4.3529,4.3044,0.0,0.0,0.0,4.0628,3.9857,3.9483,3.9364,4.0531,4.2069,4.4016,4.5725,4.7676,4.9886,5.3108,5.4238,5.3031,5.2894,5.2525,5.1804,5.0323,5.0343,5.167,5.3185,5.3912,5.4249,5.5393,5.5926,5.6052,5.7634,5.9429,6.1215,6.1492,6.1943,6.2421,6.2421,6.2596,6.2822,4.6974,4.7127,4.7805,4.9959,5.2005,5.5753,6.3006,6.5947,6.814,7.053,7.1334,7.1887,7.2439,7.5603,7.7712,7.7712,7.7988,7.7762,7.6758,7.6707,7.6256,7.5276,7.4171,7.2615,7.048,6.6112,6.2476,5.9553,5.5143,5.2218,5.0567,4.9528,4.9252,4.9594,5.0996,5.2108,5.3083,5.6497,5.8502,5.964,6.2891,6.458,6.5258,6.5032,6.4831,6.4555,6.3927,6.34,6.3124,6.3877,6.4479,6.4957,6.4957,6.5333,6.5785,6.5911,6.5936,6.5961,6.6086,6.6112,6.6112,6.6112,6.6112,6.5886,6.5007,6.463,6.4178,6.3224,6.1843,5.9859,5.6696,5.4888,5.3187,5.0963,4.9078,4.7295,4.5527,4.5687,4.544,0.0,0.0,0.0,4.2876,4.1109,3.9842,3.9424,4.0733,4.2127,4.354,4.5749,4.7988,5.0084,5.3495,5.4985,5.4247,5.4363,5.4442,5.4395,5.203,5.1702,5.3267,5.4829,5.5655,5.5853,5.8089,5.9131,5.9307,6.0161,6.109,6.2019,6.2144,6.2446,6.2822,6.2822,6.2822,6.2822,4.8129,4.8434,4.9155,5.1465,5.4878,5.8796,6.3251,6.7419,7.1404,7.505,7.5929,7.6482,7.7009,7.7461,7.7712,7.7712,7.7285,7.6783,7.618,7.613,7.5854,7.5276,7.4171,7.2791,7.1033,6.6664,6.2966,5.9972,5.6021,5.3059,5.1002,5.0472,5.0463,5.0939,5.182,5.319,5.4986,5.7044,5.9106,6.106,6.2446,6.3902,6.5183,6.4203,6.4404,6.5082,6.4053,6.3651,6.355,6.3124,6.3375,6.3852,6.3852,6.4203,6.4731,6.5233,6.5358,6.5484,6.5986,6.6112,6.6112,6.6112,6.6112,6.6086,6.5986,6.5183,6.4304,6.3726,6.1492,5.9408,5.8554,5.6269,5.4084,5.281,5.0804,4.8696,4.6724,4.8882,4.9107,4.496,0.0,0.0,4.3939,4.1638,4.066,4.1387,4.1329,4.2027,4.3784,4.5048,4.689,4.9318,5.1629,5.23,5.1108,5.3534,5.4037,5.2671,5.2588,5.3108,5.4199,5.5439,5.6299,5.6859,5.9181,6.0462,6.0964,6.1065,6.1466,6.2044,6.2546,6.2772,6.2822,6.2822,6.2822,6.2822,4.9974,5.0591,5.1447,5.3242,5.5802,5.9288,6.4235,6.6389,6.9267,7.4437,7.5829,7.6456,7.6682,7.7009,7.721,7.721,7.731,7.7134,7.6582,7.623,7.5804,7.5276,7.4171,7.2816,7.1108,6.8045,6.4672,6.0983,5.7674,5.4731,5.2296,5.1272,5.1249,5.2031,5.3419,5.467,5.5933,5.8353,5.9859,6.0814,6.2621,6.3751,6.4279,6.3852,6.3952,6.4228,6.345,6.3174,6.3149,6.2898,6.3224,6.3751,6.4053,6.453,6.5082,6.5609,6.5785,6.5835,6.6061,6.6112,6.6112,6.6112,6.6112,6.6036,6.5685,6.5283,6.4731,6.3877,6.2245,6.0638,5.9408,5.8278,5.7021,5.5476,5.3721,5.1807,4.9476,5.0647,0.0,4.7121,0.0,4.764,4.6365,4.3605,4.2166,4.278,4.1992,4.1883,4.3009,4.5286,4.7269,4.8731,5.1681,5.3422,5.3637,5.4713,5.58,5.678,5.606,5.647,5.7941,5.8802,5.9316,5.9514,6.0397,6.1165,6.1667,6.1667,6.1994,6.2521,6.2747,6.2822,6.2873,6.3224,6.335,6.34,5.1631,5.2255,5.3183,5.496,5.7224,6.0136,6.4131,6.5542,6.7667,7.2002,7.375,7.5061,7.6004,7.6406,7.6707,7.6858,7.7084,7.6984,7.6431,7.603,7.5502,7.4799,7.3845,7.264,7.1108,6.8924,6.6021,6.2547,5.949,5.6632,5.3895,5.2539,5.2536,5.3612,5.4955,5.6233,5.7549,5.9508,6.0613,6.1215,6.2973,6.3701,6.3701,6.3701,6.3701,6.3626,6.3048,6.2822,6.2822,6.2822,6.3099,6.35,6.3877,6.4379,6.4931,6.5459,6.5735,6.5911,6.6061,6.6112,6.6112,6.6112,6.6112,6.6011,6.5609,6.5409,6.4982,6.3902,6.2923,6.1793,6.0261,5.9734,5.8906,5.7165,5.5829,5.3984,5.117,5.2083,0.0,4.8756,4.8828,4.9053,4.862,4.5822,4.4249,4.467,4.3819,4.3313,4.3372,4.5715,4.7676,4.9043,5.1989,5.396,5.4934,5.5943,5.7333,5.9103,5.8346,5.8579,5.9826,6.0248,6.0761,6.1416,6.1266,6.1592,6.2245,6.2069,6.2345,6.2822,6.2822,6.2923,6.3124,6.355,6.3701,6.3776,5.2761,5.3083,5.3873,5.6615,5.9694,6.1945,6.2466,6.5645,6.7973,6.8074,6.9916,7.2466,7.5732,7.6055,7.6281,7.6833,7.6381,7.5854,7.5301,7.5251,7.4749,7.3669,7.3042,7.2213,7.1108,6.8924,6.6689,6.4429,6.1407,5.8578,5.5817,5.4465,5.4592,5.5893,5.645,5.8025,6.0261,6.0311,6.1291,6.2847,6.345,6.3701,6.3701,6.3701,6.3701,6.3626,6.3048,6.2822,6.2822,6.2822,6.2822,6.2847,6.2847,6.3249,6.3802,6.4329,6.4881,6.5434,6.5961,6.6112,6.6112,6.6112,6.6112,6.6112,6.6112,6.5685,6.4982,6.3902,6.3224,6.2471,6.1366,6.0236,5.8956,5.7298,5.6384,5.4693,5.1245,5.3224,0.0,4.9576,5.0372,5.1021,5.0444,4.8133,4.6873,4.732,4.7243,4.665,4.5436,4.611,4.7866,5.0721,5.2079,5.2976,5.3441,5.6686,5.812,5.7751,5.8304,5.8569,5.8651,5.8651,5.9886,6.1969,6.1416,6.1818,6.2772,6.222,6.2345,6.2822,6.2822,6.3174,6.3676,6.3701,6.3701,6.3776,5.483,5.53,5.6068,5.7792,5.919,6.0749,6.2712,6.3038,6.3919,6.6582,6.8141,6.9792,7.2028,7.4217,7.5728,7.6256,7.5804,7.5427,7.5251,7.4523,7.3971,7.3619,7.3042,7.2213,7.1108,6.9652,6.7819,6.5584,6.2946,6.0326,5.759,5.6912,5.7017,5.785,5.8756,5.9812,6.0964,6.1718,6.2571,6.34,6.3199,6.335,6.3651,6.3249,6.3099,6.3073,6.2898,6.2822,6.2822,6.2822,6.2822,6.2822,6.2822,6.3475,6.4329,6.4881,6.5434,6.5886,6.6061,6.6112,6.6112,6.6112,6.6112,6.6112,6.6112,6.5685,6.5082,6.4379,6.3802,6.3073,6.1943,6.114,6.0189,5.8732,5.7799,5.6342,5.3788,0.0,5.3813,5.1327,5.1512,5.1858,5.1761,4.9922,4.8782,4.9072,4.8534,4.7564,4.619,4.8342,5.0177,5.1501,5.3689,5.5561,5.6976,5.8251,5.9497,6.0614,6.0812,6.1085,6.1432,6.106,6.1534,6.2546,6.237,6.2496,6.2822,6.2647,6.2672,6.2822,6.2822,6.2948,6.3199,6.3952,6.4228,6.4354,5.5981,5.6366,5.6945,5.8146,5.8581,5.9323,6.12,6.076,6.1053,6.3439,6.5785,6.7755,6.9037,7.2471,7.4607,7.4541,7.4911,7.4834,7.3997,7.3888,7.382,7.3594,7.2841,7.1987,7.1108,7.0003,6.8547,6.6739,6.3798,6.1306,5.9413,5.8756,5.8905,5.9684,6.0563,6.1266,6.1843,6.2546,6.3048,6.3375,6.3425,6.3425,6.3375,6.3425,6.3199,6.2822,6.2822,6.2822,6.2822,6.2822,6.2822,6.2822,6.2822,6.3576,6.453,6.4881,6.5509,6.6112,6.6112,6.6112,6.6112,6.6112,6.6112,6.6112,6.6112,6.5835,6.5383,6.463,6.4203,6.3576,6.2245,6.1542,6.0842,5.9817,5.8656,5.7273,5.544,5.5189,5.4545,0.0,5.3003,5.3412,5.3528,5.2266,5.1389,5.1177,5.0647,4.9977,4.9026,5.0563,5.1959,5.2887,5.5082,5.7078,5.8818,5.944,6.049,6.1994,6.222,6.2496,6.2822,6.2471,6.2496,6.2822,6.2822,6.2822,6.2822,6.2822,6.2822,6.2822,6.2822,6.3073,6.3525,6.4228,6.4605,6.4906,5.6387,5.6573,5.6863,5.7794,5.796,5.8125,5.8581,5.9057,5.9347,5.9305,6.3271,6.6339,6.6898,7.059,7.2639,7.1438,7.3676,7.4193,7.2136,7.3477,7.4046,7.3494,7.2464,7.1636,7.1033,6.9953,6.8798,6.7618,6.3952,6.1893,6.1341,6.0236,6.0286,6.1316,6.1843,6.2345,6.2822,6.2873,6.2898,6.3023,6.4028,6.3827,6.3048,6.4002,6.3726,6.2822,6.2822,6.2847,6.2873,6.2847,6.2847,6.2898,6.2898,6.3626,6.4454,6.4454,6.5258,6.6112,6.6112,6.6112,6.6112,6.6112,6.6112,6.6112,6.6112,6.6112,6.581,6.4705,6.4454,6.3977,6.237,6.1592,6.0989,6.0412,5.8956,5.7499,5.6369,5.6219,5.5641,5.4059,5.4838,5.5516,5.5566,5.5064,5.4369,5.3466,5.3582,5.3585,5.3371,5.3081,5.3518,5.4816,5.6384,5.7868,5.933,6.026,6.1184,6.2069,6.2571,6.2822,6.2822,6.2822,6.2822,6.2822,6.2822,6.2822,6.2822,6.2873,6.2898,6.2898,6.2923,6.3576,6.4479,6.4505,6.4856,6.5383,5.6387,5.6573,5.6966,5.8229,5.8436,5.8601,5.9057,5.9533,5.9699,5.9347,6.199,6.403,6.4141,6.6539,6.7492,6.5907,7.0827,7.3778,7.327,7.3157,7.2891,7.2339,7.2037,7.146,7.048,6.9376,6.7844,6.5886,6.453,6.3626,6.3073,6.237,6.2169,6.2446,6.2571,6.2697,6.2847,6.3299,6.3726,6.4078,6.3927,6.3952,6.4028,6.345,6.3048,6.2822,6.2822,6.3124,6.3425,6.2973,6.3124,6.3475,6.3475,6.3927,6.4454,6.4454,6.5258,6.6112,6.6112,6.6112,6.6112,6.6112,6.6112,6.6112,6.6112,6.6112,6.581,6.4705,6.4454,6.4078,6.2847,6.1843,6.0989,6.0412,5.8956,5.7499,5.6369,5.6219,5.6068,5.5666,5.6219,5.6821,5.7248,5.6796,5.6146,5.5521,5.5924,5.5852,5.5085,5.68,5.777,5.7694,5.8862,6.0114,6.1271,6.1546,6.1977,6.2647,6.2772,6.2822,6.2822,6.2822,6.2822,6.2822,6.2822,6.2822,6.2873,6.3299,6.3475,6.3525,6.3927,6.4228,6.4505,6.4931,6.5183,6.5383,5.6697,5.6697,5.6863,5.7815,5.798,5.8063,5.8312,5.8933,5.9264,5.9015,6.1473,6.3193,6.3193,6.5076,6.607,6.5132,6.8498,7.0342,6.9566,7.0665,7.1115,7.082,7.1069,7.0882,7.028,6.9175,6.7794,6.6061,6.5233,6.458,6.4028,6.3475,6.3073,6.2822,6.2822,6.2973,6.3249,6.355,6.4002,6.4454,6.4429,6.4429,6.4404,6.3802,6.3576,6.355,6.3299,6.3576,6.4002,6.3676,6.3776,6.4053,6.4053,6.4404,6.4856,6.4856,6.5434,6.6112,6.6112,6.6112,6.6112,6.6112,6.6112,6.6112,6.6112,6.6112,6.5886,6.5032,6.463,6.4203,6.3375,6.2094,6.0989,6.0412,5.9109,5.7724,5.6696,5.6742,5.6917,5.6947,5.7675,5.8378,5.8956,5.873,5.8303,5.775,5.785,5.7724,5.7424,5.9023,5.9676,5.8798,6.0308,6.1391,6.1994,6.2521,6.2797,6.2822,6.3099,6.3224,6.3224,6.3224,6.335,6.355,6.3324,6.335,6.3576,6.3651,6.3827,6.4078,6.4354,6.463,6.4881,6.5183,6.5459,6.571,5.707,5.6925,5.6801,5.7256,5.7339,5.7359,5.7422,5.8167,5.8726,5.8726,6.1059,6.2703,6.2703,6.4369,6.5455,6.5455,6.5841,6.5739,6.4863,6.772,6.9358,6.9214,6.9938,7.0179,7.0029,6.8949,6.7869,6.684,6.581,6.5007,6.4454,6.3927,6.3375,6.2822,6.2822,6.3149,6.3701,6.3776,6.4103,6.463,6.5107,6.5007,6.458,6.4505,6.4454,6.4404,6.3977,6.4153,6.458,6.4505,6.453,6.458,6.458,6.4906,6.5308,6.5383,6.5735,6.6112,6.6112,6.6112,6.6112,6.6112,6.6112,6.6112,6.6112,6.6112,6.5961,6.5409,6.4856,6.4304,6.3776,6.232,6.0964,6.039,5.9186,5.8048,5.6971,5.7367,5.7769,5.78,5.8855,5.9809,6.0261,6.0387,6.0261,5.9784,5.9448,5.937,5.9656,6.0422,6.0308,5.9284,6.1101,6.2169,6.227,6.3224,6.3475,6.3073,6.3576,6.3802,6.3802,6.3802,6.4053,6.4429,6.4002,6.4053,6.4429,6.4078,6.4203,6.4605,6.468,6.5007,6.5409,6.5409,6.571,6.6112,5.7132,5.7173,5.7277,5.7732,5.7815,5.7939,5.8332,5.885,5.9202,5.9202,5.9948,6.049,6.049,6.0782,6.099,6.099,6.1053,6.2351,6.5369,6.757,6.8468,6.7602,6.9344,6.9828,6.8899,6.7794,6.6915,6.6237,6.5609,6.5007,6.4454,6.3927,6.3375,6.2822,6.2822,6.3149,6.3726,6.4153,6.4655,6.5157,6.5258,6.5233,6.5107,6.4655,6.4454,6.4454,6.4379,6.4705,6.5082,6.463,6.4781,6.5157,6.5157,6.5233,6.5383,6.5835,6.6036,6.6112,6.6112,6.6112,6.6112,6.6112,6.6112,6.6112,6.6112,6.6112,6.5961,6.5409,6.4856,6.4304,6.3776,6.232,6.0997,6.0249,5.9161,5.7869,5.6374,5.7362,5.7973,5.7223,5.8956,6.0236,6.0311,6.0763,6.1014,6.0939,6.0835,6.0676,6.0333,6.1276,6.1552,6.1055,6.2077,6.2948,6.3425,6.3601,6.3877,6.4228,6.4304,6.4354,6.4354,6.4354,6.4379,6.4454,6.4379,6.4379,6.4505,6.4881,6.5082,6.5208,6.5685,6.5911,6.5986,6.5986,6.6036,6.6112,5.7194,5.7235,5.7297,5.7504,5.7546,5.7608,5.7836,5.8477,5.8933,5.8933,5.9554,5.9988,5.9988,5.9988,5.9988,5.9988,5.9988,6.0488,6.1821,6.3829,6.4593,6.3862,6.6361,6.7744,6.7769,6.7241,6.6689,6.6112,6.586,6.5459,6.4906,6.4655,6.4103,6.3299,6.3299,6.3601,6.4128,6.4354,6.4957,6.5735,6.5735,6.5735,6.5685,6.5107,6.5082,6.5308,6.5007,6.5258,6.5685,6.5434,6.5534,6.5735,6.5735,6.5735,6.5785,6.6036,6.6112,6.6112,6.6112,6.6112,6.6112,6.6112,6.6112,6.6112,6.6112,6.6112,6.6036,6.5785,6.5283,6.4756,6.4203,6.2998,6.1672,6.0395,5.9718,5.8806,5.7217,5.8098,5.8756,5.8353,5.9784,6.0889,6.119,6.1743,6.2069,6.2069,6.2069,6.1988,6.1721,6.2133,6.2515,6.2652,6.3092,6.3425,6.3701,6.4254,6.453,6.4454,6.4781,6.4906,6.4906,6.4906,6.5082,6.5333,6.5032,6.5082,6.5358,6.5308,6.5459,6.576,6.6011,6.6112,6.6112,6.6112,6.6112,6.6112,5.7235,5.7235,5.7235,5.7235,5.7318,5.7422,5.7525,5.825,5.8767,5.8767,5.9471,5.9947,5.9843,5.9926,5.9988,5.9988,5.9988,5.9636,5.8829,6.0149,6.0848,6.0725,6.3642,6.5607,6.6354,6.6666,6.6564,6.6112,6.6112,6.5835,6.5283,6.5283,6.4781,6.3877,6.3877,6.4153,6.4655,6.4655,6.5233,6.6112,6.6112,6.6112,6.6061,6.5634,6.5735,6.6061,6.5634,6.576,6.6112,6.6112,6.6112,6.6137,6.6262,6.6312,6.6312,6.6312,6.6212,6.6112,6.6112,6.6212,6.6312,6.6312,6.6212,6.6187,6.6438,6.6287,6.6137,6.6287,6.576,6.5132,6.4555,6.3576,6.232,6.0842,6.0323,5.9667,5.853,5.8984,5.9541,5.9686,6.0688,6.1542,6.1969,6.2496,6.2822,6.2822,6.2822,6.2898,6.3023,6.3023,6.3299,6.3852,6.3877,6.3927,6.4053,6.4881,6.5132,6.4856,6.5283,6.5484,6.5484,6.5484,6.571,6.6086,6.566,6.571,6.6086,6.566,6.5735,6.6112,6.6112,6.6112,6.6112,6.6112,6.6112,6.6112,5.7235,5.7235,5.7235,5.7235,5.7587,5.8001,5.8436,5.8933,5.9243,5.9243,5.9678,5.9823,5.9409,5.974,5.9988,5.9988,5.9988,5.9781,5.9285,5.8953,5.909,5.9645,6.2572,6.4205,6.4311,6.5546,6.6162,6.6112,6.6112,6.5835,6.5283,6.5283,6.4982,6.4404,6.4404,6.4705,6.5233,6.5233,6.5559,6.6112,6.6112,6.6112,6.6112,6.6061,6.6086,6.6112,6.6061,6.6086,6.6112,6.6112,6.6112,6.6212,6.6739,6.6915,6.6915,6.6915,6.6538,6.6112,6.6112,6.6513,6.6915,6.6915,6.6513,6.6388,6.7442,6.6865,6.6262,6.6815,6.6036,6.5132,6.4555,6.3576,6.2527,6.1793,6.0835,6.0099,5.9921,6.0023,6.0097,6.0186,6.1266,6.1969,6.1994,6.2496,6.2822,6.2822,6.2822,6.3048,6.3601,6.3626,6.3877,6.4379,6.4404,6.4655,6.5157,6.5258,6.5534,6.5986,6.6036,6.6061,6.6061,6.6061,6.6061,6.6112,6.6061,6.6061,6.6112,6.6061,6.6086,6.6112,6.6112,6.6112,6.6112,6.6112,6.6112,6.6112,5.7173,5.7235,5.7235,5.7235,5.7608,5.798,5.8146,5.8581,5.8974,5.9264,5.945,5.9616,5.9719,5.9885,5.9988,5.9988,5.9719,5.9367,5.8912,5.8436,5.8426,5.91,6.1072,6.2572,6.3514,6.5211,6.6112,6.6112,6.6112,6.6011,6.581,6.581,6.5509,6.4982,6.4982,6.5082,6.5283,6.5283,6.5609,6.6112,6.6112,6.6112,6.6112,6.6112,6.6112,6.6112,6.6112,6.6112,6.6112,6.6112,6.6112,6.6212,6.6789,6.6714,6.6513,6.6865,6.7317,6.7593,6.7241,6.7066,6.6965,6.6965,6.7066,6.7267,6.7693,6.7191,6.6714,6.694,6.6338,6.5634,6.5082,6.4354,6.3558,6.2558,6.1807,6.1176,6.0824,6.0773,6.0896,6.1291,6.1743,6.2144,6.2471,6.2697,6.2822,6.2822,6.2822,6.3073,6.3651,6.4329,6.4781,6.4982,6.5308,6.5434,6.5283,6.5634,6.5911,6.6112,6.6112,6.6112,6.6112,6.6112,6.6112,6.6112,6.6112,6.6112,6.6112,6.6112,6.6112,6.6112,6.6112,6.6112,6.6112,6.6112,6.6112,6.6112,5.7132,5.7235,5.7277,5.7422,5.7711,5.8022,5.8312,5.8622,5.8933,5.9264,5.9429,5.9533,5.9554,5.9823,5.9926,5.9781,5.9616,5.9326,5.885,5.8125,5.7729,5.7881,5.9151,6.0661,6.2202,6.4192,6.5483,6.6112,6.6112,6.6112,6.6112,6.6112,6.5911,6.5534,6.5534,6.5534,6.5534,6.5534,6.576,6.6112,6.6112,6.6112,6.6112,6.6112,6.6112,6.6112,6.6112,6.6112,6.6112,6.6112,6.6237,6.6488,6.7066,6.7091,6.7015,6.7593,6.8045,6.8321,6.812,6.7769,6.7493,6.7493,6.7643,6.7894,6.8246,6.7769,6.7292,6.7467,6.6915,6.6212,6.566,6.5107,6.4429,6.35,6.2898,6.2446,6.2245,6.2069,6.2169,6.2722,6.2772,6.2923,6.3299,6.335,6.335,6.335,6.335,6.3601,6.4153,6.5057,6.5534,6.5534,6.5911,6.5936,6.5559,6.5936,6.6112,6.6112,6.6112,6.6112,6.6112,6.6112,6.6112,6.6112,6.6112,6.6112,6.6112,6.6112,6.6112,6.6112,6.6112,6.6112,6.6112,6.6112,6.6112,6.6112,5.7132,5.7235,5.738,5.7836,5.7918,5.8229,5.916,5.9305,5.9305,5.9285,5.9699,5.9636,5.8705,5.9429,5.9802,5.9347,5.9719,5.9781,5.9326,5.798,5.6821,5.591,5.6821,5.8307,6.0226,6.2226,6.4129,6.6112,6.6137,6.6112,6.6112,6.6112,6.6112,6.6112,6.6112,6.6112,6.6112,6.6112,6.6112,6.6112,6.6112,6.6112,6.6112,6.6112,6.6137,6.6137,6.6137,6.6137,6.6137,6.6137,6.6513,6.7066,6.7618,6.8196,6.8748,6.9275,6.8673,6.7945,6.8497,6.8648,6.8648,6.8622,6.8221,6.8095,6.92,6.8597,6.797,6.8497,6.7744,6.6815,6.6237,6.566,6.5107,6.4555,6.4028,6.3877,6.4404,6.4028,6.3877,6.4404,6.4454,6.4454,6.4454,6.4454,6.4454,6.4454,6.4454,6.4705,6.5258,6.581,6.6112,6.6112,6.6112,6.6112,6.6112,6.6112,6.6112,6.6112,6.6112,6.6112,6.6112,6.6112,6.6112,6.6112,6.6112,6.6112,6.6112,6.6112,6.6112,6.6112,6.6112,6.6112,6.6112,6.6112,6.6112,6.6112,5.707,5.7235,5.738,5.7836,5.8187,5.8498,5.8767,5.9098,5.9181,5.885,5.8933,5.8912,5.8643,5.914,5.945,5.9305,5.9429,5.9181,5.8374,5.7028,5.6304,5.6366,5.7656,5.8598,5.9257,6.2565,6.4511,6.5161,6.654,6.7091,6.6714,6.6714,6.6513,6.6112,6.6112,6.6112,6.6112,6.6112,6.6112,6.6137,6.6564,6.6714,6.6764,6.7141,6.7292,6.7292,6.7292,6.7292,6.7292,6.7292,6.7417,6.7593,6.7744,6.8698,6.9652,6.9049,6.9175,6.9551,6.9727,7.0054,7.0079,6.8899,6.8798,6.9049,6.9376,6.8899,6.8422,6.8597,6.7744,6.6915,6.6739,6.5936,6.5233,6.5082,6.458,6.4279,6.4454,6.4329,6.4304,6.4454,6.4454,6.4454,6.4454,6.4454,6.4454,6.4454,6.4831,6.5107,6.5283,6.6187,6.6714,6.6714,6.7091,6.7116,6.6714,6.6312,6.6312,6.6714,6.6312,6.6338,6.6714,6.6287,6.6112,6.6112,6.6112,6.6112,6.6112,6.6112,6.6112,6.6112,6.6112,6.6112,6.6112,6.6112,6.6112,6.6112,5.7049,5.7235,5.7422,5.8084,5.827,5.8519,5.9078,5.9243,5.9264,5.916,5.916,5.9078,5.8912,5.9305,5.9492,5.9326,5.914,5.8705,5.796,5.6966,5.6531,5.6821,5.769,5.8396,5.8773,6.1925,6.3948,6.4698,6.677,6.7618,6.7317,6.7317,6.7116,6.6789,6.6789,6.6789,6.6764,6.6538,6.6463,6.6488,6.684,6.6965,6.7041,6.7593,6.7794,6.7794,6.7794,6.7794,6.7794,6.7794,6.7945,6.8196,6.8648,6.9451,7.0179,6.9727,7.0054,7.0581,7.0581,7.0832,7.0857,6.9853,6.9853,7.0029,6.9828,6.9501,6.92,6.8999,6.8246,6.7618,6.7618,6.689,6.6287,6.6287,6.6011,6.5785,6.5785,6.5785,6.571,6.5484,6.5459,6.5358,6.5132,6.5107,6.5107,6.5107,6.5434,6.5609,6.5609,6.6488,6.6965,6.6965,6.7518,6.7643,6.7317,6.694,6.6739,6.6639,6.6513,6.6639,6.6965,6.6614,6.6463,6.6463,6.6463,6.6338,6.6112,6.6112,6.6112,6.6112,6.6112,6.6112,6.6112,6.6112,6.6112,6.6112,5.7049,5.7235,5.7525,5.8457,5.825,5.8415,5.9719,5.9616,5.9492,5.9823,5.9906,5.9761,5.9285,5.9657,5.9761,5.9347,5.8912,5.8498,5.8063,5.7525,5.7256,5.7297,5.7215,5.7648,5.8617,6.0848,6.2781,6.457,6.6829,6.7919,6.7869,6.7869,6.7844,6.7794,6.7794,6.7794,6.7769,6.7267,6.7041,6.7066,6.7091,6.7116,6.7191,6.7794,6.802,6.802,6.807,6.8095,6.8095,6.8095,6.8447,6.9074,7.0029,7.0355,7.0506,7.0958,7.1108,7.1158,7.1158,7.1184,7.1234,7.1234,7.1234,7.1083,7.048,7.033,7.0179,6.9627,6.9074,6.8673,6.8622,6.817,6.7794,6.7794,6.7794,6.7794,6.7794,6.7794,6.7618,6.7116,6.7015,6.6764,6.6237,6.6137,6.6112,6.6112,6.6162,6.6187,6.6187,6.6789,6.7116,6.7116,6.7668,6.7919,6.7869,6.7919,6.7417,6.6338,6.6815,6.7066,6.7116,6.7015,6.7015,6.7041,6.699,6.6664,6.6187,6.6187,6.6162,6.6112,6.6112,6.6112,6.6112,6.6112,6.6112,6.6112,5.7111,5.7235,5.7525,5.8457,5.8519,5.8684,5.9347,5.9678,5.9616,5.8995,5.9222,5.9264,5.8808,5.9181,5.9409,5.9305,5.9202,5.9098,5.8995,5.7877,5.738,5.7753,5.709,5.6978,5.7499,6.1119,6.3192,6.3569,6.728,6.8874,6.8447,6.8447,6.8221,6.7794,6.7794,6.7794,6.7794,6.7668,6.7618,6.7668,6.8095,6.8271,6.8371,6.9351,6.9727,6.9777,7.0204,7.0355,7.0355,7.0355,7.0732,7.1158,7.0958,7.1209,7.1485,7.1184,7.1384,7.1736,7.1736,7.2037,7.2364,7.2364,7.2364,7.2113,7.1133,7.0907,7.0757,7.0204,6.9652,6.9125,6.8698,6.817,6.7794,6.7794,6.7794,6.7794,6.7794,6.7794,6.7769,6.7643,6.7241,6.6915,6.6815,6.6388,6.6112,6.6112,6.6538,6.6789,6.6789,6.7744,6.8271,6.8271,6.8798,6.8874,6.8447,6.8874,6.8748,6.807,6.7769,6.7844,6.8246,6.7367,6.7216,6.7593,6.7166,6.6915,6.6789,6.6789,6.6513,6.6112,6.6112,6.6112,6.6112,6.6112,6.6112,6.6112,5.7132,5.7401,5.7773,5.8477,5.8788,5.9098,5.9554,5.9843,5.9823,5.9326,5.9471,5.9533,5.9285,5.9492,5.9533,5.9326,5.9305,5.9202,5.8995,5.8291,5.7898,5.7918,5.7463,5.7318,5.7546,6.0637,6.2523,6.3325,6.7683,6.9551,6.9024,6.9024,6.8848,6.8572,6.8572,6.8572,6.8572,6.8296,6.8196,6.8221,6.8497,6.8773,6.91,6.9953,7.043,7.0681,7.0983,7.1083,7.1083,7.1083,7.1284,7.151,7.1485,7.1686,7.1912,7.1887,7.2062,7.2288,7.2288,7.2514,7.274,7.274,7.274,7.2514,7.1661,7.1259,7.0932,7.038,6.9828,6.9351,6.9074,6.8773,6.8572,6.8572,6.8572,6.8572,6.8572,6.8572,6.8497,6.8221,6.7945,6.7668,6.7392,6.7091,6.6915,6.6915,6.7191,6.7367,6.7367,6.817,6.8622,6.8622,6.915,6.93,6.9024,6.93,6.93,6.8999,6.8447,6.8346,6.8597,6.802,6.7919,6.817,6.7894,6.7467,6.6965,6.6965,6.6639,6.6137,6.6413,6.6363,6.6137,6.6413,6.6338,6.6112,5.7152,5.7608,5.8043,5.8415,5.8933,5.9429,5.9823,5.9947,5.9988,5.9988,5.9988,5.9988,5.9988,5.9988,5.9843,5.945,5.9409,5.9264,5.8871,5.8767,5.856,5.8167,5.8084,5.8043,5.8043,6.0155,6.1992,6.36,6.7678,6.9639,6.9577,6.9577,6.9526,6.9451,6.9652,6.9627,6.9336,6.915,6.8924,6.8773,6.8974,6.925,6.9652,7.0305,7.0832,7.1234,7.1334,7.1359,7.1359,7.1359,7.1359,7.1435,7.1912,7.2037,7.2138,7.259,7.274,7.274,7.274,7.2791,7.2841,7.2765,7.2816,7.274,7.2163,7.1686,7.1184,7.0531,7.0104,6.9777,6.9411,6.9602,6.9702,6.9602,6.9577,6.9577,6.9577,6.9501,6.93,6.8949,6.8899,6.8648,6.7995,6.7945,6.7894,6.7819,6.7894,6.7945,6.7945,6.8472,6.8773,6.8773,6.92,6.9361,6.9361,6.9361,6.9361,6.9336,6.8974,6.8773,6.8748,6.8673,6.8673,6.8748,6.8673,6.8095,6.7241,6.7166,6.6789,6.6312,6.6789,6.6689,6.6338,6.6915,6.6764,6.6287,5.7215,5.7608,5.7939,5.8001,5.8726,5.9326,5.9388,5.974,5.9988,5.9988,5.9988,5.9988,5.9988,5.9988,5.9968,5.9906,5.9906,5.9864,5.9802,5.9429,5.9181,5.9119,5.8726,5.8519,5.8519,6.097,6.3112,6.4679,6.6631,6.8406,7.0154,7.0154,6.9903,6.9386,7.043,7.033,6.9501,7.038,7.0204,6.9426,7.038,7.0506,7.0255,7.1284,7.1736,7.1861,7.2339,7.2514,7.2514,7.2514,7.2514,7.2514,7.259,7.2615,7.264,7.2715,7.274,7.274,7.274,7.3092,7.3368,7.2841,7.3117,7.3318,7.274,7.2565,7.2213,7.1184,7.1284,7.1133,6.9702,7.0229,7.0706,7.0229,7.0154,7.0154,7.0154,6.9752,6.9602,7.0003,7.0029,6.9627,6.8597,6.8497,6.8321,6.7819,6.8246,6.8497,6.8497,6.9024,6.9325,6.9325,6.9401,6.9361,6.9361,6.9361,6.9361,6.9361,6.9376,6.9325,6.9325,6.8848,6.8874,6.93,6.8823,6.8547,6.8371,6.7869,6.7367,6.6865,6.694,6.6915,6.6915,6.7493,6.7342,6.6915,5.7235,5.7608,5.8001,5.825,5.885,5.9388,5.9636,5.9864,5.9988,5.9988,5.9988,5.9988,5.9988,5.9988,5.9988,5.9988,5.9988,5.9988,5.9988,5.9802,5.9574,5.9305,5.9098,5.8995,5.8995,6.0087,6.2393,6.5712,6.7246,6.8978,7.0732,7.0732,7.0581,7.038,7.0857,7.0807,7.038,7.0882,7.0807,7.0405,7.0882,7.1133,7.1234,7.1711,7.2087,7.2389,7.264,7.274,7.274,7.274,7.274,7.274,7.274,7.274,7.274,7.274,7.274,7.2791,7.3117,7.3167,7.3117,7.3192,7.3167,7.3042,7.2791,7.2991,7.2891,7.1786,7.1485,7.1234,7.0506,7.0757,7.1008,7.0757,7.0732,7.0606,7.0305,7.0054,6.9878,6.9828,6.9803,6.9627,6.9125,6.9074,6.8974,6.8748,6.8949,6.9074,6.9074,6.93,6.9361,6.9361,6.9752,6.9903,6.9903,6.9903,6.9903,6.9903,6.9602,6.9361,6.9336,6.92,6.9225,6.9426,6.92,6.8899,6.8597,6.8346,6.7919,6.7467,6.7769,6.7894,6.7894,6.7819,6.7643,6.7467]}]]